Darstellungsparameter: Aktuell verwendete Einstellungen:
Skalierung der Graphiken ... ?
xyx+y,   Skalierungsfaktor:      Skalierung: Modus: x, Faktor: 1
Darstellungszeitraum ... ?
Vom - - bis: - -   Zeitraum: 01.07.2020 - 01.01.2021
Min/Max/Avg-Anzeige ... ?
Zeige MMA aktuell
Zeige MMA Monat
Zeige MMA alles
Zeige --A aktuell
Zeige --A Monat
Zeige --A alles
Keine MMA-Anzeige
MMA:
Average (ber die Originaldaten)
MMA-Basis: 01.07.2020 - 01.01.2021
Quicknavigation für Darstellung... ?
Tage:      1T, 2T, 3T, 5T -1T -2T -3T -5T +1T +2T +3T +5T
Wochen: 1W, 2W, 3W -1W -2W -3W +1W +2W +3W
Monate: 1M, 3M, 6M -1M -3M -6M +1M +3M +6M
Jahre:    1J, 3J, 5J, 10J -1J -3J -5J -10J +1J +3J +5J +10J
Nutze für die Darstellung ... ?
Originaldaten oder ...
Mittelwerte Minima Maxima auf...
Stundenbasis Tagesbasis Wochenbasis
Monatsbasis Jahresbasis      Datenbasis: Mittelwerte auf Stundenbasis
Darstellen als:
Statistik (Auto) Statistik J:M      Darstellung:
Zur Graphik,    zurück zur Übersicht aller Sensoren.
 
Tabellarische Datenbersicht: ?
 
Sensor: Nr:Datum:Temp:Abs-Feuchte:Windchill:Wind:
Aussen-T/F 1 01-07-2020 00:00:00 19.40833 C 11.75 g/m*3 19.41 C 9.54167 km/h
2 01-07-2020 01:00:00 19.025 C 11.86 g/m*3 19.02 C 5.75833 km/h
3 01-07-2020 02:00:00 18.175 C 11.78 g/m*3 18.18 C 7.1 km/h
4 01-07-2020 03:00:00 17.78333 C 11.85 g/m*3 17.78 C 3.33333 km/h
5 01-07-2020 04:00:00 17.15833 C 11.8 g/m*3 17.16 C 2 km/h
6 01-07-2020 05:00:00 16.54167 C 11.72 g/m*3 16.54 C 0.53333 km/h
7 01-07-2020 06:00:00 15.71667 C 11.69 g/m*3 15.72 C 1.33333 km/h
8 01-07-2020 07:00:00 16.675 C 12.4 g/m*3 16.68 C 4.28333 km/h
9 01-07-2020 08:00:00 19.09167 C 12.85 g/m*3 19.09 C 9.825 km/h
10 01-07-2020 09:00:00 20.89167 C 13.53 g/m*3 20.89 C 9.26667 km/h
11 01-07-2020 10:00:00 21.55 C 13.84 g/m*3 21.55 C 13.43333 km/h
12 01-07-2020 11:00:00 22.125 C 13.9 g/m*3 22.13 C 11.96667 km/h
13 01-07-2020 12:00:00 23.56667 C 13.87 g/m*3 23.57 C 17.7 km/h
14 01-07-2020 13:00:00 24.09167 C 14.01 g/m*3 24.09 C 19.03333 km/h
15 01-07-2020 14:00:00 24.7 C 14.07 g/m*3 24.7 C 19.84167 km/h
16 01-07-2020 15:00:00 24.725 C 14.15 g/m*3 24.73 C 18.36667 km/h
17 01-07-2020 16:00:00 25.20833 C 14.32 g/m*3 25.21 C 16.23333 km/h
18 01-07-2020 17:00:00 25.61667 C 14.16 g/m*3 25.62 C 17.3 km/h
19 01-07-2020 18:00:00 25.05833 C 13.82 g/m*3 25.06 C 14.23333 km/h
20 01-07-2020 19:00:00 24.51667 C 13.93 g/m*3 24.52 C 13.56667 km/h
21 01-07-2020 20:00:00 24.53333 C 14.03 g/m*3 24.53 C 11.95833 km/h
22 01-07-2020 21:00:00 23.34167 C 13.78 g/m*3 23.34 C 9.95 km/h
23 01-07-2020 22:00:00 22.125 C 13.9 g/m*3 22.13 C 3.075 km/h
24 01-07-2020 23:00:00 19.55 C 14.17 g/m*3 19.55 C 10.2 km/h
25 02-07-2020 00:00:00 17.83333 C 14.09 g/m*3 17.83 C 0.26667 km/h
Sensor: Nr:Datum:Temp:Abs-Feuchte:Windchill:Wind:
Aussen-T/F 26 02-07-2020 01:00:00 17.71667 C 14.17 g/m*3 17.72 C 0 km/h
27 02-07-2020 02:00:00 17.46667 C 14.02 g/m*3 17.47 C 0.66667 km/h
28 02-07-2020 03:00:00 16.525 C 13.31 g/m*3 16.52 C 3.6 km/h
29 02-07-2020 04:00:00 15.71667 C 12.72 g/m*3 15.72 C 2.8 km/h
30 02-07-2020 05:00:00 15.05 C 12.24 g/m*3 15.05 C 0.13333 km/h
31 02-07-2020 06:00:00 15.575 C 12.77 g/m*3 15.58 C 0 km/h
32 02-07-2020 07:00:00 16.475 C 13.56 g/m*3 16.48 C 0 km/h
33 02-07-2020 08:00:00 16.56667 C 13.59 g/m*3 16.57 C 0 km/h
34 02-07-2020 09:00:00 17.98333 C 14.88 g/m*3 17.98 C 1.2 km/h
35 02-07-2020 10:00:00 18.85833 C 15.16 g/m*3 18.86 C 5.625 km/h
36 02-07-2020 11:00:00 21.075 C 14.03 g/m*3 21.08 C 12.89167 km/h
37 02-07-2020 12:00:00 21.9 C 12.41 g/m*3 21.9 C 14.63333 km/h
38 02-07-2020 13:00:00 22.575 C 12.39 g/m*3 22.58 C 14.9 km/h
39 02-07-2020 14:00:00 20.58333 C 13.26 g/m*3 20.58 C 4.29167 km/h
40 02-07-2020 15:00:00 21.075 C 12.85 g/m*3 21.08 C 8.6 km/h
41 02-07-2020 16:00:00 21.825 C 12.99 g/m*3 21.83 C 2.93333 km/h
42 02-07-2020 17:00:00 22.85833 C 12.22 g/m*3 22.86 C 13.81667 km/h
43 02-07-2020 18:00:00 21.40833 C 11.94 g/m*3 21.41 C 14.63333 km/h
44 02-07-2020 19:00:00 19.16667 C 11.97 g/m*3 19.17 C 8.2 km/h
45 02-07-2020 20:00:00 19.13333 C 11.72 g/m*3 19.13 C 6.30833 km/h
46 02-07-2020 21:00:00 18.85833 C 11.72 g/m*3 18.86 C 4.15 km/h
47 02-07-2020 22:00:00 17.43333 C 11.74 g/m*3 17.43 C 4.40833 km/h
48 02-07-2020 23:00:00 15.89167 C 11.29 g/m*3 15.89 C 3.46667 km/h
49 03-07-2020 00:00:00 14.88333 C 11.08 g/m*3 14.88 C 2.13333 km/h
50 03-07-2020 01:00:00 14.03333 C 10.79 g/m*3 14.03 C 1.73333 km/h
Sensor: Nr:Datum:Temp:Abs-Feuchte:Windchill:Wind:
Aussen-T/F 51 03-07-2020 02:00:00 13.31667 C 10.47 g/m*3 13.32 C 0.4 km/h
52 03-07-2020 03:00:00 12.45 C 10.11 g/m*3 12.45 C 0.26667 km/h
53 03-07-2020 04:00:00 11.875 C 9.86 g/m*3 11.88 C 1.33333 km/h
54 03-07-2020 05:00:00 11.39167 C 9.64 g/m*3 11.39 C 0.66667 km/h
55 03-07-2020 06:00:00 11.33333 C 9.68 g/m*3 11.33 C 0.26667 km/h
56 03-07-2020 07:00:00 11.79167 C 10.02 g/m*3 11.79 C 1.2 km/h
57 03-07-2020 08:00:00 13.74167 C 10.52 g/m*3 13.74 C 5.36667 km/h
58 03-07-2020 09:00:00 15.85 C 10.68 g/m*3 15.85 C 5.35 km/h
59 03-07-2020 10:00:00 18.13333 C 11.29 g/m*3 18.13 C 6.84167 km/h
60 03-07-2020 11:00:00 19.875 C 11.37 g/m*3 19.88 C 8.73333 km/h
61 03-07-2020 12:00:00 20.14167 C 11.17 g/m*3 20.14 C 7.78333 km/h
62 03-07-2020 13:00:00 21.05833 C 11.06 g/m*3 21.06 C 7.65833 km/h
63 03-07-2020 14:00:00 22.25 C 10.91 g/m*3 22.25 C 10.475 km/h
64 03-07-2020 15:00:00 23.49167 C 10.9 g/m*3 23.49 C 13.29167 km/h
65 03-07-2020 16:00:00 24.025 C 10.46 g/m*3 24.03 C 12.89167 km/h
66 03-07-2020 17:00:00 24.09167 C 10.46 g/m*3 24.09 C 13.16667 km/h
67 03-07-2020 18:00:00 23.98333 C 10.38 g/m*3 23.98 C 10.20833 km/h
68 03-07-2020 19:00:00 23.86667 C 10.04 g/m*3 23.87 C 11.425 km/h
69 03-07-2020 20:00:00 22.20833 C 10 g/m*3 22.21 C 10.86667 km/h
70 03-07-2020 21:00:00 19.60833 C 10.81 g/m*3 19.61 C 4.26667 km/h
71 03-07-2020 22:00:00 16.91667 C 10.57 g/m*3 16.92 C 3.86667 km/h
72 03-07-2020 23:00:00 15.43333 C 10.41 g/m*3 15.43 C 1.46667 km/h
73 04-07-2020 00:00:00 14.35833 C 10.25 g/m*3 14.36 C 0 km/h
74 04-07-2020 01:00:00 13.55833 C 10.08 g/m*3 13.56 C 1.86667 km/h
75 04-07-2020 02:00:00 13.24167 C 9.97 g/m*3 13.24 C 2.41667 km/h
Sensor: Nr:Datum:Temp:Abs-Feuchte:Windchill:Wind:
Aussen-T/F 76 04-07-2020 03:00:00 12.84167 C 9.84 g/m*3 12.84 C 1.46667 km/h
77 04-07-2020 04:00:00 12.53333 C 9.77 g/m*3 12.53 C 2.94167 km/h
78 04-07-2020 05:00:00 12.65833 C 9.72 g/m*3 12.66 C 1.60833 km/h
79 04-07-2020 06:00:00 12.80833 C 10 g/m*3 12.81 C 2 km/h
80 04-07-2020 07:00:00 14.11667 C 10.4 g/m*3 14.12 C 0.26667 km/h
81 04-07-2020 08:00:00 15.375 C 10.8 g/m*3 15.38 C 0 km/h
82 04-07-2020 09:00:00 17.14167 C 10.93 g/m*3 17.14 C 8.05833 km/h
83 04-07-2020 10:00:00 20.19167 C 10.94 g/m*3 20.19 C 13.16667 km/h
84 04-07-2020 11:00:00 21.70833 C 10.81 g/m*3 21.71 C 18.36667 km/h
85 04-07-2020 12:00:00 22.21667 C 10.96 g/m*3 22.22 C 17.43333 km/h
86 04-07-2020 13:00:00 22.39167 C 11.02 g/m*3 22.39 C 17.85 km/h
87 04-07-2020 14:00:00 23.1 C 10.89 g/m*3 23.1 C 17.04167 km/h
88 04-07-2020 15:00:00 23.31667 C 10.52 g/m*3 23.32 C 16.1 km/h
89 04-07-2020 16:00:00 24.075 C 11.18 g/m*3 24.08 C 13.56667 km/h
90 04-07-2020 17:00:00 24.90833 C 11.47 g/m*3 24.91 C 14.23333 km/h
91 04-07-2020 18:00:00 24.61667 C 11.79 g/m*3 24.62 C 15.3 km/h
92 04-07-2020 19:00:00 24.78333 C 12.2 g/m*3 24.78 C 14.89167 km/h
93 04-07-2020 20:00:00 23.03333 C 11.77 g/m*3 23.03 C 13.95833 km/h
94 04-07-2020 21:00:00 22.25833 C 12.1 g/m*3 22.26 C 10.09167 km/h
95 04-07-2020 22:00:00 21.71667 C 12.33 g/m*3 21.72 C 6.04167 km/h
96 04-07-2020 23:00:00 21.40833 C 12.77 g/m*3 21.41 C 8.19167 km/h
97 05-07-2020 00:00:00 21.31667 C 13.5 g/m*3 21.32 C 9.125 km/h
98 05-07-2020 01:00:00 21.11667 C 13.76 g/m*3 21.12 C 9.675 km/h
99 05-07-2020 02:00:00 20.99167 C 13.87 g/m*3 20.99 C 8.31667 km/h
100 05-07-2020 03:00:00 20.975 C 13.72 g/m*3 20.98 C 10.34167 km/h
Sensor: Nr:Datum:Temp:Abs-Feuchte:Windchill:Wind:
Aussen-T/F 101 05-07-2020 04:00:00 21.05833 C 13.86 g/m*3 21.06 C 10.19167 km/h
102 05-07-2020 05:00:00 21.1 C 13.97 g/m*3 21.1 C 13.16667 km/h
103 05-07-2020 06:00:00 20.93333 C 13.94 g/m*3 20.93 C 12.36667 km/h
104 05-07-2020 07:00:00 21.05 C 14.22 g/m*3 21.05 C 17.84167 km/h
105 05-07-2020 08:00:00 21.39167 C 14.57 g/m*3 21.39 C 16.23333 km/h
106 05-07-2020 09:00:00 22 C 14.83 g/m*3 22 C 15.575 km/h
107 05-07-2020 10:00:00 22.35833 C 14.73 g/m*3 22.36 C 19.70833 km/h
108 05-07-2020 11:00:00 23.04167 C 14.73 g/m*3 23.04 C 19.70833 km/h
109 05-07-2020 12:00:00 23.46667 C 14.92 g/m*3 23.47 C 19.3 km/h
110 05-07-2020 13:00:00 23.93333 C 15.03 g/m*3 23.93 C 18.9 km/h
111 05-07-2020 14:00:00 25.60833 C 14.63 g/m*3 25.61 C 18.1 km/h
112 05-07-2020 15:00:00 25.425 C 14.36 g/m*3 25.43 C 15.16667 km/h
113 05-07-2020 16:00:00 25.925 C 14.79 g/m*3 25.93 C 14.76667 km/h
114 05-07-2020 17:00:00 25.50833 C 14.67 g/m*3 25.51 C 15.96667 km/h
115 05-07-2020 18:00:00 25.63333 C 14.89 g/m*3 25.63 C 20.375 km/h
116 05-07-2020 19:00:00 25.525 C 14.82 g/m*3 25.53 C 17.70833 km/h
117 05-07-2020 20:00:00 24.20833 C 14.66 g/m*3 24.21 C 15.29167 km/h
118 05-07-2020 21:00:00 22.58333 C 14.55 g/m*3 22.58 C 11.95833 km/h
119 05-07-2020 22:00:00 21.45833 C 14.31 g/m*3 21.46 C 11.56667 km/h
120 05-07-2020 23:00:00 20.65 C 14.09 g/m*3 20.65 C 5.08333 km/h
121 06-07-2020 00:00:00 19.525 C 13.95 g/m*3 19.52 C 3.20833 km/h
122 06-07-2020 01:00:00 19.36667 C 13.36 g/m*3 19.37 C 9.39167 km/h
123 06-07-2020 02:00:00 18.96667 C 11.59 g/m*3 18.97 C 10.36667 km/h
124 06-07-2020 03:00:00 17.1 C 8.93 g/m*3 17.1 C 16.225 km/h
125 06-07-2020 04:00:00 14.90833 C 8.67 g/m*3 14.91 C 7.24167 km/h
Sensor: Nr:Datum:Temp:Abs-Feuchte:Windchill:Wind:
Aussen-T/F 126 06-07-2020 05:00:00 13.55833 C 8.64 g/m*3 13.56 C 3.89167 km/h
127 06-07-2020 06:00:00 12.95833 C 8.75 g/m*3 12.96 C 4.675 km/h
128 06-07-2020 07:00:00 14.05 C 9.07 g/m*3 14.05 C 8.6 km/h
129 06-07-2020 08:00:00 15.13333 C 8.76 g/m*3 15.13 C 13.83333 km/h
130 06-07-2020 09:00:00 15.84167 C 8.4 g/m*3 15.84 C 14.63333 km/h
131 06-07-2020 10:00:00 17.025 C 8.38 g/m*3 17.02 C 14.1 km/h
132 06-07-2020 11:00:00 18.15833 C 8.15 g/m*3 18.16 C 18.1 km/h
133 06-07-2020 12:00:00 18.80833 C 7.96 g/m*3 18.81 C 17.30833 km/h
134 06-07-2020 13:00:00 19.275 C 7.94 g/m*3 19.27 C 15.3 km/h
135 06-07-2020 14:00:00 19.925 C 7.71 g/m*3 19.93 C 16.9 km/h
136 06-07-2020 15:00:00 17.58333 C 9.45 g/m*3 17.58 C 12.89167 km/h
137 06-07-2020 16:00:00 15.88333 C 10.53 g/m*3 15.88 C 3.75 km/h
138 06-07-2020 17:00:00 17.59167 C 9.24 g/m*3 17.59 C 11.00833 km/h
139 06-07-2020 18:00:00 19.46667 C 9.6 g/m*3 19.47 C 13.85 km/h
140 06-07-2020 19:00:00 17 C 9.22 g/m*3 17 C 5.24167 km/h
141 06-07-2020 20:00:00 17.26667 C 9.46 g/m*3 17.27 C 2.40833 km/h
142 06-07-2020 21:00:00 16.63333 C 9.44 g/m*3 16.63 C 1.2 km/h
143 06-07-2020 22:00:00 14.08333 C 9.08 g/m*3 14.08 C 1.86667 km/h
144 06-07-2020 23:00:00 13.00833 C 8.94 g/m*3 13.01 C 3.2 km/h
145 07-07-2020 00:00:00 11.95833 C 8.87 g/m*3 11.96 C 1.46667 km/h
146 07-07-2020 01:00:00 11.05833 C 8.73 g/m*3 11.06 C 0.93333 km/h
147 07-07-2020 02:00:00 10.425 C 8.62 g/m*3 10.43 C 1.46667 km/h
148 07-07-2020 03:00:00 10.025 C 8.58 g/m*3 10.03 C 1.33333 km/h
149 07-07-2020 04:00:00 9.575 C 8.41 g/m*3 9.57 C 1.33333 km/h
150 07-07-2020 05:00:00 8.89167 C 8.1 g/m*3 8.89 C 1.6 km/h
Sensor: Nr:Datum:Temp:Abs-Feuchte:Windchill:Wind:
Aussen-T/F 151 07-07-2020 06:00:00 8.61667 C 8.03 g/m*3 8.62 C 1.06667 km/h
152 07-07-2020 07:00:00 9.35833 C 8.45 g/m*3 9.36 C 4.26667 km/h
153 07-07-2020 08:00:00 10.475 C 9.01 g/m*3 10.48 C 1.46667 km/h
154 07-07-2020 09:00:00 12.4 C 9.92 g/m*3 12.4 C 0.8 km/h
155 07-07-2020 10:00:00 15.875 C 9.66 g/m*3 15.88 C 3.73333 km/h
156 07-07-2020 11:00:00 18.275 C 8.57 g/m*3 18.27 C 5.90833 km/h
157 07-07-2020 12:00:00 19.65833 C 8.13 g/m*3 19.66 C 7.79167 km/h
158 07-07-2020 13:00:00 19.91667 C 7.98 g/m*3 19.92 C 6.04167 km/h
159 07-07-2020 14:00:00 20.50833 C 8.43 g/m*3 20.51 C 7.65 km/h
160 07-07-2020 15:00:00 21.875 C 8.77 g/m*3 21.88 C 11.025 km/h
161 07-07-2020 16:00:00 23.36667 C 8.8 g/m*3 23.37 C 11.16667 km/h
162 07-07-2020 17:00:00 22.76667 C 8.64 g/m*3 22.77 C 10.20833 km/h
163 07-07-2020 18:00:00 23.8 C 8.71 g/m*3 23.8 C 9.00833 km/h
164 07-07-2020 19:00:00 22.08333 C 8.53 g/m*3 22.08 C 8.06667 km/h
165 07-07-2020 20:00:00 21.1 C 8.94 g/m*3 21.1 C 4.00833 km/h
166 07-07-2020 21:00:00 19.76667 C 9.65 g/m*3 19.77 C 1.06667 km/h
167 07-07-2020 22:00:00 17.6 C 9.65 g/m*3 17.6 C 3.06667 km/h
168 07-07-2020 23:00:00 16.975 C 9.78 g/m*3 16.98 C 4 km/h
169 08-07-2020 00:00:00 16.31667 C 9.99 g/m*3 16.32 C 0.66667 km/h
170 08-07-2020 01:00:00 15.8 C 10.03 g/m*3 15.8 C 0.13333 km/h
171 08-07-2020 02:00:00 15.9 C 9.91 g/m*3 15.9 C 0.4 km/h
172 08-07-2020 03:00:00 16.31667 C 9.69 g/m*3 16.32 C 2.14167 km/h
173 08-07-2020 04:00:00 16.40833 C 9.72 g/m*3 16.41 C 1.06667 km/h
174 08-07-2020 05:00:00 15.83333 C 10.18 g/m*3 15.83 C 0 km/h
175 08-07-2020 06:00:00 15.38333 C 10.52 g/m*3 15.38 C 0.13333 km/h
Sensor: Nr:Datum:Temp:Abs-Feuchte:Windchill:Wind:
Aussen-T/F 176 08-07-2020 07:00:00 15.05 C 11.1 g/m*3 15.05 C 0.26667 km/h
177 08-07-2020 08:00:00 14.55833 C 10.13 g/m*3 14.56 C 6.16667 km/h
178 08-07-2020 09:00:00 13.96667 C 10.07 g/m*3 13.97 C 4.40833 km/h
179 08-07-2020 10:00:00 13.81667 C 10.61 g/m*3 13.82 C 2.4 km/h
180 08-07-2020 11:00:00 14.05 C 11.16 g/m*3 14.05 C 3.74167 km/h
181 08-07-2020 12:00:00 14.7 C 11.57 g/m*3 14.7 C 2.66667 km/h
182 08-07-2020 13:00:00 15.11667 C 11.88 g/m*3 15.12 C 6.025 km/h
183 08-07-2020 14:00:00 15.55 C 12.35 g/m*3 15.55 C 4.13333 km/h
184 08-07-2020 15:00:00 16.13333 C 12.86 g/m*3 16.13 C 5.475 km/h
185 08-07-2020 16:00:00 16.55 C 13.23 g/m*3 16.55 C 0.8 km/h
186 08-07-2020 17:00:00 17.30833 C 13.73 g/m*3 17.31 C 5.36667 km/h
187 08-07-2020 18:00:00 17.90833 C 13.84 g/m*3 17.91 C 2.53333 km/h
188 08-07-2020 19:00:00 17.36667 C 13.71 g/m*3 17.37 C 0.66667 km/h
189 08-07-2020 20:00:00 17.24167 C 13.65 g/m*3 17.24 C 0 km/h
190 08-07-2020 21:00:00 16.86667 C 13.48 g/m*3 16.87 C 0 km/h
191 08-07-2020 22:00:00 16.525 C 13.28 g/m*3 16.52 C 0.93333 km/h
192 08-07-2020 23:00:00 16.36667 C 13.23 g/m*3 16.37 C 2.66667 km/h
193 09-07-2020 00:00:00 16.5 C 13.43 g/m*3 16.5 C 1.06667 km/h
194 09-07-2020 01:00:00 16.68333 C 13.63 g/m*3 16.68 C 2.93333 km/h
195 09-07-2020 02:00:00 16.75833 C 13.69 g/m*3 16.76 C 1.73333 km/h
196 09-07-2020 03:00:00 16.69167 C 13.64 g/m*3 16.69 C 2.4 km/h
197 09-07-2020 04:00:00 16.76667 C 13.7 g/m*3 16.77 C 2.54167 km/h
198 09-07-2020 05:00:00 16.84167 C 13.76 g/m*3 16.84 C 2.8 km/h
199 09-07-2020 06:00:00 17.06667 C 13.85 g/m*3 17.07 C 4.00833 km/h
200 09-07-2020 07:00:00 17.63333 C 13.96 g/m*3 17.63 C 6.03333 km/h
Sensor: Nr:Datum:Temp:Abs-Feuchte:Windchill:Wind:
Aussen-T/F 201 09-07-2020 08:00:00 18.68333 C 14.14 g/m*3 18.68 C 6.7 km/h
202 09-07-2020 09:00:00 19.7 C 14.38 g/m*3 19.7 C 9.69167 km/h
203 09-07-2020 10:00:00 20.40833 C 14.53 g/m*3 20.41 C 9.41667 km/h
204 09-07-2020 11:00:00 21.64167 C 14.8 g/m*3 21.64 C 11.425 km/h
205 09-07-2020 12:00:00 23 C 14.8 g/m*3 23 C 11.3 km/h
206 09-07-2020 13:00:00 24.51667 C 14.09 g/m*3 24.52 C 13.825 km/h
207 09-07-2020 14:00:00 26.11667 C 13.48 g/m*3 26.12 C 15.7 km/h
208 09-07-2020 15:00:00 27.08333 C 12.99 g/m*3 27.08 C 14.1 km/h
209 09-07-2020 16:00:00 28.05 C 12.52 g/m*3 28.05 C 17.56667 km/h
210 09-07-2020 17:00:00 27.83333 C 12.26 g/m*3 27.83 C 15.96667 km/h
211 09-07-2020 18:00:00 27.76667 C 12.08 g/m*3 27.77 C 12.36667 km/h
212 09-07-2020 19:00:00 27.28333 C 12.2 g/m*3 27.28 C 7.25833 km/h
213 09-07-2020 20:00:00 26.325 C 12.81 g/m*3 26.33 C 5.225 km/h
214 09-07-2020 21:00:00 23.525 C 14.14 g/m*3 23.53 C 0 km/h
215 09-07-2020 22:00:00 21.425 C 14.08 g/m*3 21.43 C 0.53333 km/h
216 09-07-2020 23:00:00 20.44167 C 13.91 g/m*3 20.44 C 0 km/h
217 10-07-2020 00:00:00 18.96667 C 13.32 g/m*3 18.97 C 0 km/h
218 10-07-2020 01:00:00 17.81667 C 12.99 g/m*3 17.82 C 0 km/h
219 10-07-2020 02:00:00 16.96667 C 12.68 g/m*3 16.97 C 0 km/h
220 10-07-2020 03:00:00 16.61667 C 12.59 g/m*3 16.62 C 0 km/h
221 10-07-2020 04:00:00 16.2 C 12.42 g/m*3 16.2 C 0 km/h
222 10-07-2020 05:00:00 16.15 C 12.47 g/m*3 16.15 C 1.20833 km/h
223 10-07-2020 06:00:00 16.33333 C 12.55 g/m*3 16.33 C 1.075 km/h
224 10-07-2020 07:00:00 17.38333 C 12.92 g/m*3 17.38 C 2.4 km/h
225 10-07-2020 08:00:00 19.19167 C 13.46 g/m*3 19.19 C 5.5 km/h
Sensor: Nr:Datum:Temp:Abs-Feuchte:Windchill:Wind:
Aussen-T/F 226 10-07-2020 09:00:00 20.26667 C 13.33 g/m*3 20.27 C 12.23333 km/h
227 10-07-2020 10:00:00 20.69167 C 12.97 g/m*3 20.69 C 14.9 km/h
228 10-07-2020 11:00:00 21.425 C 12.74 g/m*3 21.43 C 17.16667 km/h
229 10-07-2020 12:00:00 21.98333 C 12.57 g/m*3 21.98 C 16.1 km/h
230 10-07-2020 13:00:00 21.25833 C 12.15 g/m*3 21.26 C 16.5 km/h
231 10-07-2020 14:00:00 20.95833 C 12.09 g/m*3 20.96 C 15.15833 km/h
232 10-07-2020 15:00:00 19.3 C 13.19 g/m*3 19.3 C 10.075 km/h
233 10-07-2020 16:00:00 18.33333 C 13.97 g/m*3 18.33 C 5.775 km/h
234 10-07-2020 17:00:00 18.25833 C 14.31 g/m*3 18.26 C 5.89167 km/h
235 10-07-2020 18:00:00 19.3 C 12.12 g/m*3 19.3 C 14.49167 km/h
236 10-07-2020 19:00:00 19.65833 C 11.65 g/m*3 19.66 C 13.83333 km/h
237 10-07-2020 20:00:00 18.58333 C 11.3 g/m*3 18.58 C 11.825 km/h
238 10-07-2020 21:00:00 17.75 C 10.76 g/m*3 17.75 C 4.80833 km/h
239 10-07-2020 22:00:00 17.18333 C 10.59 g/m*3 17.18 C 4.54167 km/h
240 10-07-2020 23:00:00 16.63333 C 10.44 g/m*3 16.63 C 1.86667 km/h
241 11-07-2020 00:00:00 15.58333 C 10.45 g/m*3 15.58 C 0.93333 km/h
242 11-07-2020 01:00:00 14.3 C 10.06 g/m*3 14.3 C 2.53333 km/h
243 11-07-2020 02:00:00 12.725 C 9.68 g/m*3 12.73 C 2.53333 km/h
244 11-07-2020 03:00:00 11.88333 C 9.55 g/m*3 11.88 C 3.06667 km/h
245 11-07-2020 04:00:00 11.20833 C 9.25 g/m*3 11.21 C 0 km/h
246 11-07-2020 05:00:00 10.45 C 8.94 g/m*3 10.45 C 0.26667 km/h
247 11-07-2020 06:00:00 10.41667 C 9.06 g/m*3 10.42 C 0 km/h
248 11-07-2020 07:00:00 11.10833 C 9.59 g/m*3 11.11 C 0 km/h
249 11-07-2020 08:00:00 13.51667 C 10.52 g/m*3 13.52 C 3.2 km/h
250 11-07-2020 09:00:00 15.38333 C 10.1 g/m*3 15.38 C 5.1 km/h
Sensor: Nr:Datum:Temp:Abs-Feuchte:Windchill:Wind:
Aussen-T/F 251 11-07-2020 10:00:00 16.6 C 9.42 g/m*3 16.6 C 6.71667 km/h
252 11-07-2020 11:00:00 17.75 C 8.98 g/m*3 17.75 C 6.84167 km/h
253 11-07-2020 12:00:00 18.4 C 8.81 g/m*3 18.4 C 9.40833 km/h
254 11-07-2020 13:00:00 19.10833 C 8.64 g/m*3 19.11 C 8.60833 km/h
255 11-07-2020 14:00:00 19.775 C 8.51 g/m*3 19.77 C 11.15833 km/h
256 11-07-2020 15:00:00 21.2 C 7.95 g/m*3 21.2 C 11.275 km/h
257 11-07-2020 16:00:00 22.05 C 7.85 g/m*3 22.05 C 10.9 km/h
258 11-07-2020 17:00:00 22.38333 C 7.95 g/m*3 22.38 C 8.05833 km/h
259 11-07-2020 18:00:00 21.99167 C 7.86 g/m*3 21.99 C 8.45 km/h
260 11-07-2020 19:00:00 21.88333 C 8.03 g/m*3 21.88 C 8.05833 km/h
261 11-07-2020 20:00:00 21.125 C 8.16 g/m*3 21.13 C 8.31667 km/h
262 11-07-2020 21:00:00 17.93333 C 9.43 g/m*3 17.93 C 7.8 km/h
263 11-07-2020 22:00:00 16.25 C 9.56 g/m*3 16.25 C 1.74167 km/h
264 11-07-2020 23:00:00 14.75833 C 9.4 g/m*3 14.76 C 3.86667 km/h
265 12-07-2020 00:00:00 13.35 C 9.25 g/m*3 13.35 C 4.93333 km/h
266 12-07-2020 01:00:00 12.61667 C 9.27 g/m*3 12.62 C 2.53333 km/h
267 12-07-2020 02:00:00 11.95833 C 9.14 g/m*3 11.96 C 0.66667 km/h
268 12-07-2020 03:00:00 10.73333 C 8.71 g/m*3 10.73 C 0 km/h
269 12-07-2020 04:00:00 9.91667 C 8.51 g/m*3 9.92 C 0 km/h
270 12-07-2020 05:00:00 9.39167 C 8.35 g/m*3 9.39 C 0 km/h
271 12-07-2020 06:00:00 9.25 C 8.37 g/m*3 9.25 C 0 km/h
272 12-07-2020 07:00:00 9.70833 C 8.7 g/m*3 9.71 C 0 km/h
273 12-07-2020 08:00:00 10.84167 C 9.41 g/m*3 10.84 C 0 km/h
274 12-07-2020 09:00:00 12.76667 C 10.45 g/m*3 12.77 C 0.53333 km/h
275 12-07-2020 10:00:00 16.29167 C 10.39 g/m*3 16.29 C 3.74167 km/h
Sensor: Nr:Datum:Temp:Abs-Feuchte:Windchill:Wind:
Aussen-T/F 276 12-07-2020 11:00:00 19.2 C 9.7 g/m*3 19.2 C 8.33333 km/h
277 12-07-2020 12:00:00 20.18333 C 9 g/m*3 20.18 C 7.78333 km/h
278 12-07-2020 13:00:00 21.31667 C 8.4 g/m*3 21.32 C 9.275 km/h
279 12-07-2020 14:00:00 21.93333 C 8.28 g/m*3 21.93 C 10.08333 km/h
280 12-07-2020 15:00:00 23.325 C 8.08 g/m*3 23.33 C 9.54167 km/h
281 12-07-2020 16:00:00 24.5 C 8.28 g/m*3 24.5 C 12.35833 km/h
282 12-07-2020 17:00:00 24.33333 C 8.13 g/m*3 24.33 C 12.1 km/h
283 12-07-2020 18:00:00 24.475 C 8.12 g/m*3 24.48 C 10.34167 km/h
284 12-07-2020 19:00:00 22.85 C 8.42 g/m*3 22.85 C 6.84167 km/h
285 12-07-2020 20:00:00 22.41667 C 8.42 g/m*3 22.42 C 11.16667 km/h
286 12-07-2020 21:00:00 20.50833 C 8.99 g/m*3 20.51 C 4.025 km/h
287 12-07-2020 22:00:00 17.125 C 8.97 g/m*3 17.13 C 3.6 km/h
288 12-07-2020 23:00:00 15.5 C 9.18 g/m*3 15.5 C 2.13333 km/h
289 13-07-2020 00:00:00 14.03333 C 9.01 g/m*3 14.03 C 0.13333 km/h
290 13-07-2020 01:00:00 12.68333 C 8.77 g/m*3 12.68 C 0.26667 km/h
291 13-07-2020 02:00:00 11.8 C 8.61 g/m*3 11.8 C 0 km/h
292 13-07-2020 03:00:00 11.04167 C 8.51 g/m*3 11.04 C 0 km/h
293 13-07-2020 04:00:00 10.31667 C 8.32 g/m*3 10.32 C 0 km/h
294 13-07-2020 05:00:00 9.83333 C 8.27 g/m*3 9.83 C 0 km/h
295 13-07-2020 06:00:00 10.01667 C 8.54 g/m*3 10.02 C 0.13333 km/h
296 13-07-2020 07:00:00 10.58333 C 8.87 g/m*3 10.58 C 0 km/h
297 13-07-2020 08:00:00 11.76667 C 9.58 g/m*3 11.77 C 0.26667 km/h
298 13-07-2020 09:00:00 14.44167 C 10.32 g/m*3 14.44 C 1.86667 km/h
299 13-07-2020 10:00:00 18.2 C 10.63 g/m*3 18.2 C 3.06667 km/h
300 13-07-2020 11:00:00 21.71667 C 10.01 g/m*3 21.72 C 5.34167 km/h
Sensor: Nr:Datum:Temp:Abs-Feuchte:Windchill:Wind:
Aussen-T/F 301 13-07-2020 12:00:00 23.29167 C 8.83 g/m*3 23.29 C 9.675 km/h
302 13-07-2020 13:00:00 24.03333 C 8.66 g/m*3 24.03 C 9.55833 km/h
303 13-07-2020 14:00:00 24.675 C 8.42 g/m*3 24.68 C 10.5 km/h
304 13-07-2020 15:00:00 26.14167 C 8.32 g/m*3 26.14 C 9.00833 km/h
305 13-07-2020 16:00:00 28.475 C 8.49 g/m*3 28.48 C 6.7 km/h
306 13-07-2020 17:00:00 28.575 C 8.23 g/m*3 28.58 C 9.15 km/h
307 13-07-2020 18:00:00 28.725 C 7.95 g/m*3 28.73 C 6.03333 km/h
308 13-07-2020 19:00:00 28 C 7.61 g/m*3 28 C 6.71667 km/h
309 13-07-2020 20:00:00 26.56667 C 7.94 g/m*3 26.57 C 5.61667 km/h
310 13-07-2020 21:00:00 23.84167 C 9.56 g/m*3 23.84 C 1.73333 km/h
311 13-07-2020 22:00:00 20.60833 C 9.65 g/m*3 20.61 C 3.73333 km/h
312 13-07-2020 23:00:00 18.68333 C 9.53 g/m*3 18.68 C 4.26667 km/h
313 14-07-2020 00:00:00 17.575 C 9.47 g/m*3 17.58 C 2.66667 km/h
314 14-07-2020 01:00:00 16.525 C 9.53 g/m*3 16.52 C 1.86667 km/h
315 14-07-2020 02:00:00 15.075 C 9.56 g/m*3 15.08 C 0 km/h
316 14-07-2020 03:00:00 13.75 C 9.39 g/m*3 13.75 C 0 km/h
317 14-07-2020 04:00:00 12.94167 C 9.29 g/m*3 12.94 C 0 km/h
318 14-07-2020 05:00:00 12.4 C 9.22 g/m*3 12.4 C 0 km/h
319 14-07-2020 06:00:00 12.38333 C 9.34 g/m*3 12.38 C 0 km/h
320 14-07-2020 07:00:00 13.76667 C 9.95 g/m*3 13.77 C 0 km/h
321 14-07-2020 08:00:00 14.95 C 10.33 g/m*3 14.95 C 0 km/h
322 14-07-2020 09:00:00 15.875 C 10.83 g/m*3 15.88 C 0 km/h
323 14-07-2020 10:00:00 19.15 C 10.95 g/m*3 19.15 C 0 km/h
324 14-07-2020 11:00:00 22.39167 C 10.47 g/m*3 22.39 C 2.00833 km/h
325 14-07-2020 12:00:00 23.85 C 9.94 g/m*3 23.85 C 7.11667 km/h
Sensor: Nr:Datum:Temp:Abs-Feuchte:Windchill:Wind:
Aussen-T/F 326 14-07-2020 13:00:00 25.65833 C 9.3 g/m*3 25.66 C 9.40833 km/h
327 14-07-2020 14:00:00 25.725 C 9.45 g/m*3 25.73 C 10.075 km/h
328 14-07-2020 15:00:00 25.35 C 9.53 g/m*3 25.35 C 7.53333 km/h
329 14-07-2020 16:00:00 25.64167 C 10.04 g/m*3 25.64 C 9.39167 km/h
330 14-07-2020 17:00:00 24.83333 C 10.64 g/m*3 24.83 C 15.56667 km/h
331 14-07-2020 18:00:00 21.80833 C 10.59 g/m*3 21.81 C 14.36667 km/h
332 14-07-2020 19:00:00 19.96667 C 11.1 g/m*3 19.97 C 8.325 km/h
333 14-07-2020 20:00:00 18.59167 C 12.02 g/m*3 18.59 C 6.83333 km/h
334 14-07-2020 21:00:00 17.44167 C 12.59 g/m*3 17.44 C 1.06667 km/h
335 14-07-2020 22:00:00 16.4 C 12.31 g/m*3 16.4 C 1.86667 km/h
336 14-07-2020 23:00:00 15.84167 C 12.02 g/m*3 15.84 C 1.06667 km/h
337 15-07-2020 00:00:00 15.70833 C 11.91 g/m*3 15.71 C 0 km/h
338 15-07-2020 01:00:00 15.98333 C 11.64 g/m*3 15.98 C 2.53333 km/h
339 15-07-2020 02:00:00 16.15 C 11.64 g/m*3 16.15 C 4.53333 km/h
340 15-07-2020 03:00:00 15.85833 C 11.79 g/m*3 15.86 C 4.55833 km/h
341 15-07-2020 04:00:00 15.475 C 12.02 g/m*3 15.48 C 0.53333 km/h
342 15-07-2020 05:00:00 15.11667 C 12.1 g/m*3 15.12 C 1.33333 km/h
343 15-07-2020 06:00:00 14.83333 C 11.93 g/m*3 14.83 C 2.94167 km/h
344 15-07-2020 07:00:00 14.6 C 11.88 g/m*3 14.6 C 1.06667 km/h
345 15-07-2020 08:00:00 14.80833 C 11.85 g/m*3 14.81 C 5.5 km/h
346 15-07-2020 09:00:00 15.49167 C 11.34 g/m*3 15.49 C 9.68333 km/h
347 15-07-2020 10:00:00 16.30833 C 10.53 g/m*3 16.31 C 11.425 km/h
348 15-07-2020 11:00:00 17.8 C 9.94 g/m*3 17.8 C 12.23333 km/h
349 15-07-2020 12:00:00 18.4 C 9.49 g/m*3 18.4 C 13.69167 km/h
350 15-07-2020 13:00:00 19.2 C 9.59 g/m*3 19.2 C 12.9 km/h
Sensor: Nr:Datum:Temp:Abs-Feuchte:Windchill:Wind:
Aussen-T/F 351 15-07-2020 14:00:00 20.05 C 9.55 g/m*3 20.05 C 13.7 km/h
352 15-07-2020 15:00:00 20.94167 C 9.6 g/m*3 20.94 C 14.23333 km/h
353 15-07-2020 16:00:00 21.59167 C 9.78 g/m*3 21.59 C 14.36667 km/h
354 15-07-2020 17:00:00 21.28333 C 9.65 g/m*3 21.28 C 12.5 km/h
355 15-07-2020 18:00:00 20.6 C 9.37 g/m*3 20.6 C 9.96667 km/h
356 15-07-2020 19:00:00 20.225 C 9.24 g/m*3 20.23 C 9.025 km/h
357 15-07-2020 20:00:00 19.74167 C 9.77 g/m*3 19.74 C 3.875 km/h
358 15-07-2020 21:00:00 17.95833 C 10.44 g/m*3 17.96 C 2.13333 km/h
359 15-07-2020 22:00:00 16.80833 C 10.13 g/m*3 16.81 C 6.425 km/h
360 15-07-2020 23:00:00 16.31667 C 10.32 g/m*3 16.32 C 2.93333 km/h
361 16-07-2020 00:00:00 15.775 C 10.36 g/m*3 15.78 C 0.4 km/h
362 16-07-2020 01:00:00 14.93333 C 10.28 g/m*3 14.93 C 1.73333 km/h
363 16-07-2020 02:00:00 15.31667 C 10.74 g/m*3 15.32 C 0.53333 km/h
364 16-07-2020 03:00:00 15.20833 C 10.98 g/m*3 15.21 C 0 km/h
365 16-07-2020 04:00:00 15.25833 C 11.32 g/m*3 15.26 C 1.2 km/h
366 16-07-2020 05:00:00 14.99167 C 11.56 g/m*3 14.99 C 0.13333 km/h
367 16-07-2020 06:00:00 14.525 C 11.47 g/m*3 14.53 C 3.475 km/h
368 16-07-2020 07:00:00 14.39167 C 11.5 g/m*3 14.39 C 1.2 km/h
369 16-07-2020 08:00:00 15 C 11.86 g/m*3 15 C 4.675 km/h
370 16-07-2020 09:00:00 15.36667 C 12.08 g/m*3 15.37 C 5.21667 km/h
371 16-07-2020 10:00:00 15.88333 C 12.2 g/m*3 15.88 C 3.33333 km/h
372 16-07-2020 11:00:00 16.46667 C 12.38 g/m*3 16.47 C 3.6 km/h
373 16-07-2020 12:00:00 16.51667 C 12.87 g/m*3 16.52 C 4.15 km/h
374 16-07-2020 13:00:00 17.11667 C 13.02 g/m*3 17.12 C 6.425 km/h
375 16-07-2020 14:00:00 17.18333 C 12.95 g/m*3 17.18 C 7.39167 km/h
Sensor: Nr:Datum:Temp:Abs-Feuchte:Windchill:Wind:
Aussen-T/F 376 16-07-2020 15:00:00 17.34167 C 13.11 g/m*3 17.34 C 8.075 km/h
377 16-07-2020 16:00:00 17.14167 C 13.47 g/m*3 17.14 C 3.475 km/h
378 16-07-2020 17:00:00 17.96667 C 13.2 g/m*3 17.97 C 4 km/h
379 16-07-2020 18:00:00 18.20833 C 13.49 g/m*3 18.21 C 0.93333 km/h
380 16-07-2020 19:00:00 17.80833 C 13.5 g/m*3 17.81 C 1.73333 km/h
381 16-07-2020 20:00:00 17.025 C 13.33 g/m*3 17.02 C 2.94167 km/h
382 16-07-2020 21:00:00 15.93333 C 12.36 g/m*3 15.93 C 6.44167 km/h
383 16-07-2020 22:00:00 15.475 C 12.31 g/m*3 15.48 C 3.46667 km/h
384 16-07-2020 23:00:00 15.26667 C 12.33 g/m*3 15.27 C 1.2 km/h
385 17-07-2020 00:00:00 15.14167 C 12.29 g/m*3 15.14 C 1.73333 km/h
386 17-07-2020 01:00:00 15.1 C 12.32 g/m*3 15.1 C 0.8 km/h
387 17-07-2020 02:00:00 15.125 C 12.4 g/m*3 15.13 C 0.53333 km/h
388 17-07-2020 03:00:00 15.16667 C 12.44 g/m*3 15.17 C 1.33333 km/h
389 17-07-2020 04:00:00 15.2 C 12.46 g/m*3 15.2 C 0 km/h
390 17-07-2020 05:00:00 15.2 C 12.46 g/m*3 15.2 C 0 km/h
391 17-07-2020 06:00:00 15.225 C 12.48 g/m*3 15.23 C 1.06667 km/h
392 17-07-2020 07:00:00 15.34167 C 12.57 g/m*3 15.34 C 0.26667 km/h
393 17-07-2020 08:00:00 15.575 C 12.83 g/m*3 15.58 C 0.53333 km/h
394 17-07-2020 09:00:00 15.84167 C 12.96 g/m*3 15.84 C 4.00833 km/h
395 17-07-2020 10:00:00 16.775 C 13.41 g/m*3 16.77 C 7.39167 km/h
396 17-07-2020 11:00:00 18.16667 C 13.46 g/m*3 18.17 C 5.76667 km/h
397 17-07-2020 12:00:00 19.275 C 13.31 g/m*3 19.27 C 3.2 km/h
398 17-07-2020 13:00:00 20.54167 C 12.9 g/m*3 20.54 C 5.35 km/h
399 17-07-2020 14:00:00 21.6 C 12.44 g/m*3 21.6 C 8.33333 km/h
400 17-07-2020 15:00:00 22.95833 C 12.05 g/m*3 22.96 C 7.50833 km/h
Sensor: Nr:Datum:Temp:Abs-Feuchte:Windchill:Wind:
Aussen-T/F 401 17-07-2020 16:00:00 23.825 C 12.78 g/m*3 23.83 C 4.83333 km/h
402 17-07-2020 17:00:00 23.89167 C 11.28 g/m*3 23.89 C 9.93333 km/h
403 17-07-2020 18:00:00 24.35833 C 11.32 g/m*3 24.36 C 10.75833 km/h
404 17-07-2020 19:00:00 24.3 C 11.78 g/m*3 24.3 C 10.225 km/h
405 17-07-2020 20:00:00 22.58333 C 11.82 g/m*3 22.58 C 6.56667 km/h
406 17-07-2020 21:00:00 20.50833 C 12.11 g/m*3 20.51 C 3.2 km/h
407 17-07-2020 22:00:00 17.84167 C 12.2 g/m*3 17.84 C 3.73333 km/h
408 17-07-2020 23:00:00 16.525 C 12.06 g/m*3 16.52 C 4 km/h
409 18-07-2020 00:00:00 15.45833 C 11.67 g/m*3 15.46 C 0.8 km/h
410 18-07-2020 01:00:00 14.375 C 11.27 g/m*3 14.38 C 0 km/h
411 18-07-2020 02:00:00 13.75 C 11.08 g/m*3 13.75 C 0 km/h
412 18-07-2020 03:00:00 13.20833 C 10.8 g/m*3 13.21 C 0 km/h
413 18-07-2020 04:00:00 12.84167 C 10.63 g/m*3 12.84 C 0 km/h
414 18-07-2020 05:00:00 13.10833 C 10.86 g/m*3 13.11 C 0 km/h
415 18-07-2020 06:00:00 13.475 C 11.21 g/m*3 13.48 C 0 km/h
416 18-07-2020 07:00:00 13.8 C 11.37 g/m*3 13.8 C 0 km/h
417 18-07-2020 08:00:00 14.09167 C 11.58 g/m*3 14.09 C 0 km/h
418 18-07-2020 09:00:00 15.55 C 12.56 g/m*3 15.55 C 0 km/h
419 18-07-2020 10:00:00 18.28333 C 13.65 g/m*3 18.28 C 0 km/h
420 18-07-2020 11:00:00 21.925 C 13.09 g/m*3 21.93 C 2.96667 km/h
421 18-07-2020 12:00:00 23 C 12.35 g/m*3 23 C 4.26667 km/h
422 18-07-2020 13:00:00 23.84167 C 12.27 g/m*3 23.84 C 5.225 km/h
423 18-07-2020 14:00:00 24.11667 C 12.96 g/m*3 24.12 C 3.60833 km/h
424 18-07-2020 15:00:00 24.15 C 13.48 g/m*3 24.15 C 1.33333 km/h
425 18-07-2020 16:00:00 26.45833 C 11.97 g/m*3 26.46 C 5.35 km/h
Sensor: Nr:Datum:Temp:Abs-Feuchte:Windchill:Wind:
Aussen-T/F 426 18-07-2020 17:00:00 26.11667 C 11.88 g/m*3 26.12 C 4.81667 km/h
427 18-07-2020 18:00:00 26.73333 C 11.86 g/m*3 26.73 C 4.96667 km/h
428 18-07-2020 19:00:00 27.91667 C 11.62 g/m*3 27.92 C 6.04167 km/h
429 18-07-2020 20:00:00 26.54167 C 12.65 g/m*3 26.54 C 3.6 km/h
430 18-07-2020 21:00:00 21.56667 C 12.52 g/m*3 21.57 C 7.25 km/h
431 18-07-2020 22:00:00 19.65833 C 12.31 g/m*3 19.66 C 6.425 km/h
432 18-07-2020 23:00:00 18.5 C 12.22 g/m*3 18.5 C 2 km/h
433 19-07-2020 00:00:00 17 C 11.96 g/m*3 17 C 0 km/h
434 19-07-2020 01:00:00 15.85 C 11.53 g/m*3 15.85 C 0 km/h
435 19-07-2020 02:00:00 14.975 C 11.18 g/m*3 14.98 C 0 km/h
436 19-07-2020 03:00:00 14.45 C 11.1 g/m*3 14.45 C 0 km/h
437 19-07-2020 04:00:00 14.6 C 11.26 g/m*3 14.6 C 0 km/h
438 19-07-2020 05:00:00 14.76667 C 11.45 g/m*3 14.77 C 0 km/h
439 19-07-2020 06:00:00 15.23333 C 11.74 g/m*3 15.23 C 0 km/h
440 19-07-2020 07:00:00 15.89167 C 12.13 g/m*3 15.89 C 0 km/h
441 19-07-2020 08:00:00 16.66667 C 12.61 g/m*3 16.67 C 0 km/h
442 19-07-2020 09:00:00 18.80833 C 13.66 g/m*3 18.81 C 0 km/h
443 19-07-2020 10:00:00 21.39167 C 13.77 g/m*3 21.39 C 0.53333 km/h
444 19-07-2020 11:00:00 25.28333 C 12.06 g/m*3 25.28 C 8.31667 km/h
445 19-07-2020 12:00:00 26.88333 C 11.49 g/m*3 26.88 C 11.69167 km/h
446 19-07-2020 13:00:00 27.80833 C 11.44 g/m*3 27.81 C 10.225 km/h
447 19-07-2020 14:00:00 28.33333 C 10.78 g/m*3 28.33 C 12.9 km/h
448 19-07-2020 15:00:00 29.80833 C 10.23 g/m*3 29.81 C 10.35833 km/h
449 19-07-2020 16:00:00 29.775 C 10.68 g/m*3 29.78 C 9.025 km/h
450 19-07-2020 17:00:00 31.25 C 10.14 g/m*3 31.25 C 11.41667 km/h
Sensor: Nr:Datum:Temp:Abs-Feuchte:Windchill:Wind:
Aussen-T/F 451 19-07-2020 18:00:00 30.59167 C 10.41 g/m*3 30.59 C 5.75833 km/h
452 19-07-2020 19:00:00 29.16667 C 12.66 g/m*3 29.17 C 2.8 km/h
453 19-07-2020 20:00:00 27.55 C 11.89 g/m*3 27.55 C 5.75833 km/h
454 19-07-2020 21:00:00 24.98333 C 11.92 g/m*3 24.98 C 3.875 km/h
455 19-07-2020 22:00:00 22.81667 C 10.93 g/m*3 22.82 C 5.075 km/h
456 19-07-2020 23:00:00 21.425 C 10.26 g/m*3 21.43 C 4.95 km/h
457 20-07-2020 00:00:00 19.93333 C 10.13 g/m*3 19.93 C 3.2 km/h
458 20-07-2020 01:00:00 18.44167 C 10.38 g/m*3 18.44 C 3.2 km/h
459 20-07-2020 02:00:00 18.2 C 11.2 g/m*3 18.2 C 3.875 km/h
460 20-07-2020 03:00:00 17.625 C 11.77 g/m*3 17.63 C 1.86667 km/h
461 20-07-2020 04:00:00 16.45833 C 11.84 g/m*3 16.46 C 0 km/h
462 20-07-2020 05:00:00 15.90833 C 11.97 g/m*3 15.91 C 0.66667 km/h
463 20-07-2020 06:00:00 16.38333 C 12.78 g/m*3 16.38 C 2.8 km/h
464 20-07-2020 07:00:00 17.33333 C 13.37 g/m*3 17.33 C 0.66667 km/h
465 20-07-2020 08:00:00 17.94167 C 13.44 g/m*3 17.94 C 6.58333 km/h
466 20-07-2020 09:00:00 17.74167 C 13.31 g/m*3 17.74 C 5.09167 km/h
467 20-07-2020 10:00:00 17.80833 C 13.08 g/m*3 17.81 C 1.46667 km/h
468 20-07-2020 11:00:00 19.15 C 13.21 g/m*3 19.15 C 6.975 km/h
469 20-07-2020 12:00:00 20.01667 C 12.84 g/m*3 20.02 C 11.43333 km/h
470 20-07-2020 13:00:00 20.975 C 12.77 g/m*3 20.98 C 9.425 km/h
471 20-07-2020 14:00:00 21.65833 C 12.62 g/m*3 21.66 C 12.1 km/h
472 20-07-2020 15:00:00 22.53333 C 12.42 g/m*3 22.53 C 11.83333 km/h
473 20-07-2020 16:00:00 23.25833 C 12.29 g/m*3 23.26 C 11.83333 km/h
474 20-07-2020 17:00:00 23.925 C 11.83 g/m*3 23.93 C 12.5 km/h
475 20-07-2020 18:00:00 23.83333 C 11.35 g/m*3 23.83 C 13.03333 km/h
Sensor: Nr:Datum:Temp:Abs-Feuchte:Windchill:Wind:
Aussen-T/F 476 20-07-2020 19:00:00 22.625 C 10.8 g/m*3 22.63 C 10.89167 km/h
477 20-07-2020 20:00:00 21.40833 C 10.1 g/m*3 21.41 C 8.74167 km/h
478 20-07-2020 21:00:00 19.76667 C 10.11 g/m*3 19.77 C 1.33333 km/h
479 20-07-2020 22:00:00 17.24167 C 10.01 g/m*3 17.24 C 3.2 km/h
480 20-07-2020 23:00:00 16.08333 C 9.96 g/m*3 16.08 C 0.93333 km/h
481 21-07-2020 00:00:00 14.75 C 9.53 g/m*3 14.75 C 3.33333 km/h
482 21-07-2020 01:00:00 13.58333 C 9.3 g/m*3 13.58 C 2.26667 km/h
483 21-07-2020 02:00:00 13.45833 C 9.18 g/m*3 13.46 C 3.33333 km/h
484 21-07-2020 03:00:00 13.15833 C 9.16 g/m*3 13.16 C 3.46667 km/h
485 21-07-2020 04:00:00 12.81667 C 9.09 g/m*3 12.82 C 1.46667 km/h
486 21-07-2020 05:00:00 12.65833 C 8.99 g/m*3 12.66 C 2.8 km/h
487 21-07-2020 06:00:00 11.625 C 8.75 g/m*3 11.63 C 2.4 km/h
488 21-07-2020 07:00:00 11.675 C 8.99 g/m*3 11.68 C 2.66667 km/h
489 21-07-2020 08:00:00 13.38333 C 9.45 g/m*3 13.38 C 3.2 km/h
490 21-07-2020 09:00:00 14.85833 C 9.92 g/m*3 14.86 C 4.13333 km/h
491 21-07-2020 10:00:00 17.225 C 10.3 g/m*3 17.23 C 5.35 km/h
492 21-07-2020 11:00:00 19.325 C 9.8 g/m*3 19.33 C 11.025 km/h
493 21-07-2020 12:00:00 20.26667 C 9.7 g/m*3 20.27 C 11.69167 km/h
494 21-07-2020 13:00:00 20.68333 C 8.92 g/m*3 20.68 C 12.23333 km/h
495 21-07-2020 14:00:00 21.51667 C 8.76 g/m*3 21.52 C 12.625 km/h
496 21-07-2020 15:00:00 23.01667 C 8.8 g/m*3 23.02 C 13.83333 km/h
497 21-07-2020 16:00:00 24.40833 C 8.72 g/m*3 24.41 C 13.16667 km/h
498 21-07-2020 17:00:00 24.85833 C 8.32 g/m*3 24.86 C 12.9 km/h
499 21-07-2020 18:00:00 24.80833 C 8.24 g/m*3 24.81 C 12.1 km/h
500 21-07-2020 19:00:00 23.59167 C 7.85 g/m*3 23.59 C 10.89167 km/h
Sensor: Nr:Datum:Temp:Abs-Feuchte:Windchill:Wind:
Aussen-T/F 501 21-07-2020 20:00:00 22.09167 C 7.61 g/m*3 22.09 C 7.675 km/h
502 21-07-2020 21:00:00 18.99167 C 8.14 g/m*3 18.99 C 2.8 km/h
503 21-07-2020 22:00:00 15.925 C 8.23 g/m*3 15.93 C 5.475 km/h
504 21-07-2020 23:00:00 14.85833 C 8.48 g/m*3 14.86 C 3.06667 km/h
505 22-07-2020 00:00:00 13.425 C 8.52 g/m*3 13.43 C 0 km/h
506 22-07-2020 01:00:00 12.00833 C 8.33 g/m*3 12.01 C 0 km/h
507 22-07-2020 02:00:00 11.025 C 8.15 g/m*3 11.03 C 0 km/h
508 22-07-2020 03:00:00 10.30833 C 8.07 g/m*3 10.31 C 0 km/h
509 22-07-2020 04:00:00 9.65833 C 7.99 g/m*3 9.66 C 0 km/h
510 22-07-2020 05:00:00 9.24167 C 7.95 g/m*3 9.24 C 0 km/h
511 22-07-2020 06:00:00 9.14167 C 8.08 g/m*3 9.14 C 0 km/h
512 22-07-2020 07:00:00 9.525 C 8.4 g/m*3 9.53 C 0 km/h
513 22-07-2020 08:00:00 10.925 C 9.25 g/m*3 10.93 C 0 km/h
514 22-07-2020 09:00:00 12.79167 C 9.83 g/m*3 12.79 C 1.06667 km/h
515 22-07-2020 10:00:00 16.1 C 9.95 g/m*3 16.1 C 3.2 km/h
516 22-07-2020 11:00:00 19.21667 C 9.06 g/m*3 19.22 C 4.41667 km/h
517 22-07-2020 12:00:00 20.78333 C 8.05 g/m*3 20.78 C 7.38333 km/h
518 22-07-2020 13:00:00 21.925 C 7.7 g/m*3 21.93 C 8.74167 km/h
519 22-07-2020 14:00:00 23.10833 C 7.67 g/m*3 23.11 C 8.325 km/h
520 22-07-2020 15:00:00 24.5 C 8.04 g/m*3 24.5 C 10.75 km/h
521 22-07-2020 16:00:00 25.99167 C 8.72 g/m*3 25.99 C 12.1 km/h
522 22-07-2020 17:00:00 25.66667 C 8.58 g/m*3 25.67 C 12.76667 km/h
523 22-07-2020 18:00:00 24.83333 C 8.7 g/m*3 24.83 C 12.36667 km/h
524 22-07-2020 19:00:00 23.825 C 8.92 g/m*3 23.83 C 11.7 km/h
525 22-07-2020 20:00:00 22.64167 C 8.96 g/m*3 22.64 C 10.08333 km/h
Sensor: Nr:Datum:Temp:Abs-Feuchte:Windchill:Wind:
Aussen-T/F 526 22-07-2020 21:00:00 20.56667 C 9.07 g/m*3 20.57 C 3.61667 km/h
527 22-07-2020 22:00:00 17.64167 C 9.01 g/m*3 17.64 C 4.13333 km/h
528 22-07-2020 23:00:00 16.33333 C 8.93 g/m*3 16.33 C 2.8 km/h
529 23-07-2020 00:00:00 15.325 C 8.99 g/m*3 15.33 C 2 km/h
530 23-07-2020 01:00:00 14.78333 C 9.05 g/m*3 14.78 C 2.66667 km/h
531 23-07-2020 02:00:00 13.79167 C 8.96 g/m*3 13.79 C 1.2 km/h
532 23-07-2020 03:00:00 13.33333 C 8.9 g/m*3 13.33 C 0.53333 km/h
533 23-07-2020 04:00:00 12.30833 C 8.7 g/m*3 12.31 C 0 km/h
534 23-07-2020 05:00:00 11.1 C 8.48 g/m*3 11.1 C 0 km/h
535 23-07-2020 06:00:00 10.625 C 8.53 g/m*3 10.63 C 0.13333 km/h
536 23-07-2020 07:00:00 10.725 C 8.75 g/m*3 10.73 C 0 km/h
537 23-07-2020 08:00:00 11.66667 C 9.29 g/m*3 11.67 C 0 km/h
538 23-07-2020 09:00:00 13.79167 C 9.81 g/m*3 13.79 C 0.66667 km/h
539 23-07-2020 10:00:00 17.15833 C 9.63 g/m*3 17.16 C 3.2 km/h
540 23-07-2020 11:00:00 20.01667 C 9.08 g/m*3 20.02 C 7.24167 km/h
541 23-07-2020 12:00:00 21.24167 C 8.61 g/m*3 21.24 C 9.525 km/h
542 23-07-2020 13:00:00 22.33333 C 8.28 g/m*3 22.33 C 9.26667 km/h
543 23-07-2020 14:00:00 23.6 C 8.29 g/m*3 23.6 C 9.26667 km/h
544 23-07-2020 15:00:00 25.15833 C 8.48 g/m*3 25.16 C 9.275 km/h
545 23-07-2020 16:00:00 26.99167 C 8.68 g/m*3 26.99 C 7.93333 km/h
546 23-07-2020 17:00:00 27.95 C 8.81 g/m*3 27.95 C 7.23333 km/h
547 23-07-2020 18:00:00 27.975 C 8.8 g/m*3 27.98 C 6.44167 km/h
548 23-07-2020 19:00:00 27.025 C 9.02 g/m*3 27.03 C 3.2 km/h
549 23-07-2020 20:00:00 23.73333 C 10.18 g/m*3 23.73 C 3.2 km/h
550 23-07-2020 21:00:00 21.56667 C 9.91 g/m*3 21.57 C 4.53333 km/h
Sensor: Nr:Datum:Temp:Abs-Feuchte:Windchill:Wind:
Aussen-T/F 551 23-07-2020 22:00:00 20.65 C 10.4 g/m*3 20.65 C 2.13333 km/h
552 23-07-2020 23:00:00 19.45833 C 10.51 g/m*3 19.46 C 0 km/h
553 24-07-2020 00:00:00 18.75 C 10.5 g/m*3 18.75 C 0 km/h
554 24-07-2020 01:00:00 18.225 C 10.36 g/m*3 18.23 C 1.6 km/h
555 24-07-2020 02:00:00 17.46667 C 10.17 g/m*3 17.47 C 0.66667 km/h
556 24-07-2020 03:00:00 16.41667 C 10.05 g/m*3 16.42 C 0.4 km/h
557 24-07-2020 04:00:00 16.34167 C 10.22 g/m*3 16.34 C 2.54167 km/h
558 24-07-2020 05:00:00 16.44167 C 10.42 g/m*3 16.44 C 1.06667 km/h
559 24-07-2020 06:00:00 15.79167 C 10.38 g/m*3 15.79 C 0.13333 km/h
560 24-07-2020 07:00:00 17.04167 C 10.84 g/m*3 17.04 C 4.13333 km/h
561 24-07-2020 08:00:00 18.43333 C 10.98 g/m*3 18.43 C 8.05833 km/h
562 24-07-2020 09:00:00 20.34167 C 10.95 g/m*3 20.34 C 4.53333 km/h
563 24-07-2020 10:00:00 22.28333 C 10.55 g/m*3 22.28 C 2.66667 km/h
564 24-07-2020 11:00:00 23.28333 C 10.37 g/m*3 23.28 C 6.56667 km/h
565 24-07-2020 12:00:00 24.59167 C 10.01 g/m*3 24.59 C 14.75833 km/h
566 24-07-2020 13:00:00 25.65 C 9.63 g/m*3 25.65 C 12.35833 km/h
567 24-07-2020 14:00:00 25.55833 C 9.82 g/m*3 25.56 C 10.09167 km/h
568 24-07-2020 15:00:00 24.875 C 10.1 g/m*3 24.88 C 9.54167 km/h
569 24-07-2020 16:00:00 24.85 C 10.46 g/m*3 24.85 C 8.6 km/h
570 24-07-2020 17:00:00 25.76667 C 10.49 g/m*3 25.77 C 7.65833 km/h
571 24-07-2020 18:00:00 25.575 C 10.94 g/m*3 25.58 C 9.69167 km/h
572 24-07-2020 19:00:00 24.25 C 11.68 g/m*3 24.25 C 9.26667 km/h
573 24-07-2020 20:00:00 23.95 C 11.99 g/m*3 23.95 C 3.46667 km/h
574 24-07-2020 21:00:00 21.13333 C 11.89 g/m*3 21.13 C 5.74167 km/h
575 24-07-2020 22:00:00 20.85 C 12.15 g/m*3 20.85 C 2.93333 km/h
Sensor: Nr:Datum:Temp:Abs-Feuchte:Windchill:Wind:
Aussen-T/F 576 24-07-2020 23:00:00 21.175 C 12.71 g/m*3 21.18 C 6.56667 km/h
577 25-07-2020 00:00:00 19.96667 C 12.98 g/m*3 19.97 C 0.66667 km/h
578 25-07-2020 01:00:00 18.9 C 12.78 g/m*3 18.9 C 2.26667 km/h
579 25-07-2020 02:00:00 17.68333 C 12.4 g/m*3 17.68 C 3.73333 km/h
580 25-07-2020 03:00:00 16.475 C 11.88 g/m*3 16.48 C 3.2 km/h
581 25-07-2020 04:00:00 15.28333 C 11.37 g/m*3 15.28 C 0.66667 km/h
582 25-07-2020 05:00:00 14.55 C 11.19 g/m*3 14.55 C 1.46667 km/h
583 25-07-2020 06:00:00 14.675 C 11.45 g/m*3 14.68 C 1.2 km/h
584 25-07-2020 07:00:00 15.84167 C 12.17 g/m*3 15.84 C 1.86667 km/h
585 25-07-2020 08:00:00 17.48333 C 12.64 g/m*3 17.48 C 2.13333 km/h
586 25-07-2020 09:00:00 18.63333 C 13.04 g/m*3 18.63 C 2.53333 km/h
587 25-07-2020 10:00:00 20.68333 C 13.2 g/m*3 20.68 C 8.75833 km/h
588 25-07-2020 11:00:00 22.55833 C 12.68 g/m*3 22.56 C 12.63333 km/h
589 25-07-2020 12:00:00 24.20833 C 12.25 g/m*3 24.21 C 13.15833 km/h
590 25-07-2020 13:00:00 25.34167 C 11.99 g/m*3 25.34 C 14.49167 km/h
591 25-07-2020 14:00:00 25.33333 C 11.57 g/m*3 25.33 C 15.16667 km/h
592 25-07-2020 15:00:00 25.84167 C 11.54 g/m*3 25.84 C 12.35833 km/h
593 25-07-2020 16:00:00 26.85 C 11.04 g/m*3 26.85 C 10.9 km/h
594 25-07-2020 17:00:00 25.85 C 11 g/m*3 25.85 C 8.2 km/h
595 25-07-2020 18:00:00 25.63333 C 11.79 g/m*3 25.63 C 3.875 km/h
596 25-07-2020 19:00:00 26.1 C 11.87 g/m*3 26.1 C 5.36667 km/h
597 25-07-2020 20:00:00 24.28333 C 12.51 g/m*3 24.28 C 4.66667 km/h
598 25-07-2020 21:00:00 22.00833 C 12.14 g/m*3 22.01 C 6.00833 km/h
599 25-07-2020 22:00:00 20.53333 C 11.9 g/m*3 20.53 C 4.4 km/h
600 25-07-2020 23:00:00 19.65833 C 12.21 g/m*3 19.66 C 0.8 km/h
Sensor: Nr:Datum:Temp:Abs-Feuchte:Windchill:Wind:
Aussen-T/F 601 26-07-2020 00:00:00 19.16667 C 12.43 g/m*3 19.17 C 0 km/h
602 26-07-2020 01:00:00 19.60833 C 12.78 g/m*3 19.61 C 5.24167 km/h
603 26-07-2020 02:00:00 19.34167 C 13.84 g/m*3 19.34 C 7.64167 km/h
604 26-07-2020 03:00:00 18.2 C 13.96 g/m*3 18.2 C 4.00833 km/h
605 26-07-2020 04:00:00 17.60833 C 13.83 g/m*3 17.61 C 3.06667 km/h
606 26-07-2020 05:00:00 17.21667 C 13.71 g/m*3 17.22 C 2.4 km/h
607 26-07-2020 06:00:00 17.13333 C 13.71 g/m*3 17.13 C 2.4 km/h
608 26-07-2020 07:00:00 18.36667 C 13.98 g/m*3 18.37 C 7.93333 km/h
609 26-07-2020 08:00:00 19.59167 C 13.79 g/m*3 19.59 C 13.15833 km/h
610 26-07-2020 09:00:00 20.6 C 13.98 g/m*3 20.6 C 11.95833 km/h
611 26-07-2020 10:00:00 21.18333 C 13.56 g/m*3 21.18 C 15.03333 km/h
612 26-07-2020 11:00:00 22.11667 C 13.76 g/m*3 22.12 C 12.5 km/h
613 26-07-2020 12:00:00 21.15833 C 14.04 g/m*3 21.16 C 14.08333 km/h
614 26-07-2020 13:00:00 20.85 C 13.77 g/m*3 20.85 C 11.025 km/h
615 26-07-2020 14:00:00 23.59167 C 11.51 g/m*3 23.59 C 14.76667 km/h
616 26-07-2020 15:00:00 24.50833 C 11.16 g/m*3 24.51 C 15.43333 km/h
617 26-07-2020 16:00:00 25.625 C 10.67 g/m*3 25.63 C 13.56667 km/h
618 26-07-2020 17:00:00 26.3 C 10.25 g/m*3 26.3 C 13.96667 km/h
619 26-07-2020 18:00:00 26.1 C 10.24 g/m*3 26.1 C 13.56667 km/h
620 26-07-2020 19:00:00 23.94167 C 10.52 g/m*3 23.94 C 13.43333 km/h
621 26-07-2020 20:00:00 22.14167 C 10.96 g/m*3 22.14 C 3.88333 km/h
622 26-07-2020 21:00:00 20.58333 C 11.41 g/m*3 20.58 C 1.33333 km/h
623 26-07-2020 22:00:00 18.76667 C 11.16 g/m*3 18.77 C 3.86667 km/h
624 26-07-2020 23:00:00 17.34167 C 11.16 g/m*3 17.34 C 1.06667 km/h
625 27-07-2020 00:00:00 16.64167 C 11.32 g/m*3 16.64 C 0 km/h
Sensor: Nr:Datum:Temp:Abs-Feuchte:Windchill:Wind:
Aussen-T/F 626 27-07-2020 01:00:00 15.41667 C 10.75 g/m*3 15.42 C 0 km/h
627 27-07-2020 02:00:00 14.35833 C 10.49 g/m*3 14.36 C 0 km/h
628 27-07-2020 03:00:00 13.5 C 10.23 g/m*3 13.5 C 0 km/h
629 27-07-2020 04:00:00 12.85 C 10.05 g/m*3 12.85 C 0 km/h
630 27-07-2020 05:00:00 12.78333 C 10.29 g/m*3 12.78 C 0 km/h
631 27-07-2020 06:00:00 12.86667 C 10.38 g/m*3 12.87 C 0 km/h
632 27-07-2020 07:00:00 13.64167 C 10.91 g/m*3 13.64 C 0.4 km/h
633 27-07-2020 08:00:00 15.39167 C 11.63 g/m*3 15.39 C 0.13333 km/h
634 27-07-2020 09:00:00 17.2 C 12.08 g/m*3 17.2 C 1.2 km/h
635 27-07-2020 10:00:00 19.9 C 13.07 g/m*3 19.9 C 1.86667 km/h
636 27-07-2020 11:00:00 22.79167 C 13.15 g/m*3 22.79 C 2.93333 km/h
637 27-07-2020 12:00:00 24.79167 C 12.29 g/m*3 24.79 C 8.85833 km/h
638 27-07-2020 13:00:00 26.49167 C 10.93 g/m*3 26.49 C 11.425 km/h
639 27-07-2020 14:00:00 27.43333 C 11.86 g/m*3 27.43 C 10.75 km/h
640 27-07-2020 15:00:00 29.06667 C 11.53 g/m*3 29.07 C 9.95 km/h
641 27-07-2020 16:00:00 28.9 C 10.69 g/m*3 28.9 C 8.85833 km/h
642 27-07-2020 17:00:00 31.65 C 10.11 g/m*3 31.65 C 14.625 km/h
643 27-07-2020 18:00:00 31.275 C 10.1 g/m*3 31.28 C 10.48333 km/h
644 27-07-2020 19:00:00 30.54167 C 11.81 g/m*3 30.54 C 2.66667 km/h
645 27-07-2020 20:00:00 28.575 C 12.44 g/m*3 28.58 C 5.475 km/h
646 27-07-2020 21:00:00 26.09167 C 11.87 g/m*3 26.09 C 6.54167 km/h
647 27-07-2020 22:00:00 24.54167 C 11.7 g/m*3 24.54 C 3.20833 km/h
648 27-07-2020 23:00:00 23.19167 C 11.97 g/m*3 23.19 C 0 km/h
649 28-07-2020 00:00:00 21.54167 C 11.58 g/m*3 21.54 C 0 km/h
650 28-07-2020 01:00:00 21.90833 C 11.74 g/m*3 21.91 C 0 km/h
Sensor: Nr:Datum:Temp:Abs-Feuchte:Windchill:Wind:
Aussen-T/F 651 28-07-2020 02:00:00 22.19167 C 11.76 g/m*3 22.19 C 2.26667 km/h
652 28-07-2020 03:00:00 21.16667 C 11.56 g/m*3 21.17 C 1.33333 km/h
653 28-07-2020 04:00:00 20.19167 C 11.49 g/m*3 20.19 C 4.54167 km/h
654 28-07-2020 05:00:00 20.075 C 11.17 g/m*3 20.08 C 2.55 km/h
655 28-07-2020 06:00:00 19.7 C 11.65 g/m*3 19.7 C 0.26667 km/h
656 28-07-2020 07:00:00 20.35 C 12.1 g/m*3 20.35 C 2.94167 km/h
657 28-07-2020 08:00:00 21.71667 C 12.89 g/m*3 21.72 C 8.18333 km/h
658 28-07-2020 09:00:00 22.54167 C 13.35 g/m*3 22.54 C 12.9 km/h
659 28-07-2020 10:00:00 23.03333 C 12.6 g/m*3 23.03 C 16.1 km/h
660 28-07-2020 11:00:00 23.83333 C 12.19 g/m*3 23.83 C 15.83333 km/h
661 28-07-2020 12:00:00 24.425 C 11.83 g/m*3 24.43 C 16.1 km/h
662 28-07-2020 13:00:00 25.56667 C 11.07 g/m*3 25.57 C 17.96667 km/h
663 28-07-2020 14:00:00 25.93333 C 10.63 g/m*3 25.93 C 15.43333 km/h
664 28-07-2020 15:00:00 26.26667 C 10.11 g/m*3 26.27 C 13.95833 km/h
665 28-07-2020 16:00:00 27.025 C 10.14 g/m*3 27.03 C 13.96667 km/h
666 28-07-2020 17:00:00 27.4 C 9.71 g/m*3 27.4 C 15.96667 km/h
667 28-07-2020 18:00:00 27.275 C 9.56 g/m*3 27.28 C 13.56667 km/h
668 28-07-2020 19:00:00 25.625 C 9.24 g/m*3 25.63 C 15.7 km/h
669 28-07-2020 20:00:00 23.18333 C 8.9 g/m*3 23.18 C 11.56667 km/h
670 28-07-2020 21:00:00 21.01667 C 8.95 g/m*3 21.02 C 5.89167 km/h
671 28-07-2020 22:00:00 19.30833 C 9.04 g/m*3 19.31 C 4.69167 km/h
672 28-07-2020 23:00:00 18.66667 C 9.28 g/m*3 18.67 C 3.21667 km/h
673 29-07-2020 00:00:00 16.475 C 9.3 g/m*3 16.48 C 1.86667 km/h
674 29-07-2020 01:00:00 15.94167 C 9.93 g/m*3 15.94 C 3.875 km/h
675 29-07-2020 02:00:00 15.18333 C 9.85 g/m*3 15.18 C 3.6 km/h
Sensor: Nr:Datum:Temp:Abs-Feuchte:Windchill:Wind:
Aussen-T/F 676 29-07-2020 03:00:00 13.625 C 9.5 g/m*3 13.63 C 0 km/h
677 29-07-2020 04:00:00 12.425 C 9.33 g/m*3 12.43 C 1.33333 km/h
678 29-07-2020 05:00:00 11.70833 C 9.16 g/m*3 11.71 C 0.13333 km/h
679 29-07-2020 06:00:00 11.7 C 9.23 g/m*3 11.7 C 1.86667 km/h
680 29-07-2020 07:00:00 12.03333 C 9.37 g/m*3 12.03 C 3.46667 km/h
681 29-07-2020 08:00:00 13.1 C 9.79 g/m*3 13.1 C 2.53333 km/h
682 29-07-2020 09:00:00 15.5 C 10.13 g/m*3 15.5 C 3.86667 km/h
683 29-07-2020 10:00:00 18.125 C 10.03 g/m*3 18.13 C 4.95 km/h
684 29-07-2020 11:00:00 20.34167 C 9.99 g/m*3 20.34 C 8.85833 km/h
685 29-07-2020 12:00:00 21.3 C 9.69 g/m*3 21.3 C 10.225 km/h
686 29-07-2020 13:00:00 22.13333 C 9.24 g/m*3 22.13 C 9.54167 km/h
687 29-07-2020 14:00:00 23.725 C 8.96 g/m*3 23.73 C 8.46667 km/h
688 29-07-2020 15:00:00 25.4 C 8.95 g/m*3 25.4 C 8.875 km/h
689 29-07-2020 16:00:00 26.7 C 9.13 g/m*3 26.7 C 11.83333 km/h
690 29-07-2020 17:00:00 26.99167 C 9.11 g/m*3 26.99 C 10.9 km/h
691 29-07-2020 18:00:00 26.90833 C 9.22 g/m*3 26.91 C 11.03333 km/h
692 29-07-2020 19:00:00 25.675 C 9.44 g/m*3 25.68 C 10.49167 km/h
693 29-07-2020 20:00:00 23.55 C 9.46 g/m*3 23.55 C 10.89167 km/h
694 29-07-2020 21:00:00 21.25 C 9.57 g/m*3 21.25 C 2.54167 km/h
695 29-07-2020 22:00:00 18.10833 C 9.44 g/m*3 18.11 C 0.13333 km/h
696 29-07-2020 23:00:00 16.8 C 9.5 g/m*3 16.8 C 0 km/h
697 30-07-2020 00:00:00 15.30833 C 9.46 g/m*3 15.31 C 0 km/h
698 30-07-2020 01:00:00 14.05833 C 9.33 g/m*3 14.06 C 0 km/h
699 30-07-2020 02:00:00 13.23333 C 9.21 g/m*3 13.23 C 0 km/h
700 30-07-2020 03:00:00 12.50833 C 9.11 g/m*3 12.51 C 0 km/h
Sensor: Nr:Datum:Temp:Abs-Feuchte:Windchill:Wind:
Aussen-T/F 701 30-07-2020 04:00:00 11.88333 C 9 g/m*3 11.88 C 0 km/h
702 30-07-2020 05:00:00 11.425 C 8.94 g/m*3 11.43 C 0 km/h
703 30-07-2020 06:00:00 11.18333 C 8.96 g/m*3 11.18 C 0 km/h
704 30-07-2020 07:00:00 11.65833 C 9.34 g/m*3 11.66 C 0 km/h
705 30-07-2020 08:00:00 12.58333 C 9.83 g/m*3 12.58 C 0 km/h
706 30-07-2020 09:00:00 14.55833 C 10.57 g/m*3 14.56 C 0.13333 km/h
707 30-07-2020 10:00:00 18.74167 C 10.87 g/m*3 18.74 C 3.74167 km/h
708 30-07-2020 11:00:00 22.01667 C 10.68 g/m*3 22.02 C 4.80833 km/h
709 30-07-2020 12:00:00 23.54167 C 10.4 g/m*3 23.54 C 7.38333 km/h
710 30-07-2020 13:00:00 24.925 C 9.78 g/m*3 24.93 C 8.05 km/h
711 30-07-2020 14:00:00 26.43333 C 9.56 g/m*3 26.43 C 8.86667 km/h
712 30-07-2020 15:00:00 28.15833 C 9.58 g/m*3 28.16 C 9.95 km/h
713 30-07-2020 16:00:00 30.00833 C 8.9 g/m*3 30.01 C 8.475 km/h
714 30-07-2020 17:00:00 31.15833 C 8.77 g/m*3 31.16 C 6.95833 km/h
715 30-07-2020 18:00:00 31.74167 C 8.69 g/m*3 31.74 C 7.79167 km/h
716 30-07-2020 19:00:00 30.46667 C 8.63 g/m*3 30.47 C 8.61667 km/h
717 30-07-2020 20:00:00 28.75 C 9.52 g/m*3 28.75 C 3.60833 km/h
718 30-07-2020 21:00:00 24.4 C 9.9 g/m*3 24.4 C 4.26667 km/h
719 30-07-2020 22:00:00 21.8 C 9.59 g/m*3 21.8 C 2.8 km/h
720 30-07-2020 23:00:00 19.8 C 9.76 g/m*3 19.8 C 0.4 km/h
721 31-07-2020 00:00:00 18.05833 C 9.58 g/m*3 18.06 C 0 km/h
722 31-07-2020 01:00:00 16.85833 C 9.48 g/m*3 16.86 C 0 km/h
723 31-07-2020 02:00:00 15.76667 C 9.46 g/m*3 15.77 C 0 km/h
724 31-07-2020 03:00:00 14.99167 C 9.52 g/m*3 14.99 C 0 km/h
725 31-07-2020 04:00:00 14.15 C 9.54 g/m*3 14.15 C 0 km/h
Sensor: Nr:Datum:Temp:Abs-Feuchte:Windchill:Wind:
Aussen-T/F 726 31-07-2020 05:00:00 13.54167 C 9.54 g/m*3 13.54 C 0 km/h
727 31-07-2020 06:00:00 13.23333 C 9.63 g/m*3 13.23 C 0.13333 km/h
728 31-07-2020 07:00:00 13.45833 C 9.9 g/m*3 13.46 C 0 km/h
729 31-07-2020 08:00:00 14.39167 C 10.42 g/m*3 14.39 C 0.13333 km/h
730 31-07-2020 09:00:00 16.38333 C 11.11 g/m*3 16.38 C 0.4 km/h
731 31-07-2020 10:00:00 20.825 C 11.3 g/m*3 20.83 C 2.13333 km/h
732 31-07-2020 11:00:00 25.40833 C 11.05 g/m*3 25.41 C 5.90833 km/h
733 31-07-2020 12:00:00 29.4 C 10.23 g/m*3 29.4 C 14.76667 km/h
734 31-07-2020 13:00:00 30.825 C 10.49 g/m*3 30.83 C 10.1 km/h
735 31-07-2020 14:00:00 32.25833 C 10.58 g/m*3 32.26 C 8.34167 km/h
736 31-07-2020 15:00:00 34.3 C 10.32 g/m*3 34.3 C 8.46667 km/h
737 31-07-2020 16:00:00 36.68333 C 10.35 g/m*3 36.68 C 7.51667 km/h
738 31-07-2020 17:00:00 37.475 C 10.25 g/m*3 37.48 C 8.06667 km/h
739 31-07-2020 18:00:00 37.51667 C 9.71 g/m*3 37.52 C 8.2 km/h
740 31-07-2020 19:00:00 36.10833 C 10.05 g/m*3 36.11 C 5.35 km/h
741 31-07-2020 20:00:00 33.38333 C 11.38 g/m*3 33.38 C 3.73333 km/h
742 31-07-2020 21:00:00 27.14167 C 11.22 g/m*3 27.14 C 7.39167 km/h
743 31-07-2020 22:00:00 24.775 C 11.02 g/m*3 24.78 C 3.74167 km/h
744 31-07-2020 23:00:00 22.90833 C 11.18 g/m*3 22.91 C 1.73333 km/h
745 01-08-2020 00:00:00 21.03333 C 11.26 g/m*3 21.03 C 0.13333 km/h
746 01-08-2020 01:00:00 19.66667 C 11.48 g/m*3 19.67 C 0 km/h
747 01-08-2020 02:00:00 18.95 C 11.44 g/m*3 18.95 C 0.8 km/h
748 01-08-2020 03:00:00 18.31667 C 11.36 g/m*3 18.32 C 0 km/h
749 01-08-2020 04:00:00 17.65833 C 11.39 g/m*3 17.66 C 0.26667 km/h
750 01-08-2020 05:00:00 18.01667 C 11.66 g/m*3 18.02 C 0.8 km/h
Sensor: Nr:Datum:Temp:Abs-Feuchte:Windchill:Wind:
Aussen-T/F 751 01-08-2020 06:00:00 18.16667 C 11.71 g/m*3 18.17 C 0.8 km/h
752 01-08-2020 07:00:00 18.06667 C 12.13 g/m*3 18.07 C 0.4 km/h
753 01-08-2020 08:00:00 20.725 C 13.07 g/m*3 20.73 C 9.54167 km/h
754 01-08-2020 09:00:00 19.875 C 14.73 g/m*3 19.88 C 9.53333 km/h
755 01-08-2020 10:00:00 19.83333 C 15.73 g/m*3 19.83 C 2.275 km/h
756 01-08-2020 11:00:00 20.24167 C 16.52 g/m*3 20.24 C 0.13333 km/h
757 01-08-2020 12:00:00 21.00833 C 17.24 g/m*3 21.01 C 1.46667 km/h
758 01-08-2020 13:00:00 21.80833 C 17.76 g/m*3 21.81 C 1.73333 km/h
759 01-08-2020 14:00:00 23.7 C 18.36 g/m*3 23.7 C 2.93333 km/h
760 01-08-2020 15:00:00 25.79167 C 19.21 g/m*3 25.79 C 6.15833 km/h
761 01-08-2020 16:00:00 29.71667 C 18.57 g/m*3 29.72 C 6.15 km/h
762 01-08-2020 17:00:00 31.86667 C 17.35 g/m*3 31.87 C 7.10833 km/h
763 01-08-2020 18:00:00 30.9 C 17.35 g/m*3 30.9 C 5.49167 km/h
764 01-08-2020 19:00:00 27.6 C 17.56 g/m*3 27.6 C 5.75 km/h
765 01-08-2020 20:00:00 22.15 C 17.26 g/m*3 22.15 C 11.16667 km/h
766 01-08-2020 21:00:00 21.10833 C 17.45 g/m*3 21.11 C 8.59167 km/h
767 01-08-2020 22:00:00 20.9 C 17.48 g/m*3 20.9 C 8.21667 km/h
768 01-08-2020 23:00:00 20.525 C 17.11 g/m*3 20.53 C 7.11667 km/h
769 02-08-2020 00:00:00 20.11667 C 16.7 g/m*3 20.12 C 5.75 km/h
770 02-08-2020 01:00:00 20.01667 C 16.71 g/m*3 20.02 C 4.68333 km/h
771 02-08-2020 02:00:00 19.41667 C 16.03 g/m*3 19.42 C 3.075 km/h
772 02-08-2020 03:00:00 18.95 C 15.6 g/m*3 18.95 C 3.74167 km/h
773 02-08-2020 04:00:00 18.53333 C 15.27 g/m*3 18.53 C 2.93333 km/h
774 02-08-2020 05:00:00 17.55833 C 14.36 g/m*3 17.56 C 2.53333 km/h
775 02-08-2020 06:00:00 17.075 C 13.92 g/m*3 17.08 C 3.88333 km/h
Sensor: Nr:Datum:Temp:Abs-Feuchte:Windchill:Wind:
Aussen-T/F 776 02-08-2020 07:00:00 17.50833 C 14.03 g/m*3 17.51 C 1.46667 km/h
777 02-08-2020 08:00:00 18.175 C 14.59 g/m*3 18.18 C 0.4 km/h
778 02-08-2020 09:00:00 19.45833 C 14.06 g/m*3 19.46 C 3.75 km/h
779 02-08-2020 10:00:00 21.06667 C 13.56 g/m*3 21.07 C 8.6 km/h
780 02-08-2020 11:00:00 22.16667 C 13.6 g/m*3 22.17 C 8.34167 km/h
781 02-08-2020 12:00:00 22.63333 C 12.65 g/m*3 22.63 C 8.74167 km/h
782 02-08-2020 13:00:00 23.4 C 12.79 g/m*3 23.4 C 8.45833 km/h
783 02-08-2020 14:00:00 23.71667 C 12.06 g/m*3 23.72 C 10.75833 km/h
784 02-08-2020 15:00:00 24.61667 C 11.68 g/m*3 24.62 C 10.61667 km/h
785 02-08-2020 16:00:00 25.7 C 11.41 g/m*3 25.7 C 11.025 km/h
786 02-08-2020 17:00:00 26.125 C 12.05 g/m*3 26.13 C 12.9 km/h
787 02-08-2020 18:00:00 26.05833 C 11.24 g/m*3 26.06 C 11.96667 km/h
788 02-08-2020 19:00:00 25.53333 C 10.59 g/m*3 25.53 C 10.36667 km/h
789 02-08-2020 20:00:00 23.625 C 11.5 g/m*3 23.63 C 9.00833 km/h
790 02-08-2020 21:00:00 21.15833 C 11.82 g/m*3 21.16 C 3.35 km/h
791 02-08-2020 22:00:00 19.24167 C 12.11 g/m*3 19.24 C 1.46667 km/h
792 02-08-2020 23:00:00 18.98333 C 12.24 g/m*3 18.98 C 1.33333 km/h
793 03-08-2020 00:00:00 17.69167 C 12.13 g/m*3 17.69 C 2 km/h
794 03-08-2020 01:00:00 16.575 C 11.74 g/m*3 16.58 C 4.26667 km/h
795 03-08-2020 02:00:00 15.83333 C 11.54 g/m*3 15.83 C 2.4 km/h
796 03-08-2020 03:00:00 15 C 11.35 g/m*3 15 C 0.66667 km/h
797 03-08-2020 04:00:00 14.525 C 11.29 g/m*3 14.53 C 0.13333 km/h
798 03-08-2020 05:00:00 14.175 C 11.1 g/m*3 14.18 C 0 km/h
799 03-08-2020 06:00:00 13.46667 C 10.77 g/m*3 13.47 C 0 km/h
800 03-08-2020 07:00:00 14.2 C 11.34 g/m*3 14.2 C 1.33333 km/h
Sensor: Nr:Datum:Temp:Abs-Feuchte:Windchill:Wind:
Aussen-T/F 801 03-08-2020 08:00:00 16.075 C 11.69 g/m*3 16.08 C 0.13333 km/h
802 03-08-2020 09:00:00 17.925 C 11.89 g/m*3 17.93 C 0.80833 km/h
803 03-08-2020 10:00:00 19.01667 C 11.88 g/m*3 19.02 C 1.73333 km/h
804 03-08-2020 11:00:00 20.16667 C 11.37 g/m*3 20.17 C 3.74167 km/h
805 03-08-2020 12:00:00 21.18333 C 10.58 g/m*3 21.18 C 1.73333 km/h
806 03-08-2020 13:00:00 21.88333 C 10.44 g/m*3 21.88 C 3.6 km/h
807 03-08-2020 14:00:00 22.74167 C 10.55 g/m*3 22.74 C 4.00833 km/h
808 03-08-2020 15:00:00 22.83333 C 9.87 g/m*3 22.83 C 4.69167 km/h
809 03-08-2020 16:00:00 22.95 C 9.55 g/m*3 22.95 C 7.66667 km/h
810 03-08-2020 17:00:00 20.75833 C 10.67 g/m*3 20.76 C 12.23333 km/h
811 03-08-2020 18:00:00 20.08333 C 10.72 g/m*3 20.08 C 8.74167 km/h
812 03-08-2020 19:00:00 19.14167 C 11.19 g/m*3 19.14 C 5.075 km/h
813 03-08-2020 20:00:00 18.59167 C 11.19 g/m*3 18.59 C 1.73333 km/h
814 03-08-2020 21:00:00 17.55833 C 10.81 g/m*3 17.56 C 1.06667 km/h
815 03-08-2020 22:00:00 17.1 C 10.74 g/m*3 17.1 C 2.4 km/h
816 03-08-2020 23:00:00 16.56667 C 10.75 g/m*3 16.57 C 0 km/h
817 04-08-2020 00:00:00 16.3 C 10.93 g/m*3 16.3 C 0 km/h
818 04-08-2020 01:00:00 16.16667 C 11.09 g/m*3 16.17 C 0.66667 km/h
819 04-08-2020 02:00:00 16.35833 C 11.21 g/m*3 16.36 C 2.93333 km/h
820 04-08-2020 03:00:00 16.96667 C 11.13 g/m*3 16.97 C 8.45833 km/h
821 04-08-2020 04:00:00 16.29167 C 11.09 g/m*3 16.29 C 6.03333 km/h
822 04-08-2020 05:00:00 15.6 C 11.06 g/m*3 15.6 C 5.23333 km/h
823 04-08-2020 06:00:00 15.325 C 11.1 g/m*3 15.33 C 4.41667 km/h
824 04-08-2020 07:00:00 15.475 C 11.24 g/m*3 15.48 C 6.29167 km/h
825 04-08-2020 08:00:00 16.24167 C 11.35 g/m*3 16.24 C 6.71667 km/h
Sensor: Nr:Datum:Temp:Abs-Feuchte:Windchill:Wind:
Aussen-T/F 826 04-08-2020 09:00:00 17.05 C 11.33 g/m*3 17.05 C 8.05833 km/h
827 04-08-2020 10:00:00 17.78333 C 11.46 g/m*3 17.78 C 5.9 km/h
828 04-08-2020 11:00:00 19.25833 C 11.29 g/m*3 19.26 C 8.325 km/h
829 04-08-2020 12:00:00 20.05833 C 10.43 g/m*3 20.06 C 9.96667 km/h
830 04-08-2020 13:00:00 21.21667 C 10 g/m*3 21.22 C 11.43333 km/h
831 04-08-2020 14:00:00 22.275 C 9.83 g/m*3 22.28 C 11.29167 km/h
832 04-08-2020 15:00:00 23.31667 C 9.28 g/m*3 23.32 C 11.83333 km/h
833 04-08-2020 16:00:00 25.125 C 8.98 g/m*3 25.13 C 7.375 km/h
834 04-08-2020 17:00:00 24.95 C 8.95 g/m*3 24.95 C 8.6 km/h
835 04-08-2020 18:00:00 25.44167 C 8.93 g/m*3 25.44 C 9.53333 km/h
836 04-08-2020 19:00:00 24.74167 C 8.83 g/m*3 24.74 C 6.425 km/h
837 04-08-2020 20:00:00 22.95833 C 9.01 g/m*3 22.96 C 4.69167 km/h
838 04-08-2020 21:00:00 18.86667 C 9.34 g/m*3 18.87 C 5.46667 km/h
839 04-08-2020 22:00:00 16.825 C 9.19 g/m*3 16.83 C 4.93333 km/h
840 04-08-2020 23:00:00 15.125 C 9.32 g/m*3 15.13 C 0.26667 km/h
841 05-08-2020 00:00:00 13.75 C 9.01 g/m*3 13.75 C 0.13333 km/h
842 05-08-2020 01:00:00 12.93333 C 8.82 g/m*3 12.93 C 0.26667 km/h
843 05-08-2020 02:00:00 12.25833 C 8.74 g/m*3 12.26 C 0 km/h
844 05-08-2020 03:00:00 11.48333 C 8.58 g/m*3 11.48 C 0 km/h
845 05-08-2020 04:00:00 10.90833 C 8.52 g/m*3 10.91 C 0 km/h
846 05-08-2020 05:00:00 10.425 C 8.39 g/m*3 10.43 C 0 km/h
847 05-08-2020 06:00:00 10.15833 C 8.4 g/m*3 10.16 C 0 km/h
848 05-08-2020 07:00:00 10.43333 C 8.69 g/m*3 10.43 C 0 km/h
849 05-08-2020 08:00:00 11.25 C 9.11 g/m*3 11.25 C 0 km/h
850 05-08-2020 09:00:00 12.975 C 9.91 g/m*3 12.98 C 0 km/h
Sensor: Nr:Datum:Temp:Abs-Feuchte:Windchill:Wind:
Aussen-T/F 851 05-08-2020 10:00:00 15.775 C 10.85 g/m*3 15.78 C 0 km/h
852 05-08-2020 11:00:00 20.85833 C 10.83 g/m*3 20.86 C 4.55833 km/h
853 05-08-2020 12:00:00 24.08333 C 10.04 g/m*3 24.08 C 10.625 km/h
854 05-08-2020 13:00:00 25.325 C 9.77 g/m*3 25.33 C 10.225 km/h
855 05-08-2020 14:00:00 26.71667 C 9.75 g/m*3 26.72 C 9.41667 km/h
856 05-08-2020 15:00:00 28.66667 C 9.4 g/m*3 28.67 C 9.95833 km/h
857 05-08-2020 16:00:00 30.38333 C 9.29 g/m*3 30.38 C 9.55 km/h
858 05-08-2020 17:00:00 30.8 C 9.76 g/m*3 30.8 C 8.46667 km/h
859 05-08-2020 18:00:00 30.95833 C 9.61 g/m*3 30.96 C 8.45 km/h
860 05-08-2020 19:00:00 29.59167 C 9.07 g/m*3 29.59 C 6.56667 km/h
861 05-08-2020 20:00:00 27.075 C 9.43 g/m*3 27.08 C 3.74167 km/h
862 05-08-2020 21:00:00 21.8 C 9.61 g/m*3 21.8 C 5.61667 km/h
863 05-08-2020 22:00:00 19.61667 C 9.43 g/m*3 19.62 C 5.33333 km/h
864 05-08-2020 23:00:00 18.46667 C 9.47 g/m*3 18.47 C 1.46667 km/h
865 06-08-2020 00:00:00 16.99167 C 9.75 g/m*3 16.99 C 0 km/h
866 06-08-2020 01:00:00 15.95 C 9.61 g/m*3 15.95 C 0 km/h
867 06-08-2020 02:00:00 14.98333 C 9.48 g/m*3 14.98 C 0 km/h
868 06-08-2020 03:00:00 14.04167 C 9.44 g/m*3 14.04 C 0 km/h
869 06-08-2020 04:00:00 13.44167 C 9.48 g/m*3 13.44 C 0 km/h
870 06-08-2020 05:00:00 12.89167 C 9.36 g/m*3 12.89 C 0 km/h
871 06-08-2020 06:00:00 12.36667 C 9.37 g/m*3 12.37 C 0 km/h
872 06-08-2020 07:00:00 12.58333 C 9.68 g/m*3 12.58 C 0 km/h
873 06-08-2020 08:00:00 13.41667 C 10.16 g/m*3 13.42 C 0 km/h
874 06-08-2020 09:00:00 15.25833 C 10.97 g/m*3 15.26 C 0 km/h
875 06-08-2020 10:00:00 19.33333 C 11.76 g/m*3 19.33 C 3.75 km/h
Sensor: Nr:Datum:Temp:Abs-Feuchte:Windchill:Wind:
Aussen-T/F 876 06-08-2020 11:00:00 24.83333 C 11.21 g/m*3 24.83 C 7.39167 km/h
877 06-08-2020 12:00:00 26.23333 C 11.1 g/m*3 26.23 C 9 km/h
878 06-08-2020 13:00:00 27.21667 C 10.85 g/m*3 27.22 C 8.45833 km/h
879 06-08-2020 14:00:00 28.625 C 10.74 g/m*3 28.63 C 10.20833 km/h
880 06-08-2020 15:00:00 30.275 C 10.85 g/m*3 30.28 C 10.34167 km/h
881 06-08-2020 16:00:00 32.175 C 10.53 g/m*3 32.17 C 7.78333 km/h
882 06-08-2020 17:00:00 33.15833 C 10.56 g/m*3 33.16 C 7.66667 km/h
883 06-08-2020 18:00:00 32.84167 C 10.44 g/m*3 32.84 C 9.15 km/h
884 06-08-2020 19:00:00 31.30833 C 10.63 g/m*3 31.31 C 7.25 km/h
885 06-08-2020 20:00:00 29.03333 C 12.71 g/m*3 29.03 C 4 km/h
886 06-08-2020 21:00:00 24.38333 C 11.58 g/m*3 24.38 C 7.13333 km/h
887 06-08-2020 22:00:00 21.95 C 11.93 g/m*3 21.95 C 1.2 km/h
888 06-08-2020 23:00:00 20.35 C 11.76 g/m*3 20.35 C 0 km/h
889 07-08-2020 00:00:00 18.86667 C 11.56 g/m*3 18.87 C 0 km/h
890 07-08-2020 01:00:00 17.7 C 11.39 g/m*3 17.7 C 0 km/h
891 07-08-2020 02:00:00 16.95833 C 11.32 g/m*3 16.96 C 0 km/h
892 07-08-2020 03:00:00 16.225 C 11.19 g/m*3 16.23 C 0 km/h
893 07-08-2020 04:00:00 15.48333 C 11.05 g/m*3 15.48 C 0 km/h
894 07-08-2020 05:00:00 14.75833 C 10.87 g/m*3 14.76 C 0 km/h
895 07-08-2020 06:00:00 14.43333 C 10.92 g/m*3 14.43 C 0 km/h
896 07-08-2020 07:00:00 14.76667 C 11.18 g/m*3 14.77 C 0 km/h
897 07-08-2020 08:00:00 15.475 C 11.67 g/m*3 15.48 C 0 km/h
898 07-08-2020 09:00:00 17.13333 C 12.58 g/m*3 17.13 C 0 km/h
899 07-08-2020 10:00:00 19.925 C 13.29 g/m*3 19.93 C 0 km/h
900 07-08-2020 11:00:00 24.90833 C 13.28 g/m*3 24.91 C 0.13333 km/h
Sensor: Nr:Datum:Temp:Abs-Feuchte:Windchill:Wind:
Aussen-T/F 901 07-08-2020 12:00:00 28.75833 C 11.81 g/m*3 28.76 C 6.7 km/h
902 07-08-2020 13:00:00 30.26667 C 11.25 g/m*3 30.27 C 9.14167 km/h
903 07-08-2020 14:00:00 31.65833 C 11.19 g/m*3 31.66 C 9.39167 km/h
904 07-08-2020 15:00:00 32.99167 C 11.3 g/m*3 32.99 C 11.95833 km/h
905 07-08-2020 16:00:00 34.60833 C 11.39 g/m*3 34.61 C 11.16667 km/h
906 07-08-2020 17:00:00 34.99167 C 11.1 g/m*3 34.99 C 12.63333 km/h
907 07-08-2020 18:00:00 35.4 C 10.9 g/m*3 35.4 C 9.80833 km/h
908 07-08-2020 19:00:00 34.58333 C 11.96 g/m*3 34.58 C 4.025 km/h
909 07-08-2020 20:00:00 31.36667 C 12.92 g/m*3 31.37 C 4.13333 km/h
910 07-08-2020 21:00:00 27.05 C 12.17 g/m*3 27.05 C 6.45 km/h
911 07-08-2020 22:00:00 24.48333 C 12.63 g/m*3 24.48 C 0.93333 km/h
912 07-08-2020 23:00:00 22.61667 C 12.58 g/m*3 22.62 C 0 km/h
913 08-08-2020 00:00:00 21.14167 C 12.53 g/m*3 21.14 C 0 km/h
914 08-08-2020 01:00:00 20.04167 C 12.46 g/m*3 20.04 C 0 km/h
915 08-08-2020 02:00:00 19.19167 C 12.39 g/m*3 19.19 C 0 km/h
916 08-08-2020 03:00:00 18.58333 C 12.3 g/m*3 18.58 C 0 km/h
917 08-08-2020 04:00:00 17.83333 C 12.19 g/m*3 17.83 C 0 km/h
918 08-08-2020 05:00:00 17.36667 C 12.13 g/m*3 17.37 C 0 km/h
919 08-08-2020 06:00:00 17.025 C 12.16 g/m*3 17.02 C 0 km/h
920 08-08-2020 07:00:00 17.41667 C 12.61 g/m*3 17.42 C 0 km/h
921 08-08-2020 08:00:00 18.48333 C 13.32 g/m*3 18.48 C 0 km/h
922 08-08-2020 09:00:00 20.175 C 14.14 g/m*3 20.18 C 0 km/h
923 08-08-2020 10:00:00 22.85 C 14.49 g/m*3 22.85 C 0 km/h
924 08-08-2020 11:00:00 27.075 C 15.44 g/m*3 27.08 C 0 km/h
925 08-08-2020 12:00:00 30.46667 C 15.29 g/m*3 30.47 C 0 km/h
Sensor: Nr:Datum:Temp:Abs-Feuchte:Windchill:Wind:
Aussen-T/F 926 08-08-2020 13:00:00 32.61667 C 14.07 g/m*3 32.62 C 8.6 km/h
927 08-08-2020 14:00:00 33.7 C 13.45 g/m*3 33.7 C 8.75833 km/h
928 08-08-2020 15:00:00 34.825 C 13.22 g/m*3 34.83 C 8.34167 km/h
929 08-08-2020 16:00:00 36.80833 C 13.06 g/m*3 36.81 C 7.375 km/h
930 08-08-2020 17:00:00 37.90833 C 12.09 g/m*3 37.91 C 6.425 km/h
931 08-08-2020 18:00:00 37.19167 C 11.88 g/m*3 37.19 C 7.125 km/h
932 08-08-2020 19:00:00 36.44167 C 13.28 g/m*3 36.44 C 4.01667 km/h
933 08-08-2020 20:00:00 31.76667 C 13.42 g/m*3 31.77 C 5.475 km/h
934 08-08-2020 21:00:00 27.80833 C 13.14 g/m*3 27.81 C 5.60833 km/h
935 08-08-2020 22:00:00 26.21667 C 13.22 g/m*3 26.22 C 2.53333 km/h
936 08-08-2020 23:00:00 24.21667 C 13.27 g/m*3 24.22 C 0 km/h
937 09-08-2020 00:00:00 23.01667 C 13.39 g/m*3 23.02 C 0 km/h
938 09-08-2020 01:00:00 22 C 13.31 g/m*3 22 C 0 km/h
939 09-08-2020 02:00:00 20.875 C 13.11 g/m*3 20.88 C 0 km/h
940 09-08-2020 03:00:00 19.925 C 12.89 g/m*3 19.93 C 0 km/h
941 09-08-2020 04:00:00 19.375 C 12.86 g/m*3 19.38 C 0 km/h
942 09-08-2020 05:00:00 18.775 C 12.77 g/m*3 18.77 C 0 km/h
943 09-08-2020 06:00:00 18.54167 C 12.86 g/m*3 18.54 C 0 km/h
944 09-08-2020 07:00:00 18.96667 C 13.38 g/m*3 18.97 C 0 km/h
945 09-08-2020 08:00:00 19.76667 C 13.89 g/m*3 19.77 C 0 km/h
946 09-08-2020 09:00:00 21.375 C 14.73 g/m*3 21.38 C 0 km/h
947 09-08-2020 10:00:00 24.14167 C 14.73 g/m*3 24.14 C 0 km/h
948 09-08-2020 11:00:00 28.25 C 14.73 g/m*3 28.25 C 0 km/h
949 09-08-2020 12:00:00 32.01667 C 13.66 g/m*3 32.02 C 2.81667 km/h
950 09-08-2020 13:00:00 33.56667 C 12.93 g/m*3 33.57 C 5.61667 km/h
Sensor: Nr:Datum:Temp:Abs-Feuchte:Windchill:Wind:
Aussen-T/F 951 09-08-2020 14:00:00 34.46667 C 13.14 g/m*3 34.47 C 6.70833 km/h
952 09-08-2020 15:00:00 31.25 C 16.33 g/m*3 31.25 C 6.96667 km/h
953 09-08-2020 16:00:00 28.85 C 14.39 g/m*3 28.85 C 4.95 km/h
954 09-08-2020 17:00:00 28.025 C 14.52 g/m*3 28.03 C 3.075 km/h
955 09-08-2020 18:00:00 27.50833 C 14.38 g/m*3 27.51 C 3.86667 km/h
956 09-08-2020 19:00:00 26.88333 C 15.77 g/m*3 26.88 C 3.20833 km/h
957 09-08-2020 20:00:00 24.6 C 15.87 g/m*3 24.6 C 7.50833 km/h
958 09-08-2020 21:00:00 21.11667 C 15.92 g/m*3 21.12 C 6.15833 km/h
959 09-08-2020 22:00:00 20.66667 C 16.32 g/m*3 20.67 C 3.875 km/h
960 09-08-2020 23:00:00 20.66667 C 16.13 g/m*3 20.67 C 1.2 km/h
961 10-08-2020 00:00:00 19.74167 C 15.22 g/m*3 19.74 C 0.26667 km/h
962 10-08-2020 01:00:00 19.94167 C 15.54 g/m*3 19.94 C 6.16667 km/h
963 10-08-2020 02:00:00 20.61667 C 15.63 g/m*3 20.62 C 1.33333 km/h
964 10-08-2020 03:00:00 20.19167 C 15.41 g/m*3 20.19 C 1.46667 km/h
965 10-08-2020 04:00:00 19.55 C 15.06 g/m*3 19.55 C 0.26667 km/h
966 10-08-2020 05:00:00 19.80833 C 15.38 g/m*3 19.81 C 0.26667 km/h
967 10-08-2020 06:00:00 19.39167 C 15.04 g/m*3 19.39 C 0 km/h
968 10-08-2020 07:00:00 19.48333 C 15.38 g/m*3 19.48 C 0.13333 km/h
969 10-08-2020 08:00:00 20.59167 C 16.1 g/m*3 20.59 C 0.4 km/h
970 10-08-2020 09:00:00 23.175 C 16.47 g/m*3 23.18 C 6.175 km/h
971 10-08-2020 10:00:00 25.19167 C 16.09 g/m*3 25.19 C 7.11667 km/h
972 10-08-2020 11:00:00 26.81667 C 15.69 g/m*3 26.82 C 11.3 km/h
973 10-08-2020 12:00:00 27.4 C 15.81 g/m*3 27.4 C 11.15833 km/h
974 10-08-2020 13:00:00 29.275 C 16.01 g/m*3 29.28 C 13.7 km/h
975 10-08-2020 14:00:00 31.04167 C 15.98 g/m*3 31.04 C 12.63333 km/h
Sensor: Nr:Datum:Temp:Abs-Feuchte:Windchill:Wind:
Aussen-T/F 976 10-08-2020 15:00:00 32.54167 C 15.87 g/m*3 32.54 C 13.43333 km/h
977 10-08-2020 16:00:00 33.825 C 14.13 g/m*3 33.83 C 11.41667 km/h
978 10-08-2020 17:00:00 34.40833 C 13.99 g/m*3 34.41 C 10.89167 km/h
979 10-08-2020 18:00:00 33.76667 C 14.73 g/m*3 33.77 C 8.875 km/h
980 10-08-2020 19:00:00 32.325 C 16.34 g/m*3 32.33 C 1.6 km/h
981 10-08-2020 20:00:00 29.50833 C 16.29 g/m*3 29.51 C 1.46667 km/h
982 10-08-2020 21:00:00 26.48333 C 15.88 g/m*3 26.48 C 2.4 km/h
983 10-08-2020 22:00:00 26.375 C 15.43 g/m*3 26.38 C 2.675 km/h
984 10-08-2020 23:00:00 24.98333 C 15.39 g/m*3 24.98 C 2.53333 km/h
985 11-08-2020 00:00:00 23.59167 C 15.43 g/m*3 23.59 C 1.86667 km/h
986 11-08-2020 01:00:00 22.78333 C 15.41 g/m*3 22.78 C 1.6 km/h
987 11-08-2020 02:00:00 22.04167 C 15.26 g/m*3 22.04 C 2.53333 km/h
988 11-08-2020 03:00:00 21.56667 C 15.03 g/m*3 21.57 C 2.8 km/h
989 11-08-2020 04:00:00 20.99167 C 14.83 g/m*3 20.99 C 0.13333 km/h
990 11-08-2020 05:00:00 20.6 C 14.68 g/m*3 20.6 C 0 km/h
991 11-08-2020 06:00:00 20.11667 C 14.41 g/m*3 20.12 C 0 km/h
992 11-08-2020 07:00:00 20.30833 C 14.88 g/m*3 20.31 C 0 km/h
993 11-08-2020 08:00:00 21.775 C 15.53 g/m*3 21.78 C 0.66667 km/h
994 11-08-2020 09:00:00 23.60833 C 15.59 g/m*3 23.61 C 0.53333 km/h
995 11-08-2020 10:00:00 25.6 C 16.03 g/m*3 25.6 C 5.65 km/h
996 11-08-2020 11:00:00 28.30833 C 16.2 g/m*3 28.31 C 10.75833 km/h
997 11-08-2020 12:00:00 29.675 C 16.41 g/m*3 29.68 C 4.54167 km/h
998 11-08-2020 13:00:00 30.40833 C 16.66 g/m*3 30.41 C 2.4 km/h
999 11-08-2020 14:00:00 32.28333 C 15.68 g/m*3 32.28 C 7.525 km/h
1000 11-08-2020 15:00:00 33.4 C 14.75 g/m*3 33.4 C 7.51667 km/h
Sensor: Nr:Datum:Temp:Abs-Feuchte:Windchill:Wind:
Aussen-T/F 1001 11-08-2020 16:00:00 35.275 C 13.97 g/m*3 35.28 C 10.61667 km/h
1002 11-08-2020 17:00:00 34.475 C 13.94 g/m*3 34.48 C 8.86667 km/h
1003 11-08-2020 18:00:00 32.14167 C 14.2 g/m*3 32.14 C 6.15833 km/h
1004 11-08-2020 19:00:00 29.80833 C 15.88 g/m*3 29.81 C 5.75833 km/h
1005 11-08-2020 20:00:00 24.85 C 17.71 g/m*3 24.85 C 8.45833 km/h
1006 11-08-2020 21:00:00 22.13333 C 17.88 g/m*3 22.13 C 8.325 km/h
1007 11-08-2020 22:00:00 21.525 C 17.63 g/m*3 21.53 C 6.30833 km/h
1008 11-08-2020 23:00:00 21.30833 C 17.69 g/m*3 21.31 C 5.08333 km/h
1009 12-08-2020 00:00:00 21.13333 C 17.54 g/m*3 21.13 C 4.4 km/h
1010 12-08-2020 01:00:00 20.75 C 17.2 g/m*3 20.75 C 2 km/h
1011 12-08-2020 02:00:00 20.59167 C 17.17 g/m*3 20.59 C 0.66667 km/h
1012 12-08-2020 03:00:00 20.33333 C 16.92 g/m*3 20.33 C 0 km/h
1013 12-08-2020 04:00:00 19.825 C 16.42 g/m*3 19.83 C 0 km/h
1014 12-08-2020 05:00:00 19.66667 C 16.31 g/m*3 19.67 C 1.2 km/h
1015 12-08-2020 06:00:00 19.425 C 16.17 g/m*3 19.43 C 2.4 km/h
1016 12-08-2020 07:00:00 19.75833 C 16.53 g/m*3 19.76 C 0 km/h
1017 12-08-2020 08:00:00 20.48333 C 17.26 g/m*3 20.48 C 0 km/h
1018 12-08-2020 09:00:00 20.70833 C 17.49 g/m*3 20.71 C 0 km/h
1019 12-08-2020 10:00:00 21.23333 C 18.01 g/m*3 21.23 C 2.69167 km/h
1020 12-08-2020 11:00:00 24.20833 C 17.69 g/m*3 24.21 C 10.61667 km/h
1021 12-08-2020 12:00:00 27.01667 C 17.37 g/m*3 27.02 C 10.1 km/h
1022 12-08-2020 13:00:00 29.01667 C 17.56 g/m*3 29.02 C 11.81667 km/h
1023 12-08-2020 14:00:00 30.84167 C 17.56 g/m*3 30.84 C 9.275 km/h
1024 12-08-2020 15:00:00 33.1 C 16.43 g/m*3 33.1 C 8.05 km/h
1025 12-08-2020 16:00:00 34.81667 C 16.02 g/m*3 34.82 C 10.08333 km/h
Sensor: Nr:Datum:Temp:Abs-Feuchte:Windchill:Wind:
Aussen-T/F 1026 12-08-2020 17:00:00 31.975 C 18.49 g/m*3 31.98 C 6.69167 km/h
1027 12-08-2020 18:00:00 27.06667 C 15.52 g/m*3 27.07 C 11.94167 km/h
1028 12-08-2020 19:00:00 23.43333 C 17.5 g/m*3 23.43 C 5.08333 km/h
1029 12-08-2020 20:00:00 21.38333 C 17.11 g/m*3 21.38 C 0.66667 km/h
1030 12-08-2020 21:00:00 20.73333 C 16.83 g/m*3 20.73 C 0.93333 km/h
1031 12-08-2020 22:00:00 20.45 C 16.68 g/m*3 20.45 C 4.54167 km/h
1032 12-08-2020 23:00:00 19.84167 C 16.07 g/m*3 19.84 C 1.73333 km/h
1033 13-08-2020 00:00:00 19.925 C 16.3 g/m*3 19.93 C 0.93333 km/h
1034 13-08-2020 01:00:00 19.75833 C 16.09 g/m*3 19.76 C 0.66667 km/h
1035 13-08-2020 02:00:00 19.38333 C 15.68 g/m*3 19.38 C 2.66667 km/h
1036 13-08-2020 03:00:00 19.025 C 15.5 g/m*3 19.02 C 0.53333 km/h
1037 13-08-2020 04:00:00 18.99167 C 15.53 g/m*3 18.99 C 1.075 km/h
1038 13-08-2020 05:00:00 19.775 C 16.37 g/m*3 19.77 C 6.16667 km/h
1039 13-08-2020 06:00:00 19.83333 C 16.43 g/m*3 19.83 C 4.14167 km/h
1040 13-08-2020 07:00:00 19.65833 C 16.29 g/m*3 19.66 C 2 km/h
1041 13-08-2020 08:00:00 19.80833 C 16.58 g/m*3 19.81 C 1.06667 km/h
1042 13-08-2020 09:00:00 20.525 C 17.29 g/m*3 20.53 C 0 km/h
1043 13-08-2020 10:00:00 21.64167 C 18.44 g/m*3 21.64 C 0.4 km/h
1044 13-08-2020 11:00:00 23.025 C 19.91 g/m*3 23.03 C 2 km/h
1045 13-08-2020 12:00:00 25.13333 C 19.48 g/m*3 25.13 C 5.49167 km/h
1046 13-08-2020 13:00:00 27.83333 C 19.04 g/m*3 27.83 C 8.33333 km/h
1047 13-08-2020 14:00:00 29.725 C 16.98 g/m*3 29.73 C 13.025 km/h
1048 13-08-2020 15:00:00 29.45833 C 15.48 g/m*3 29.46 C 15.7 km/h
1049 13-08-2020 16:00:00 28.44167 C 15.69 g/m*3 28.44 C 11.01667 km/h
1050 13-08-2020 17:00:00 28.45833 C 16.5 g/m*3 28.46 C 5.89167 km/h
Sensor: Nr:Datum:Temp:Abs-Feuchte:Windchill:Wind:
Aussen-T/F 1051 13-08-2020 18:00:00 28.85833 C 17.5 g/m*3 28.86 C 2.54167 km/h
1052 13-08-2020 19:00:00 27.60833 C 18.67 g/m*3 27.61 C 0.66667 km/h
1053 13-08-2020 20:00:00 25.25833 C 17.98 g/m*3 25.26 C 2.8 km/h
1054 13-08-2020 21:00:00 22.86667 C 16.95 g/m*3 22.87 C 6.43333 km/h
1055 13-08-2020 22:00:00 22.6 C 16.86 g/m*3 22.6 C 4.28333 km/h
1056 13-08-2020 23:00:00 22.61667 C 16.76 g/m*3 22.62 C 0.26667 km/h
1057 14-08-2020 00:00:00 22.15 C 16.57 g/m*3 22.15 C 1.2 km/h
1058 14-08-2020 01:00:00 21.7 C 16.44 g/m*3 21.7 C 1.86667 km/h
1059 14-08-2020 02:00:00 21.09167 C 16.02 g/m*3 21.09 C 1.2 km/h
1060 14-08-2020 03:00:00 20.03333 C 15.43 g/m*3 20.03 C 0 km/h
1061 14-08-2020 04:00:00 19.26667 C 14.95 g/m*3 19.27 C 0.93333 km/h
1062 14-08-2020 05:00:00 18.74167 C 14.78 g/m*3 18.74 C 0.66667 km/h
1063 14-08-2020 06:00:00 18.74167 C 14.89 g/m*3 18.74 C 0.53333 km/h
1064 14-08-2020 07:00:00 18.95 C 14.98 g/m*3 18.95 C 0.26667 km/h
1065 14-08-2020 08:00:00 19.95833 C 15.66 g/m*3 19.96 C 0 km/h
1066 14-08-2020 09:00:00 21.06667 C 15.94 g/m*3 21.07 C 3.89167 km/h
1067 14-08-2020 10:00:00 22.61667 C 15.72 g/m*3 22.62 C 10.35833 km/h
1068 14-08-2020 11:00:00 22.3 C 15.67 g/m*3 22.3 C 7.78333 km/h
1069 14-08-2020 12:00:00 22.33333 C 15.65 g/m*3 22.33 C 6.70833 km/h
1070 14-08-2020 13:00:00 23.25833 C 16.06 g/m*3 23.26 C 8.88333 km/h
1071 14-08-2020 14:00:00 25.225 C 16.42 g/m*3 25.23 C 12.9 km/h
1072 14-08-2020 15:00:00 27.36667 C 16.02 g/m*3 27.37 C 11.43333 km/h
1073 14-08-2020 16:00:00 29.175 C 15.01 g/m*3 29.18 C 14.36667 km/h
1074 14-08-2020 17:00:00 30.06667 C 15.06 g/m*3 30.07 C 10.49167 km/h
1075 14-08-2020 18:00:00 30.35833 C 15.23 g/m*3 30.36 C 11.43333 km/h
Sensor: Nr:Datum:Temp:Abs-Feuchte:Windchill:Wind:
Aussen-T/F 1076 14-08-2020 19:00:00 28.625 C 15.92 g/m*3 28.63 C 5.5 km/h
1077 14-08-2020 20:00:00 26.15 C 15.94 g/m*3 26.15 C 2.94167 km/h
1078 14-08-2020 21:00:00 23.05833 C 16.1 g/m*3 23.06 C 4.55 km/h
1079 14-08-2020 22:00:00 22.05 C 15.83 g/m*3 22.05 C 0 km/h
1080 14-08-2020 23:00:00 21.625 C 15.72 g/m*3 21.63 C 0.53333 km/h
1081 15-08-2020 00:00:00 21.30833 C 15.82 g/m*3 21.31 C 1.73333 km/h
1082 15-08-2020 01:00:00 20.91667 C 15.78 g/m*3 20.92 C 0.26667 km/h
1083 15-08-2020 02:00:00 20.15 C 15.28 g/m*3 20.15 C 1.33333 km/h
1084 15-08-2020 03:00:00 19.4 C 15.07 g/m*3 19.4 C 0.13333 km/h
1085 15-08-2020 04:00:00 18.70833 C 14.79 g/m*3 18.71 C 0 km/h
1086 15-08-2020 05:00:00 18.30833 C 14.65 g/m*3 18.31 C 0 km/h
1087 15-08-2020 06:00:00 18.28333 C 14.72 g/m*3 18.28 C 0 km/h
1088 15-08-2020 07:00:00 18.56667 C 15.08 g/m*3 18.57 C 0 km/h
1089 15-08-2020 08:00:00 19.5 C 15.79 g/m*3 19.5 C 0 km/h
1090 15-08-2020 09:00:00 20.65833 C 16.21 g/m*3 20.66 C 0.53333 km/h
1091 15-08-2020 10:00:00 22.24167 C 16.74 g/m*3 22.24 C 3.73333 km/h
1092 15-08-2020 11:00:00 23.94167 C 17.11 g/m*3 23.94 C 4.15 km/h
1093 15-08-2020 12:00:00 25.04167 C 16.98 g/m*3 25.04 C 6.43333 km/h
1094 15-08-2020 13:00:00 25.825 C 16.63 g/m*3 25.83 C 5.91667 km/h
1095 15-08-2020 14:00:00 26.01667 C 16.04 g/m*3 26.02 C 8.59167 km/h
1096 15-08-2020 15:00:00 24.44167 C 15.48 g/m*3 24.44 C 2.94167 km/h
1097 15-08-2020 16:00:00 23.025 C 16.98 g/m*3 23.03 C 4.68333 km/h
1098 15-08-2020 17:00:00 23.55 C 17.43 g/m*3 23.55 C 4.00833 km/h
1099 15-08-2020 18:00:00 23.98333 C 17.48 g/m*3 23.98 C 0 km/h
1100 15-08-2020 19:00:00 23.4 C 17.7 g/m*3 23.4 C 0.26667 km/h
Sensor: Nr:Datum:Temp:Abs-Feuchte:Windchill:Wind:
Aussen-T/F 1101 15-08-2020 20:00:00 23.175 C 17.61 g/m*3 23.18 C 0.26667 km/h
1102 15-08-2020 21:00:00 21.99167 C 16.63 g/m*3 21.99 C 0 km/h
1103 15-08-2020 22:00:00 21.13333 C 16.48 g/m*3 21.13 C 0 km/h
1104 15-08-2020 23:00:00 20.44167 C 16.11 g/m*3 20.44 C 0 km/h
1105 16-08-2020 00:00:00 19.65 C 15.62 g/m*3 19.65 C 0.13333 km/h
1106 16-08-2020 01:00:00 19.175 C 15.35 g/m*3 19.18 C 0.26667 km/h
1107 16-08-2020 02:00:00 18.875 C 15.21 g/m*3 18.88 C 0.53333 km/h
1108 16-08-2020 03:00:00 18.43333 C 14.83 g/m*3 18.43 C 0 km/h
1109 16-08-2020 04:00:00 18.13333 C 14.68 g/m*3 18.13 C 0 km/h
1110 16-08-2020 05:00:00 17.9 C 14.5 g/m*3 17.9 C 0 km/h
1111 16-08-2020 06:00:00 17.45833 C 14.18 g/m*3 17.46 C 0 km/h
1112 16-08-2020 07:00:00 17.59167 C 14.39 g/m*3 17.59 C 0 km/h
1113 16-08-2020 08:00:00 18.44167 C 15.27 g/m*3 18.44 C 0.4 km/h
1114 16-08-2020 09:00:00 19.525 C 16.16 g/m*3 19.52 C 2.94167 km/h
1115 16-08-2020 10:00:00 22.6 C 16.71 g/m*3 22.6 C 7.8 km/h
1116 16-08-2020 11:00:00 25.84167 C 16.61 g/m*3 25.84 C 9.68333 km/h
1117 16-08-2020 12:00:00 27.64167 C 16.38 g/m*3 27.64 C 9.26667 km/h
1118 16-08-2020 13:00:00 28.5 C 16.33 g/m*3 28.5 C 7.26667 km/h
1119 16-08-2020 14:00:00 29.825 C 15.29 g/m*3 29.83 C 11.83333 km/h
1120 16-08-2020 15:00:00 30.73333 C 14.75 g/m*3 30.73 C 9.80833 km/h
1121 16-08-2020 16:00:00 31.375 C 14.8 g/m*3 31.38 C 8.875 km/h
1122 16-08-2020 17:00:00 28.84167 C 15.92 g/m*3 28.84 C 3.08333 km/h
1123 16-08-2020 18:00:00 27.45833 C 15.57 g/m*3 27.46 C 7.10833 km/h
1124 16-08-2020 19:00:00 24.15 C 16.55 g/m*3 24.15 C 6.025 km/h
1125 16-08-2020 20:00:00 21.40833 C 15.83 g/m*3 21.41 C 9.54167 km/h
Sensor: Nr:Datum:Temp:Abs-Feuchte:Windchill:Wind:
Aussen-T/F 1126 16-08-2020 21:00:00 19.51667 C 15.44 g/m*3 19.52 C 5.09167 km/h
1127 16-08-2020 22:00:00 19.25833 C 15.55 g/m*3 19.26 C 4.55 km/h
1128 16-08-2020 23:00:00 18.275 C 14.74 g/m*3 18.27 C 4.68333 km/h
1129 17-08-2020 00:00:00 18.54167 C 15.21 g/m*3 18.54 C 5.35833 km/h
1130 17-08-2020 01:00:00 18.35 C 15.05 g/m*3 18.35 C 3.06667 km/h
1131 17-08-2020 02:00:00 18.075 C 14.81 g/m*3 18.08 C 3.06667 km/h
1132 17-08-2020 03:00:00 18.25 C 15.11 g/m*3 18.25 C 6.56667 km/h
1133 17-08-2020 04:00:00 17.875 C 14.66 g/m*3 17.88 C 3.2 km/h
1134 17-08-2020 05:00:00 17.46667 C 14.41 g/m*3 17.47 C 2 km/h
1135 17-08-2020 06:00:00 17.475 C 14.44 g/m*3 17.48 C 2.53333 km/h
1136 17-08-2020 07:00:00 17.475 C 14.44 g/m*3 17.48 C 0.93333 km/h
1137 17-08-2020 08:00:00 18.1 C 14.99 g/m*3 18.1 C 1.33333 km/h
1138 17-08-2020 09:00:00 18.86667 C 15.68 g/m*3 18.87 C 0.4 km/h
1139 17-08-2020 10:00:00 19.35833 C 15.95 g/m*3 19.36 C 5.36667 km/h
1140 17-08-2020 11:00:00 20.78333 C 16.34 g/m*3 20.78 C 7.80833 km/h
1141 17-08-2020 12:00:00 22.04167 C 16.49 g/m*3 22.04 C 7.25 km/h
1142 17-08-2020 13:00:00 23.35833 C 16.42 g/m*3 23.36 C 5.50833 km/h
1143 17-08-2020 14:00:00 24.475 C 15.51 g/m*3 24.48 C 12.63333 km/h
1144 17-08-2020 15:00:00 25.58333 C 14.95 g/m*3 25.58 C 9.68333 km/h
1145 17-08-2020 16:00:00 26.91667 C 14.26 g/m*3 26.92 C 10.35833 km/h
1146 17-08-2020 17:00:00 27.93333 C 13.48 g/m*3 27.93 C 9.68333 km/h
1147 17-08-2020 18:00:00 26.65833 C 13.09 g/m*3 26.66 C 8.46667 km/h
1148 17-08-2020 19:00:00 26.44167 C 12.93 g/m*3 26.44 C 9.26667 km/h
1149 17-08-2020 20:00:00 22.925 C 13.87 g/m*3 22.93 C 7.4 km/h
1150 17-08-2020 21:00:00 20.08333 C 13.79 g/m*3 20.08 C 4.54167 km/h
Sensor: Nr:Datum:Temp:Abs-Feuchte:Windchill:Wind:
Aussen-T/F 1151 17-08-2020 22:00:00 19.61667 C 13.74 g/m*3 19.62 C 2.13333 km/h
1152 17-08-2020 23:00:00 19.28333 C 13.59 g/m*3 19.28 C 2.66667 km/h
1153 18-08-2020 00:00:00 18.95833 C 13.48 g/m*3 18.96 C 1.33333 km/h
1154 18-08-2020 01:00:00 18.40833 C 13.47 g/m*3 18.41 C 0.26667 km/h
1155 18-08-2020 02:00:00 18.2 C 13.37 g/m*3 18.2 C 1.46667 km/h
1156 18-08-2020 03:00:00 17.60833 C 12.79 g/m*3 17.61 C 2.53333 km/h
1157 18-08-2020 04:00:00 16.76667 C 12.51 g/m*3 16.77 C 0.26667 km/h
1158 18-08-2020 05:00:00 16.59167 C 12.61 g/m*3 16.59 C 2.13333 km/h
1159 18-08-2020 06:00:00 16.46667 C 12.44 g/m*3 16.47 C 3.20833 km/h
1160 18-08-2020 07:00:00 17.53333 C 12.7 g/m*3 17.53 C 5.60833 km/h
1161 18-08-2020 08:00:00 17.85833 C 12.98 g/m*3 17.86 C 9.14167 km/h
1162 18-08-2020 09:00:00 18.75 C 13.3 g/m*3 18.75 C 9.01667 km/h
1163 18-08-2020 10:00:00 20.00833 C 13.76 g/m*3 20.01 C 6.575 km/h
1164 18-08-2020 11:00:00 21.50833 C 13.58 g/m*3 21.51 C 7.11667 km/h
1165 18-08-2020 12:00:00 22.79167 C 13.13 g/m*3 22.79 C 9.28333 km/h
1166 18-08-2020 13:00:00 23.54167 C 13.14 g/m*3 23.54 C 8.46667 km/h
1167 18-08-2020 14:00:00 24.625 C 12.96 g/m*3 24.63 C 8.475 km/h
1168 18-08-2020 15:00:00 23.91667 C 12.63 g/m*3 23.92 C 12.225 km/h
1169 18-08-2020 16:00:00 22.36667 C 12.31 g/m*3 22.37 C 8.46667 km/h
1170 18-08-2020 17:00:00 18.9 C 14.7 g/m*3 18.9 C 4.56667 km/h
1171 18-08-2020 18:00:00 19.48333 C 15.41 g/m*3 19.48 C 6.15833 km/h
1172 18-08-2020 19:00:00 18.30833 C 14.5 g/m*3 18.31 C 7.25 km/h
1173 18-08-2020 20:00:00 17.775 C 14.25 g/m*3 17.77 C 6.425 km/h
1174 18-08-2020 21:00:00 16.71667 C 13.42 g/m*3 16.72 C 6.425 km/h
1175 18-08-2020 22:00:00 15.98333 C 12.92 g/m*3 15.98 C 2.8 km/h
Sensor: Nr:Datum:Temp:Abs-Feuchte:Windchill:Wind:
Aussen-T/F 1176 18-08-2020 23:00:00 15.075 C 12.24 g/m*3 15.08 C 1.6 km/h
1177 19-08-2020 00:00:00 14.8 C 12.13 g/m*3 14.8 C 0.8 km/h
1178 19-08-2020 01:00:00 14.44167 C 11.9 g/m*3 14.44 C 0 km/h
1179 19-08-2020 02:00:00 14.05833 C 11.62 g/m*3 14.06 C 0 km/h
1180 19-08-2020 03:00:00 13.75833 C 11.42 g/m*3 13.76 C 0.26667 km/h
1181 19-08-2020 04:00:00 13.4 C 11.22 g/m*3 13.4 C 0.13333 km/h
1182 19-08-2020 05:00:00 13.10833 C 11.05 g/m*3 13.11 C 0.13333 km/h
1183 19-08-2020 06:00:00 13.15833 C 11.11 g/m*3 13.16 C 0 km/h
1184 19-08-2020 07:00:00 13.925 C 11.65 g/m*3 13.93 C 0 km/h
1185 19-08-2020 08:00:00 14.45 C 12.03 g/m*3 14.45 C 0.8 km/h
1186 19-08-2020 09:00:00 15.1 C 12.57 g/m*3 15.1 C 0.8 km/h
1187 19-08-2020 10:00:00 16.01667 C 13.31 g/m*3 16.02 C 0 km/h
1188 19-08-2020 11:00:00 18.15833 C 15.16 g/m*3 18.16 C 0 km/h
1189 19-08-2020 12:00:00 20.175 C 16.3 g/m*3 20.18 C 2.53333 km/h
1190 19-08-2020 13:00:00 22.71667 C 14.95 g/m*3 22.72 C 2.8 km/h
1191 19-08-2020 14:00:00 25.425 C 14.11 g/m*3 25.43 C 3.08333 km/h
1192 19-08-2020 15:00:00 25.95 C 14.18 g/m*3 25.95 C 6.45 km/h
1193 19-08-2020 16:00:00 26.85 C 14.72 g/m*3 26.85 C 4.01667 km/h
1194 19-08-2020 17:00:00 28.43333 C 13.65 g/m*3 28.43 C 9.01667 km/h
1195 19-08-2020 18:00:00 28.24167 C 13.62 g/m*3 28.24 C 7.54167 km/h
1196 19-08-2020 19:00:00 24.36667 C 14.99 g/m*3 24.37 C 2.4 km/h
1197 19-08-2020 20:00:00 21.74167 C 14.34 g/m*3 21.74 C 6.95833 km/h
1198 19-08-2020 21:00:00 20.45833 C 13.85 g/m*3 20.46 C 5.46667 km/h
1199 19-08-2020 22:00:00 20.175 C 14.24 g/m*3 20.18 C 4.53333 km/h
1200 19-08-2020 23:00:00 20.24167 C 14.47 g/m*3 20.24 C 4.66667 km/h
Sensor: Nr:Datum:Temp:Abs-Feuchte:Windchill:Wind:
Aussen-T/F 1201 20-08-2020 00:00:00 19.96667 C 14.65 g/m*3 19.97 C 2.53333 km/h
1202 20-08-2020 01:00:00 20.19167 C 14.62 g/m*3 20.19 C 2.8 km/h
1203 20-08-2020 02:00:00 19.86667 C 14.89 g/m*3 19.87 C 5.09167 km/h
1204 20-08-2020 03:00:00 19.05833 C 14.73 g/m*3 19.06 C 0.4 km/h
1205 20-08-2020 04:00:00 18.95 C 14.81 g/m*3 18.95 C 0.26667 km/h
1206 20-08-2020 05:00:00 18.85833 C 15.04 g/m*3 18.86 C 1.33333 km/h
1207 20-08-2020 06:00:00 18.675 C 15.12 g/m*3 18.68 C 0 km/h
1208 20-08-2020 07:00:00 18.61667 C 15.17 g/m*3 18.62 C 0 km/h
1209 20-08-2020 08:00:00 19.275 C 15.9 g/m*3 19.27 C 0.4 km/h
1210 20-08-2020 09:00:00 20.29167 C 16.89 g/m*3 20.29 C 1.60833 km/h
1211 20-08-2020 10:00:00 20.96667 C 17.37 g/m*3 20.97 C 0.4 km/h
1212 20-08-2020 11:00:00 22.30833 C 18.16 g/m*3 22.31 C 1.06667 km/h
1213 20-08-2020 12:00:00 24.73333 C 17.86 g/m*3 24.73 C 2.26667 km/h
1214 20-08-2020 13:00:00 26.49167 C 17.26 g/m*3 26.49 C 6.04167 km/h
1215 20-08-2020 14:00:00 28.64167 C 17.44 g/m*3 28.64 C 6.15833 km/h
1216 20-08-2020 15:00:00 30.34167 C 17.22 g/m*3 30.34 C 8.19167 km/h
1217 20-08-2020 16:00:00 31.66667 C 17.27 g/m*3 31.67 C 10.08333 km/h
1218 20-08-2020 17:00:00 32.56667 C 16.82 g/m*3 32.57 C 8.19167 km/h
1219 20-08-2020 18:00:00 33.33333 C 16.18 g/m*3 33.33 C 8.725 km/h
1220 20-08-2020 19:00:00 31.53333 C 17.84 g/m*3 31.53 C 4.55 km/h
1221 20-08-2020 20:00:00 26.125 C 17.1 g/m*3 26.13 C 2.54167 km/h
1222 20-08-2020 21:00:00 23.95 C 16.54 g/m*3 23.95 C 5.61667 km/h
1223 20-08-2020 22:00:00 23.26667 C 16.19 g/m*3 23.27 C 4.26667 km/h
1224 20-08-2020 23:00:00 22.975 C 15.94 g/m*3 22.98 C 4.66667 km/h
1225 21-08-2020 00:00:00 23.6 C 15.9 g/m*3 23.6 C 4.00833 km/h
Sensor: Nr:Datum:Temp:Abs-Feuchte:Windchill:Wind:
Aussen-T/F 1226 21-08-2020 01:00:00 23.625 C 15.99 g/m*3 23.63 C 4.41667 km/h
1227 21-08-2020 02:00:00 23.88333 C 15.89 g/m*3 23.88 C 3.48333 km/h
1228 21-08-2020 03:00:00 25.10833 C 15.61 g/m*3 25.11 C 4.28333 km/h
1229 21-08-2020 04:00:00 24.375 C 15.83 g/m*3 24.38 C 4.01667 km/h
1230 21-08-2020 05:00:00 23.05 C 15.97 g/m*3 23.05 C 3.73333 km/h
1231 21-08-2020 06:00:00 22.15833 C 15.82 g/m*3 22.16 C 2.4 km/h
1232 21-08-2020 07:00:00 22.29167 C 15.89 g/m*3 22.29 C 2.93333 km/h
1233 21-08-2020 08:00:00 23.50833 C 16.93 g/m*3 23.51 C 2.13333 km/h
1234 21-08-2020 09:00:00 24.94167 C 17.61 g/m*3 24.94 C 0.4 km/h
1235 21-08-2020 10:00:00 25.725 C 16.82 g/m*3 25.73 C 4.15833 km/h
1236 21-08-2020 11:00:00 26.54167 C 16.29 g/m*3 26.54 C 6.69167 km/h
1237 21-08-2020 12:00:00 26.55833 C 16.34 g/m*3 26.56 C 4.55 km/h
1238 21-08-2020 13:00:00 27.66667 C 16.31 g/m*3 27.67 C 8.325 km/h
1239 21-08-2020 14:00:00 27.625 C 17.49 g/m*3 27.63 C 3.21667 km/h
1240 21-08-2020 15:00:00 28.81667 C 16.56 g/m*3 28.82 C 4.55 km/h
1241 21-08-2020 16:00:00 28.69167 C 18.31 g/m*3 28.69 C 0.26667 km/h
1242 21-08-2020 17:00:00 27.175 C 19.06 g/m*3 27.18 C 0.26667 km/h
1243 21-08-2020 18:00:00 27.80833 C 17.74 g/m*3 27.81 C 6.18333 km/h
1244 21-08-2020 19:00:00 27.79167 C 16.8 g/m*3 27.79 C 3.89167 km/h
1245 21-08-2020 20:00:00 25.85 C 16.96 g/m*3 25.85 C 0.4 km/h
1246 21-08-2020 21:00:00 24.26667 C 16.18 g/m*3 24.27 C 0.66667 km/h
1247 21-08-2020 22:00:00 23.35 C 16.22 g/m*3 23.35 C 1.06667 km/h
1248 21-08-2020 23:00:00 22.25 C 16.1 g/m*3 22.25 C 0 km/h
1249 22-08-2020 00:00:00 21.8 C 16 g/m*3 21.8 C 0 km/h
1250 22-08-2020 01:00:00 21.65 C 15.88 g/m*3 21.65 C 0.8 km/h
Sensor: Nr:Datum:Temp:Abs-Feuchte:Windchill:Wind:
Aussen-T/F 1251 22-08-2020 02:00:00 21.43333 C 15.75 g/m*3 21.43 C 0.93333 km/h
1252 22-08-2020 03:00:00 21.28333 C 15.46 g/m*3 21.28 C 1.06667 km/h
1253 22-08-2020 04:00:00 20.675 C 15.08 g/m*3 20.68 C 1.2 km/h
1254 22-08-2020 05:00:00 20.525 C 15.21 g/m*3 20.53 C 1.86667 km/h
1255 22-08-2020 06:00:00 20.94167 C 15.46 g/m*3 20.94 C 6.29167 km/h
1256 22-08-2020 07:00:00 21.5 C 15.51 g/m*3 21.5 C 8.725 km/h
1257 22-08-2020 08:00:00 21.525 C 15.33 g/m*3 21.53 C 9.00833 km/h
1258 22-08-2020 09:00:00 21.70833 C 13.9 g/m*3 21.71 C 10.2 km/h
1259 22-08-2020 10:00:00 21.79167 C 12.99 g/m*3 21.79 C 12.76667 km/h
1260 22-08-2020 11:00:00 22.35 C 12.31 g/m*3 22.35 C 16.76667 km/h
1261 22-08-2020 12:00:00 23.175 C 11.97 g/m*3 23.18 C 18.63333 km/h
1262 22-08-2020 13:00:00 24.24167 C 11.78 g/m*3 24.24 C 17.96667 km/h
1263 22-08-2020 14:00:00 25.16667 C 11.62 g/m*3 25.17 C 17.025 km/h
1264 22-08-2020 15:00:00 25.38333 C 11.15 g/m*3 25.38 C 15.56667 km/h
1265 22-08-2020 16:00:00 26.63333 C 10.93 g/m*3 26.63 C 18.9 km/h
1266 22-08-2020 17:00:00 26.49167 C 10.8 g/m*3 26.49 C 16.5 km/h
1267 22-08-2020 18:00:00 25.15833 C 10.7 g/m*3 25.16 C 16.9 km/h
1268 22-08-2020 19:00:00 24.09167 C 10.99 g/m*3 24.09 C 9.01667 km/h
1269 22-08-2020 20:00:00 22.5 C 11.53 g/m*3 22.5 C 3.075 km/h
1270 22-08-2020 21:00:00 20.53333 C 11.65 g/m*3 20.53 C 0.53333 km/h
1271 22-08-2020 22:00:00 19.75833 C 11.88 g/m*3 19.76 C 0 km/h
1272 22-08-2020 23:00:00 18.63333 C 11.65 g/m*3 18.63 C 0 km/h
1273 23-08-2020 00:00:00 18.81667 C 11.74 g/m*3 18.82 C 0 km/h
1274 23-08-2020 01:00:00 18.90833 C 12.17 g/m*3 18.91 C 0 km/h
1275 23-08-2020 02:00:00 18.375 C 12.3 g/m*3 18.38 C 0 km/h
Sensor: Nr:Datum:Temp:Abs-Feuchte:Windchill:Wind:
Aussen-T/F 1276 23-08-2020 03:00:00 17.71667 C 12.09 g/m*3 17.72 C 0 km/h
1277 23-08-2020 04:00:00 17.26667 C 12.08 g/m*3 17.27 C 0 km/h
1278 23-08-2020 05:00:00 17.16667 C 11.97 g/m*3 17.17 C 0.4 km/h
1279 23-08-2020 06:00:00 16.93333 C 11.82 g/m*3 16.93 C 2.13333 km/h
1280 23-08-2020 07:00:00 16.49167 C 11.86 g/m*3 16.49 C 0.93333 km/h
1281 23-08-2020 08:00:00 18.025 C 12.46 g/m*3 18.02 C 2.53333 km/h
1282 23-08-2020 09:00:00 18.975 C 12.5 g/m*3 18.98 C 3.875 km/h
1283 23-08-2020 10:00:00 20.11667 C 11.86 g/m*3 20.12 C 11.29167 km/h
1284 23-08-2020 11:00:00 20.38333 C 10.96 g/m*3 20.38 C 15.16667 km/h
1285 23-08-2020 12:00:00 20.825 C 10.77 g/m*3 20.83 C 15.43333 km/h
1286 23-08-2020 13:00:00 21.175 C 9.96 g/m*3 21.18 C 15.03333 km/h
1287 23-08-2020 14:00:00 22.1 C 9.6 g/m*3 22.1 C 15.56667 km/h
1288 23-08-2020 15:00:00 22.2 C 9.8 g/m*3 22.2 C 15.83333 km/h
1289 23-08-2020 16:00:00 22.34167 C 9.78 g/m*3 22.34 C 13.56667 km/h
1290 23-08-2020 17:00:00 21.83333 C 10.03 g/m*3 21.83 C 13.15833 km/h
1291 23-08-2020 18:00:00 20.60833 C 10.76 g/m*3 20.61 C 15.7 km/h
1292 23-08-2020 19:00:00 18.925 C 11.53 g/m*3 18.93 C 12.36667 km/h
1293 23-08-2020 20:00:00 18.26667 C 11.6 g/m*3 18.27 C 10.35833 km/h
1294 23-08-2020 21:00:00 17.90833 C 11.51 g/m*3 17.91 C 11.43333 km/h
1295 23-08-2020 22:00:00 17.50833 C 11.47 g/m*3 17.51 C 10.20833 km/h
1296 23-08-2020 23:00:00 16.91667 C 11.4 g/m*3 16.92 C 7.10833 km/h
1297 24-08-2020 00:00:00 16.85833 C 11.33 g/m*3 16.86 C 4.55 km/h
1298 24-08-2020 01:00:00 16.425 C 11.36 g/m*3 16.43 C 2.53333 km/h
1299 24-08-2020 02:00:00 16.5 C 11.46 g/m*3 16.5 C 4.40833 km/h
1300 24-08-2020 03:00:00 16.41667 C 11.44 g/m*3 16.42 C 0.93333 km/h
Sensor: Nr:Datum:Temp:Abs-Feuchte:Windchill:Wind:
Aussen-T/F 1301 24-08-2020 04:00:00 16.275 C 11.39 g/m*3 16.27 C 3.74167 km/h
1302 24-08-2020 05:00:00 16.03333 C 11.25 g/m*3 16.03 C 2.93333 km/h
1303 24-08-2020 06:00:00 15.65833 C 11.19 g/m*3 15.66 C 3.33333 km/h
1304 24-08-2020 07:00:00 14.875 C 10.88 g/m*3 14.88 C 3.475 km/h
1305 24-08-2020 08:00:00 14.76667 C 10.7 g/m*3 14.77 C 5.08333 km/h
1306 24-08-2020 09:00:00 16.325 C 10.9 g/m*3 16.33 C 13.96667 km/h
1307 24-08-2020 10:00:00 17.88333 C 11 g/m*3 17.88 C 12.76667 km/h
1308 24-08-2020 11:00:00 18.9 C 10.91 g/m*3 18.9 C 13.7 km/h
1309 24-08-2020 12:00:00 19.41667 C 11.09 g/m*3 19.42 C 10.48333 km/h
1310 24-08-2020 13:00:00 19.71667 C 11.02 g/m*3 19.72 C 12.1 km/h
1311 24-08-2020 14:00:00 19.98333 C 11.08 g/m*3 19.98 C 13.43333 km/h
1312 24-08-2020 15:00:00 21.05833 C 10.61 g/m*3 21.06 C 14.36667 km/h
1313 24-08-2020 16:00:00 21.95 C 10.29 g/m*3 21.95 C 11.96667 km/h
1314 24-08-2020 17:00:00 22.70833 C 10.34 g/m*3 22.71 C 14.5 km/h
1315 24-08-2020 18:00:00 22.86667 C 10.1 g/m*3 22.87 C 12.23333 km/h
1316 24-08-2020 19:00:00 21.06667 C 10.16 g/m*3 21.07 C 6.45 km/h
1317 24-08-2020 20:00:00 19.93333 C 10.46 g/m*3 19.93 C 8.45833 km/h
1318 24-08-2020 21:00:00 18.23333 C 11.28 g/m*3 18.23 C 0.8 km/h
1319 24-08-2020 22:00:00 16.96667 C 11.22 g/m*3 16.97 C 0 km/h
1320 24-08-2020 23:00:00 16.80833 C 11.3 g/m*3 16.81 C 1.2 km/h
1321 25-08-2020 00:00:00 16.83333 C 11.31 g/m*3 16.83 C 0.26667 km/h
1322 25-08-2020 01:00:00 17.025 C 11.4 g/m*3 17.02 C 0 km/h
1323 25-08-2020 02:00:00 16.74167 C 11.67 g/m*3 16.74 C 0.93333 km/h
1324 25-08-2020 03:00:00 16.025 C 11.55 g/m*3 16.02 C 0.26667 km/h
1325 25-08-2020 04:00:00 14.76667 C 10.82 g/m*3 14.77 C 3.2 km/h
Sensor: Nr:Datum:Temp:Abs-Feuchte:Windchill:Wind:
Aussen-T/F 1326 25-08-2020 05:00:00 13.60833 C 10.46 g/m*3 13.61 C 0 km/h
1327 25-08-2020 06:00:00 12.94167 C 10.3 g/m*3 12.94 C 0 km/h
1328 25-08-2020 07:00:00 13.33333 C 10.72 g/m*3 13.33 C 0 km/h
1329 25-08-2020 08:00:00 14.70833 C 11.35 g/m*3 14.71 C 0.66667 km/h
1330 25-08-2020 09:00:00 15.925 C 11.57 g/m*3 15.93 C 0.13333 km/h
1331 25-08-2020 10:00:00 17.125 C 11.92 g/m*3 17.13 C 0.4 km/h
1332 25-08-2020 11:00:00 19.61667 C 12.12 g/m*3 19.62 C 4.41667 km/h
1333 25-08-2020 12:00:00 21.9 C 11.4 g/m*3 21.9 C 7.51667 km/h
1334 25-08-2020 13:00:00 22.65833 C 11.4 g/m*3 22.66 C 7.51667 km/h
1335 25-08-2020 14:00:00 22.425 C 11.24 g/m*3 22.43 C 7.93333 km/h
1336 25-08-2020 15:00:00 22.35833 C 11.97 g/m*3 22.36 C 0.93333 km/h
1337 25-08-2020 16:00:00 21.05833 C 14.38 g/m*3 21.06 C 1.06667 km/h
1338 25-08-2020 17:00:00 21.575 C 14.11 g/m*3 21.58 C 1.2 km/h
1339 25-08-2020 18:00:00 26.175 C 12.05 g/m*3 26.18 C 6.56667 km/h
1340 25-08-2020 19:00:00 25.375 C 12.07 g/m*3 25.38 C 3.74167 km/h
1341 25-08-2020 20:00:00 22.625 C 11.37 g/m*3 22.63 C 2.4 km/h
1342 25-08-2020 21:00:00 21.3 C 10.81 g/m*3 21.3 C 2.275 km/h
1343 25-08-2020 22:00:00 20.83333 C 10.37 g/m*3 20.83 C 3.60833 km/h
1344 25-08-2020 23:00:00 20.96667 C 10.56 g/m*3 20.97 C 2.28333 km/h
1345 26-08-2020 00:00:00 21.03333 C 11.01 g/m*3 21.03 C 5.49167 km/h
1346 26-08-2020 01:00:00 21.40833 C 11.91 g/m*3 21.41 C 8.18333 km/h
1347 26-08-2020 02:00:00 22.49167 C 12.54 g/m*3 22.49 C 16.79167 km/h
1348 26-08-2020 03:00:00 21.85833 C 12.18 g/m*3 21.86 C 23.325 km/h
1349 26-08-2020 04:00:00 20.59167 C 11.03 g/m*3 20.59 C 21.7 km/h
1350 26-08-2020 05:00:00 20.075 C 10.1 g/m*3 20.08 C 22.51667 km/h
Sensor: Nr:Datum:Temp:Abs-Feuchte:Windchill:Wind:
Aussen-T/F 1351 26-08-2020 06:00:00 19.58333 C 9.74 g/m*3 19.58 C 21.575 km/h
1352 26-08-2020 07:00:00 19.225 C 9.61 g/m*3 19.23 C 20.50833 km/h
1353 26-08-2020 08:00:00 19.3 C 9.77 g/m*3 19.3 C 19.44167 km/h
1354 26-08-2020 09:00:00 19.41667 C 9.99 g/m*3 19.42 C 18.24167 km/h
1355 26-08-2020 10:00:00 19.55 C 10.14 g/m*3 19.55 C 17.83333 km/h
1356 26-08-2020 11:00:00 19.74167 C 10.11 g/m*3 19.74 C 20.38333 km/h
1357 26-08-2020 12:00:00 20.13333 C 10.57 g/m*3 20.13 C 19.70833 km/h
1358 26-08-2020 13:00:00 21.025 C 10.87 g/m*3 21.03 C 21.84167 km/h
1359 26-08-2020 14:00:00 21.675 C 10.51 g/m*3 21.68 C 21.04167 km/h
1360 26-08-2020 15:00:00 22.49167 C 10.38 g/m*3 22.49 C 21.16667 km/h
1361 26-08-2020 16:00:00 22.95833 C 10.24 g/m*3 22.96 C 26.95833 km/h
1362 26-08-2020 17:00:00 22.70833 C 10.19 g/m*3 22.71 C 20.23333 km/h
1363 26-08-2020 18:00:00 22.35 C 10.18 g/m*3 22.35 C 19.43333 km/h
1364 26-08-2020 19:00:00 21.525 C 10.35 g/m*3 21.53 C 14.76667 km/h
1365 26-08-2020 20:00:00 20.60833 C 10.65 g/m*3 20.61 C 15.96667 km/h
1366 26-08-2020 21:00:00 19.93333 C 10.59 g/m*3 19.93 C 13.83333 km/h
1367 26-08-2020 22:00:00 19.41667 C 10.58 g/m*3 19.42 C 6.98333 km/h
1368 26-08-2020 23:00:00 18.69167 C 10.68 g/m*3 18.69 C 2.4 km/h
1369 27-08-2020 00:00:00 18.05833 C 10.7 g/m*3 18.06 C 4.68333 km/h
1370 27-08-2020 01:00:00 17.31667 C 10.74 g/m*3 17.32 C 2.4 km/h
1371 27-08-2020 02:00:00 16.175 C 10.8 g/m*3 16.18 C 2.4 km/h
1372 27-08-2020 03:00:00 15.49167 C 10.59 g/m*3 15.49 C 1.6 km/h
1373 27-08-2020 04:00:00 14.05833 C 10.34 g/m*3 14.06 C 1.33333 km/h
1374 27-08-2020 05:00:00 13.23333 C 10.16 g/m*3 13.23 C 0 km/h
1375 27-08-2020 06:00:00 12.80833 C 10.11 g/m*3 12.81 C 0.93333 km/h
Sensor: Nr:Datum:Temp:Abs-Feuchte:Windchill:Wind:
Aussen-T/F 1376 27-08-2020 07:00:00 12.76667 C 10.18 g/m*3 12.77 C 3.74167 km/h
1377 27-08-2020 08:00:00 13.69167 C 10.58 g/m*3 13.69 C 4.43333 km/h
1378 27-08-2020 09:00:00 15.975 C 11.09 g/m*3 15.98 C 9.56667 km/h
1379 27-08-2020 10:00:00 17.20833 C 11.34 g/m*3 17.21 C 6.3 km/h
1380 27-08-2020 11:00:00 18.9 C 11.43 g/m*3 18.9 C 6.575 km/h
1381 27-08-2020 12:00:00 19.5 C 11.02 g/m*3 19.5 C 5.21667 km/h
1382 27-08-2020 13:00:00 20.125 C 10.85 g/m*3 20.13 C 9.275 km/h
1383 27-08-2020 14:00:00 21.30833 C 10.65 g/m*3 21.31 C 7.25833 km/h
1384 27-08-2020 15:00:00 22.59167 C 10.29 g/m*3 22.59 C 11.15833 km/h
1385 27-08-2020 16:00:00 24.475 C 10.24 g/m*3 24.48 C 10.48333 km/h
1386 27-08-2020 17:00:00 25.51667 C 9.95 g/m*3 25.52 C 10.9 km/h
1387 27-08-2020 18:00:00 25.83333 C 9.65 g/m*3 25.83 C 9.81667 km/h
1388 27-08-2020 19:00:00 24.425 C 10.33 g/m*3 24.43 C 4.15 km/h
1389 27-08-2020 20:00:00 19.86667 C 10.19 g/m*3 19.87 C 3.6 km/h
1390 27-08-2020 21:00:00 17.48333 C 9.89 g/m*3 17.48 C 2.53333 km/h
1391 27-08-2020 22:00:00 17.20833 C 10.11 g/m*3 17.21 C 0 km/h
1392 27-08-2020 23:00:00 17.40833 C 11.38 g/m*3 17.41 C 1.20833 km/h
1393 28-08-2020 00:00:00 16.45 C 11.64 g/m*3 16.45 C 3.73333 km/h
1394 28-08-2020 01:00:00 16.65833 C 11.88 g/m*3 16.66 C 1.46667 km/h
1395 28-08-2020 02:00:00 16.425 C 12.69 g/m*3 16.43 C 3.75 km/h
1396 28-08-2020 03:00:00 15.9 C 12.54 g/m*3 15.9 C 1.73333 km/h
1397 28-08-2020 04:00:00 15.725 C 12.62 g/m*3 15.73 C 5.61667 km/h
1398 28-08-2020 05:00:00 15.65 C 12.67 g/m*3 15.65 C 3.06667 km/h
1399 28-08-2020 06:00:00 15.525 C 12.58 g/m*3 15.53 C 4.14167 km/h
1400 28-08-2020 07:00:00 15.56667 C 12.61 g/m*3 15.57 C 2.66667 km/h
Sensor: Nr:Datum:Temp:Abs-Feuchte:Windchill:Wind:
Aussen-T/F 1401 28-08-2020 08:00:00 15.99167 C 12.94 g/m*3 15.99 C 1.73333 km/h
1402 28-08-2020 09:00:00 16.78333 C 12.74 g/m*3 16.78 C 3.20833 km/h
1403 28-08-2020 10:00:00 18.51667 C 12.23 g/m*3 18.52 C 8.875 km/h
1404 28-08-2020 11:00:00 19.95833 C 11.92 g/m*3 19.96 C 11.425 km/h
1405 28-08-2020 12:00:00 20.63333 C 11.87 g/m*3 20.63 C 8.89167 km/h
1406 28-08-2020 13:00:00 20.40833 C 11.52 g/m*3 20.41 C 10.09167 km/h
1407 28-08-2020 14:00:00 20.875 C 11.68 g/m*3 20.88 C 5.88333 km/h
1408 28-08-2020 15:00:00 21.38333 C 11.71 g/m*3 21.38 C 6.3 km/h
1409 28-08-2020 16:00:00 21.73333 C 11.91 g/m*3 21.73 C 9.53333 km/h
1410 28-08-2020 17:00:00 22.425 C 11.45 g/m*3 22.43 C 12.5 km/h
1411 28-08-2020 18:00:00 21.525 C 10.42 g/m*3 21.53 C 11.14167 km/h
1412 28-08-2020 19:00:00 20.36667 C 9.75 g/m*3 20.37 C 5.225 km/h
1413 28-08-2020 20:00:00 18.75 C 10.24 g/m*3 18.75 C 9.39167 km/h
1414 28-08-2020 21:00:00 14.975 C 10.65 g/m*3 14.98 C 5.78333 km/h
1415 28-08-2020 22:00:00 13.625 C 10.32 g/m*3 13.63 C 3.33333 km/h
1416 28-08-2020 23:00:00 12.95 C 10.1 g/m*3 12.95 C 1.46667 km/h
1417 29-08-2020 00:00:00 12.475 C 9.99 g/m*3 12.48 C 1.46667 km/h
1418 29-08-2020 01:00:00 12.425 C 10 g/m*3 12.43 C 2.93333 km/h
1419 29-08-2020 02:00:00 12.05 C 9.84 g/m*3 12.05 C 1.86667 km/h
1420 29-08-2020 03:00:00 11.71667 C 9.69 g/m*3 11.72 C 1.6 km/h
1421 29-08-2020 04:00:00 11.725 C 9.76 g/m*3 11.73 C 2.13333 km/h
1422 29-08-2020 05:00:00 11.15833 C 9.42 g/m*3 11.16 C 1.33333 km/h
1423 29-08-2020 06:00:00 10.96667 C 9.41 g/m*3 10.97 C 0 km/h
1424 29-08-2020 07:00:00 11.275 C 9.67 g/m*3 11.28 C 1.46667 km/h
1425 29-08-2020 08:00:00 12.3 C 10.34 g/m*3 12.3 C 3.88333 km/h
Sensor: Nr:Datum:Temp:Abs-Feuchte:Windchill:Wind:
Aussen-T/F 1426 29-08-2020 09:00:00 14.73333 C 10.81 g/m*3 14.73 C 10.75 km/h
1427 29-08-2020 10:00:00 16.60833 C 10.97 g/m*3 16.61 C 13.56667 km/h
1428 29-08-2020 11:00:00 17.73333 C 11.09 g/m*3 17.73 C 15.16667 km/h
1429 29-08-2020 12:00:00 18.84167 C 11.07 g/m*3 18.84 C 16.23333 km/h
1430 29-08-2020 13:00:00 19.35 C 10.91 g/m*3 19.35 C 14.09167 km/h
1431 29-08-2020 14:00:00 20.28333 C 10.69 g/m*3 20.28 C 15.16667 km/h
1432 29-08-2020 15:00:00 21.31667 C 10.32 g/m*3 21.32 C 13.16667 km/h
1433 29-08-2020 16:00:00 22.5 C 10.37 g/m*3 22.5 C 9.80833 km/h
1434 29-08-2020 17:00:00 22.75 C 10.18 g/m*3 22.75 C 11.55833 km/h
1435 29-08-2020 18:00:00 21.88333 C 10.72 g/m*3 21.88 C 2.15 km/h
1436 29-08-2020 19:00:00 22.025 C 10.82 g/m*3 22.03 C 3.075 km/h
1437 29-08-2020 20:00:00 19.88333 C 11.1 g/m*3 19.88 C 3.20833 km/h
1438 29-08-2020 21:00:00 17.675 C 11.4 g/m*3 17.68 C 8.06667 km/h
1439 29-08-2020 22:00:00 14.83333 C 11.01 g/m*3 14.83 C 7.25833 km/h
1440 29-08-2020 23:00:00 13.36667 C 10.55 g/m*3 13.37 C 4 km/h
1441 30-08-2020 00:00:00 13.025 C 10.5 g/m*3 13.03 C 0.66667 km/h
1442 30-08-2020 01:00:00 12.325 C 10.13 g/m*3 12.33 C 0.53333 km/h
1443 30-08-2020 02:00:00 11.58333 C 9.76 g/m*3 11.58 C 0 km/h
1444 30-08-2020 03:00:00 11.06667 C 9.48 g/m*3 11.07 C 0 km/h
1445 30-08-2020 04:00:00 10.675 C 9.32 g/m*3 10.68 C 0 km/h
1446 30-08-2020 05:00:00 10.86667 C 9.5 g/m*3 10.87 C 0 km/h
1447 30-08-2020 06:00:00 10.66667 C 9.39 g/m*3 10.67 C 0 km/h
1448 30-08-2020 07:00:00 11.1 C 9.67 g/m*3 11.1 C 1.2 km/h
1449 30-08-2020 08:00:00 11.94167 C 10.2 g/m*3 11.94 C 0.26667 km/h
1450 30-08-2020 09:00:00 13.15833 C 11.01 g/m*3 13.16 C 0.66667 km/h
Sensor: Nr:Datum:Temp:Abs-Feuchte:Windchill:Wind:
Aussen-T/F 1451 30-08-2020 10:00:00 14.78333 C 11.25 g/m*3 14.78 C 6.28333 km/h
1452 30-08-2020 11:00:00 16.20833 C 11.42 g/m*3 16.21 C 6.55833 km/h
1453 30-08-2020 12:00:00 17.03333 C 11.54 g/m*3 17.03 C 8.06667 km/h
1454 30-08-2020 13:00:00 18.01667 C 11.63 g/m*3 18.02 C 6.03333 km/h
1455 30-08-2020 14:00:00 18.85 C 11.5 g/m*3 18.85 C 5.75833 km/h
1456 30-08-2020 15:00:00 19.89167 C 11.21 g/m*3 19.89 C 7.38333 km/h
1457 30-08-2020 16:00:00 21.325 C 10.55 g/m*3 21.33 C 8.06667 km/h
1458 30-08-2020 17:00:00 21.625 C 10.34 g/m*3 21.63 C 7.79167 km/h
1459 30-08-2020 18:00:00 21.61667 C 9.92 g/m*3 21.62 C 5.5 km/h
1460 30-08-2020 19:00:00 20.63333 C 10.39 g/m*3 20.63 C 2.15 km/h
1461 30-08-2020 20:00:00 18.9 C 10.81 g/m*3 18.9 C 3.49167 km/h
1462 30-08-2020 21:00:00 18.875 C 11.53 g/m*3 18.88 C 4.01667 km/h
1463 30-08-2020 22:00:00 17.65833 C 11.53 g/m*3 17.66 C 0 km/h
1464 30-08-2020 23:00:00 16.69167 C 11.34 g/m*3 16.69 C 0 km/h
1465 31-08-2020 00:00:00 16.06667 C 11.23 g/m*3 16.07 C 0 km/h
1466 31-08-2020 01:00:00 15.70833 C 11.37 g/m*3 15.71 C 0 km/h
1467 31-08-2020 02:00:00 15.46667 C 11.4 g/m*3 15.47 C 0 km/h
1468 31-08-2020 03:00:00 14.65833 C 10.85 g/m*3 14.66 C 0 km/h
1469 31-08-2020 04:00:00 13.725 C 10.62 g/m*3 13.73 C 0 km/h
1470 31-08-2020 05:00:00 13.15833 C 10.37 g/m*3 13.16 C 0.26667 km/h
1471 31-08-2020 06:00:00 12.70833 C 10.28 g/m*3 12.71 C 0.4 km/h
1472 31-08-2020 07:00:00 13.19167 C 10.71 g/m*3 13.19 C 0 km/h
1473 31-08-2020 08:00:00 14.24167 C 11.26 g/m*3 14.24 C 0 km/h
1474 31-08-2020 09:00:00 15.55 C 11.74 g/m*3 15.55 C 0.4 km/h
1475 31-08-2020 10:00:00 16.6 C 12.04 g/m*3 16.6 C 4.69167 km/h
Sensor: Nr:Datum:Temp:Abs-Feuchte:Windchill:Wind:
Aussen-T/F 1476 31-08-2020 11:00:00 17.70833 C 12.16 g/m*3 17.71 C 6.425 km/h
1477 31-08-2020 12:00:00 18.95833 C 12.61 g/m*3 18.96 C 6.975 km/h
1478 31-08-2020 13:00:00 19.55 C 12.68 g/m*3 19.55 C 6.69167 km/h
1479 31-08-2020 14:00:00 18.38333 C 12.83 g/m*3 18.38 C 7.64167 km/h
1480 31-08-2020 15:00:00 16.35 C 12.76 g/m*3 16.35 C 1.2 km/h
1481 31-08-2020 16:00:00 16.74167 C 13.17 g/m*3 16.74 C 0 km/h
1482 31-08-2020 17:00:00 16.4 C 12.91 g/m*3 16.4 C 0.4 km/h
1483 31-08-2020 18:00:00 16.025 C 12.78 g/m*3 16.02 C 0.66667 km/h
1484 31-08-2020 19:00:00 15.6 C 12.45 g/m*3 15.6 C 2.26667 km/h
1485 31-08-2020 20:00:00 14.91667 C 12 g/m*3 14.92 C 2.13333 km/h
1486 31-08-2020 21:00:00 14.56667 C 11.86 g/m*3 14.57 C 0.66667 km/h
1487 31-08-2020 22:00:00 14.49167 C 11.84 g/m*3 14.49 C 0.4 km/h
1488 31-08-2020 23:00:00 14.45833 C 11.91 g/m*3 14.46 C 0.53333 km/h
1489 01-09-2020 00:00:00 14.15 C 11.69 g/m*3 14.15 C 0.26667 km/h
1490 01-09-2020 01:00:00 14.06667 C 11.63 g/m*3 14.07 C 0 km/h
1491 01-09-2020 02:00:00 13.66667 C 11.34 g/m*3 13.67 C 0.66667 km/h
1492 01-09-2020 03:00:00 13.125 C 10.97 g/m*3 13.13 C 2.4 km/h
1493 01-09-2020 04:00:00 12.94167 C 10.86 g/m*3 12.94 C 1.33333 km/h
1494 01-09-2020 05:00:00 12.55833 C 10.63 g/m*3 12.56 C 2.66667 km/h
1495 01-09-2020 06:00:00 12.14167 C 10.4 g/m*3 12.14 C 2.13333 km/h
1496 01-09-2020 07:00:00 12.50833 C 10.67 g/m*3 12.51 C 0 km/h
1497 01-09-2020 08:00:00 13.40833 C 11.28 g/m*3 13.41 C 0 km/h
1498 01-09-2020 09:00:00 13.875 C 11.61 g/m*3 13.88 C 0 km/h
1499 01-09-2020 10:00:00 14.26667 C 11.86 g/m*3 14.27 C 1.33333 km/h
1500 01-09-2020 11:00:00 15.35833 C 12.14 g/m*3 15.36 C 2.13333 km/h
Sensor: Nr:Datum:Temp:Abs-Feuchte:Windchill:Wind:
Aussen-T/F 1501 01-09-2020 12:00:00 17 C 12.36 g/m*3 17 C 1.6 km/h
1502 01-09-2020 13:00:00 18.525 C 11.57 g/m*3 18.52 C 6.85833 km/h
1503 01-09-2020 14:00:00 19.45833 C 10.77 g/m*3 19.46 C 8.475 km/h
1504 01-09-2020 15:00:00 19.99167 C 10.44 g/m*3 19.99 C 4.83333 km/h
1505 01-09-2020 16:00:00 18.60833 C 11.8 g/m*3 18.61 C 5.64167 km/h
1506 01-09-2020 17:00:00 17.18333 C 11.62 g/m*3 17.18 C 4.43333 km/h
1507 01-09-2020 18:00:00 16.375 C 11.76 g/m*3 16.38 C 0.8 km/h
1508 01-09-2020 19:00:00 16.5 C 11.99 g/m*3 16.5 C 1.46667 km/h
1509 01-09-2020 20:00:00 15.26667 C 11.15 g/m*3 15.27 C 2.53333 km/h
1510 01-09-2020 21:00:00 14.15 C 10.8 g/m*3 14.15 C 2 km/h
1511 01-09-2020 22:00:00 13.7 C 10.68 g/m*3 13.7 C 0.26667 km/h
1512 01-09-2020 23:00:00 13.30833 C 10.61 g/m*3 13.31 C 0 km/h
1513 02-09-2020 00:00:00 13.30833 C 10.72 g/m*3 13.31 C 0 km/h
1514 02-09-2020 01:00:00 13.2 C 10.68 g/m*3 13.2 C 0.4 km/h
1515 02-09-2020 02:00:00 12.90833 C 10.51 g/m*3 12.91 C 0.26667 km/h
1516 02-09-2020 03:00:00 12.80833 C 10.53 g/m*3 12.81 C 0.4 km/h
1517 02-09-2020 04:00:00 12.70833 C 10.47 g/m*3 12.71 C 0 km/h
1518 02-09-2020 05:00:00 12.51667 C 10.41 g/m*3 12.52 C 0 km/h
1519 02-09-2020 06:00:00 12.3 C 10.32 g/m*3 12.3 C 0.26667 km/h
1520 02-09-2020 07:00:00 11.59167 C 9.87 g/m*3 11.59 C 0.93333 km/h
1521 02-09-2020 08:00:00 11.49167 C 9.85 g/m*3 11.49 C 0.26667 km/h
1522 02-09-2020 09:00:00 12.83333 C 10.7 g/m*3 12.83 C 0.26667 km/h
1523 02-09-2020 10:00:00 14.63333 C 11.02 g/m*3 14.63 C 1.33333 km/h
1524 02-09-2020 11:00:00 16.36667 C 11.09 g/m*3 16.37 C 1.6 km/h
1525 02-09-2020 12:00:00 17.19167 C 11.38 g/m*3 17.19 C 1.33333 km/h
Sensor: Nr:Datum:Temp:Abs-Feuchte:Windchill:Wind:
Aussen-T/F 1526 02-09-2020 13:00:00 18.68333 C 10.54 g/m*3 18.68 C 3.88333 km/h
1527 02-09-2020 14:00:00 19.825 C 9.65 g/m*3 19.83 C 5.76667 km/h
1528 02-09-2020 15:00:00 21.1 C 9.44 g/m*3 21.1 C 6.43333 km/h
1529 02-09-2020 16:00:00 22.025 C 9.43 g/m*3 22.03 C 4.16667 km/h
1530 02-09-2020 17:00:00 23.05 C 9.91 g/m*3 23.05 C 3.89167 km/h
1531 02-09-2020 18:00:00 19.98333 C 11.31 g/m*3 19.98 C 0.8 km/h
1532 02-09-2020 19:00:00 18.55833 C 10.64 g/m*3 18.56 C 3.75833 km/h
1533 02-09-2020 20:00:00 16.25 C 9.57 g/m*3 16.25 C 7.39167 km/h
1534 02-09-2020 21:00:00 14.8 C 9.7 g/m*3 14.8 C 0 km/h
1535 02-09-2020 22:00:00 14.16667 C 10.04 g/m*3 14.17 C 0 km/h
1536 02-09-2020 23:00:00 13.5 C 9.67 g/m*3 13.5 C 0 km/h
1537 03-09-2020 00:00:00 12.325 C 9.24 g/m*3 12.33 C 0 km/h
1538 03-09-2020 01:00:00 11.38333 C 9 g/m*3 11.38 C 0 km/h
1539 03-09-2020 02:00:00 10.55833 C 8.75 g/m*3 10.56 C 0 km/h
1540 03-09-2020 03:00:00 10.275 C 8.76 g/m*3 10.28 C 0 km/h
1541 03-09-2020 04:00:00 10.05833 C 8.73 g/m*3 10.06 C 0 km/h
1542 03-09-2020 05:00:00 9.84167 C 8.69 g/m*3 9.84 C 0.26667 km/h
1543 03-09-2020 06:00:00 10.14167 C 8.91 g/m*3 10.14 C 0.13333 km/h
1544 03-09-2020 07:00:00 10.35833 C 9.04 g/m*3 10.36 C 0.13333 km/h
1545 03-09-2020 08:00:00 11.25833 C 9.47 g/m*3 11.26 C 0.8 km/h
1546 03-09-2020 09:00:00 12.76667 C 9.91 g/m*3 12.77 C 1.33333 km/h
1547 03-09-2020 10:00:00 14.60833 C 10.5 g/m*3 14.61 C 0.53333 km/h
1548 03-09-2020 11:00:00 17.63333 C 11.13 g/m*3 17.63 C 6.85833 km/h
1549 03-09-2020 12:00:00 19.33333 C 11.12 g/m*3 19.33 C 8.475 km/h
1550 03-09-2020 13:00:00 19.08333 C 11.57 g/m*3 19.08 C 7.39167 km/h
Sensor: Nr:Datum:Temp:Abs-Feuchte:Windchill:Wind:
Aussen-T/F 1551 03-09-2020 14:00:00 17.73333 C 11.89 g/m*3 17.73 C 4.3 km/h
1552 03-09-2020 15:00:00 17.99167 C 12.31 g/m*3 17.99 C 5.225 km/h
1553 03-09-2020 16:00:00 16.2 C 12.32 g/m*3 16.2 C 3.475 km/h
1554 03-09-2020 17:00:00 15.85833 C 12.52 g/m*3 15.86 C 1.2 km/h
1555 03-09-2020 18:00:00 16.11667 C 12.82 g/m*3 16.12 C 1.33333 km/h
1556 03-09-2020 19:00:00 15.95 C 12.75 g/m*3 15.95 C 2.53333 km/h
1557 03-09-2020 20:00:00 15.5 C 12.43 g/m*3 15.5 C 1.73333 km/h
1558 03-09-2020 21:00:00 15.28333 C 12.34 g/m*3 15.28 C 2 km/h
1559 03-09-2020 22:00:00 15.63333 C 12.57 g/m*3 15.63 C 0.66667 km/h
1560 03-09-2020 23:00:00 15.75833 C 12.62 g/m*3 15.76 C 0.13333 km/h
1561 04-09-2020 00:00:00 15.825 C 12.67 g/m*3 15.83 C 0 km/h
1562 04-09-2020 01:00:00 15.78333 C 12.64 g/m*3 15.78 C 0.4 km/h
1563 04-09-2020 02:00:00 15.84167 C 12.54 g/m*3 15.84 C 1.06667 km/h
1564 04-09-2020 03:00:00 16.46667 C 12.85 g/m*3 16.47 C 0.8 km/h
1565 04-09-2020 04:00:00 16.7 C 12.81 g/m*3 16.7 C 0 km/h
1566 04-09-2020 05:00:00 16.7 C 12.85 g/m*3 16.7 C 0 km/h
1567 04-09-2020 06:00:00 16.58333 C 12.7 g/m*3 16.58 C 1.73333 km/h
1568 04-09-2020 07:00:00 16.78333 C 12.7 g/m*3 16.78 C 0.8 km/h
1569 04-09-2020 08:00:00 17.175 C 13 g/m*3 17.18 C 0.4 km/h
1570 04-09-2020 09:00:00 18.35 C 13.41 g/m*3 18.35 C 1.2 km/h
1571 04-09-2020 10:00:00 19.25833 C 13.68 g/m*3 19.26 C 0.13333 km/h
1572 04-09-2020 11:00:00 20.375 C 13.81 g/m*3 20.38 C 1.86667 km/h
1573 04-09-2020 12:00:00 22.45 C 14.06 g/m*3 22.45 C 10.49167 km/h
1574 04-09-2020 13:00:00 24.5 C 14.62 g/m*3 24.5 C 14.23333 km/h
1575 04-09-2020 14:00:00 25.675 C 14.66 g/m*3 25.68 C 10.20833 km/h
Sensor: Nr:Datum:Temp:Abs-Feuchte:Windchill:Wind:
Aussen-T/F 1576 04-09-2020 15:00:00 25.71667 C 14.64 g/m*3 25.72 C 4.94167 km/h
1577 04-09-2020 16:00:00 26.34167 C 14.62 g/m*3 26.34 C 2.93333 km/h
1578 04-09-2020 17:00:00 28.15833 C 15.38 g/m*3 28.16 C 2.40833 km/h
1579 04-09-2020 18:00:00 25.54167 C 15.78 g/m*3 25.54 C 7.80833 km/h
1580 04-09-2020 19:00:00 23.40833 C 15.83 g/m*3 23.41 C 4.4 km/h
1581 04-09-2020 20:00:00 21.325 C 15.4 g/m*3 21.33 C 1.475 km/h
1582 04-09-2020 21:00:00 20.075 C 15.14 g/m*3 20.08 C 2.13333 km/h
1583 04-09-2020 22:00:00 19.50833 C 14.64 g/m*3 19.51 C 0.53333 km/h
1584 04-09-2020 23:00:00 18.725 C 14.47 g/m*3 18.73 C 0 km/h
1585 05-09-2020 00:00:00 17.79167 C 13.8 g/m*3 17.79 C 2 km/h
1586 05-09-2020 01:00:00 16.61667 C 13.06 g/m*3 16.62 C 0 km/h
1587 05-09-2020 02:00:00 15.875 C 12.68 g/m*3 15.88 C 0 km/h
1588 05-09-2020 03:00:00 16.04167 C 12.98 g/m*3 16.04 C 0 km/h
1589 05-09-2020 04:00:00 16.50833 C 13.46 g/m*3 16.51 C 0.4 km/h
1590 05-09-2020 05:00:00 16.7 C 13.58 g/m*3 16.7 C 0 km/h
1591 05-09-2020 06:00:00 16.25833 C 12.62 g/m*3 16.26 C 6.04167 km/h
1592 05-09-2020 07:00:00 15.81667 C 11.42 g/m*3 15.82 C 4.00833 km/h
1593 05-09-2020 08:00:00 15.50833 C 11.31 g/m*3 15.51 C 2.26667 km/h
1594 05-09-2020 09:00:00 15.875 C 11.35 g/m*3 15.88 C 3.475 km/h
1595 05-09-2020 10:00:00 16.64167 C 11.42 g/m*3 16.64 C 6.84167 km/h
1596 05-09-2020 11:00:00 17.79167 C 11.57 g/m*3 17.79 C 7.93333 km/h
1597 05-09-2020 12:00:00 18.36667 C 11.37 g/m*3 18.37 C 11.15 km/h
1598 05-09-2020 13:00:00 18.64167 C 11.31 g/m*3 18.64 C 11.025 km/h
1599 05-09-2020 14:00:00 18.825 C 11.17 g/m*3 18.83 C 12.89167 km/h
1600 05-09-2020 15:00:00 17.76667 C 11.07 g/m*3 17.77 C 11.3 km/h
Sensor: Nr:Datum:Temp:Abs-Feuchte:Windchill:Wind:
Aussen-T/F 1601 05-09-2020 16:00:00 18.68333 C 10.68 g/m*3 18.68 C 9.69167 km/h
1602 05-09-2020 17:00:00 19.44167 C 10.05 g/m*3 19.44 C 9.425 km/h
1603 05-09-2020 18:00:00 20.2 C 9.08 g/m*3 20.2 C 7.91667 km/h
1604 05-09-2020 19:00:00 18.6 C 9.23 g/m*3 18.6 C 1.74167 km/h
1605 05-09-2020 20:00:00 16.40833 C 9.19 g/m*3 16.41 C 3.60833 km/h
1606 05-09-2020 21:00:00 14.35833 C 9.35 g/m*3 14.36 C 3.06667 km/h
1607 05-09-2020 22:00:00 13.725 C 9.27 g/m*3 13.73 C 3.6 km/h
1608 05-09-2020 23:00:00 13.08333 C 9.22 g/m*3 13.08 C 4.53333 km/h
1609 06-09-2020 00:00:00 12.55 C 9.19 g/m*3 12.55 C 2.8 km/h
1610 06-09-2020 01:00:00 11.725 C 9.08 g/m*3 11.73 C 0 km/h
1611 06-09-2020 02:00:00 10.51667 C 8.62 g/m*3 10.52 C 0.13333 km/h
1612 06-09-2020 03:00:00 9.65 C 8.34 g/m*3 9.65 C 0.26667 km/h
1613 06-09-2020 04:00:00 9.06667 C 8.17 g/m*3 9.07 C 0.13333 km/h
1614 06-09-2020 05:00:00 8.60833 C 8.03 g/m*3 8.61 C 0.4 km/h
1615 06-09-2020 06:00:00 8.175 C 7.85 g/m*3 8.18 C 0 km/h
1616 06-09-2020 07:00:00 8.03333 C 7.85 g/m*3 8.03 C 0.13333 km/h
1617 06-09-2020 08:00:00 8.125 C 7.92 g/m*3 8.13 C 0.53333 km/h
1618 06-09-2020 09:00:00 8.96667 C 8.42 g/m*3 8.97 C 1.33333 km/h
1619 06-09-2020 10:00:00 10.61667 C 9.31 g/m*3 10.62 C 0.4 km/h
1620 06-09-2020 11:00:00 13.84167 C 9.64 g/m*3 13.84 C 0.53333 km/h
1621 06-09-2020 12:00:00 16.43333 C 9.18 g/m*3 16.43 C 4.825 km/h
1622 06-09-2020 13:00:00 17.45 C 8.83 g/m*3 17.45 C 4.03333 km/h
1623 06-09-2020 14:00:00 18.61667 C 8.8 g/m*3 18.62 C 4.55 km/h
1624 06-09-2020 15:00:00 19.04167 C 8.6 g/m*3 19.04 C 6.30833 km/h
1625 06-09-2020 16:00:00 18.5 C 8.43 g/m*3 18.5 C 5.50833 km/h
Sensor: Nr:Datum:Temp:Abs-Feuchte:Windchill:Wind:
Aussen-T/F 1626 06-09-2020 17:00:00 18.56667 C 8.68 g/m*3 18.57 C 7.53333 km/h
1627 06-09-2020 18:00:00 19.11667 C 8.76 g/m*3 19.12 C 3.34167 km/h
1628 06-09-2020 19:00:00 18.65 C 8.87 g/m*3 18.65 C 2.4 km/h
1629 06-09-2020 20:00:00 14.71667 C 8.58 g/m*3 14.72 C 0 km/h
1630 06-09-2020 21:00:00 12.83333 C 8.62 g/m*3 12.83 C 0 km/h
1631 06-09-2020 22:00:00 12.35 C 8.89 g/m*3 12.35 C 0 km/h
1632 06-09-2020 23:00:00 12.575 C 9.02 g/m*3 12.58 C 0.26667 km/h
1633 07-09-2020 00:00:00 12.59167 C 9.03 g/m*3 12.59 C 0.13333 km/h
1634 07-09-2020 01:00:00 12.19167 C 8.95 g/m*3 12.19 C 0 km/h
1635 07-09-2020 02:00:00 10.725 C 8.44 g/m*3 10.73 C 0.13333 km/h
1636 07-09-2020 03:00:00 9.475 C 8.1 g/m*3 9.48 C 0.13333 km/h
1637 07-09-2020 04:00:00 8.80833 C 7.93 g/m*3 8.81 C 0.13333 km/h
1638 07-09-2020 05:00:00 8.24167 C 7.76 g/m*3 8.24 C 0.4 km/h
1639 07-09-2020 06:00:00 7.81667 C 7.62 g/m*3 7.82 C 0.53333 km/h
1640 07-09-2020 07:00:00 7.6 C 7.57 g/m*3 7.6 C 0 km/h
1641 07-09-2020 08:00:00 7.98333 C 7.85 g/m*3 7.98 C 0.26667 km/h
1642 07-09-2020 09:00:00 8.95833 C 8.39 g/m*3 8.96 C 0.4 km/h
1643 07-09-2020 10:00:00 10.56667 C 9.29 g/m*3 10.57 C 0.93333 km/h
1644 07-09-2020 11:00:00 13.66667 C 10.23 g/m*3 13.67 C 1.73333 km/h
1645 07-09-2020 12:00:00 16.475 C 10 g/m*3 16.48 C 3.34167 km/h
1646 07-09-2020 13:00:00 18.13333 C 9.44 g/m*3 18.13 C 3.875 km/h
1647 07-09-2020 14:00:00 19.43333 C 8.85 g/m*3 19.43 C 6.71667 km/h
1648 07-09-2020 15:00:00 20.7 C 8.84 g/m*3 20.7 C 5.475 km/h
1649 07-09-2020 16:00:00 21.69167 C 8.87 g/m*3 21.69 C 5.35 km/h
1650 07-09-2020 17:00:00 22.85 C 9.02 g/m*3 22.85 C 3.74167 km/h
Sensor: Nr:Datum:Temp:Abs-Feuchte:Windchill:Wind:
Aussen-T/F 1651 07-09-2020 18:00:00 22.425 C 10.01 g/m*3 22.43 C 0.66667 km/h
1652 07-09-2020 19:00:00 20.85 C 10.05 g/m*3 20.85 C 2.53333 km/h
1653 07-09-2020 20:00:00 16.58333 C 9.18 g/m*3 16.58 C 3.73333 km/h
1654 07-09-2020 21:00:00 14.21667 C 9.18 g/m*3 14.22 C 0.53333 km/h
1655 07-09-2020 22:00:00 12.7 C 8.95 g/m*3 12.7 C 0 km/h
1656 07-09-2020 23:00:00 11.675 C 8.68 g/m*3 11.68 C 0 km/h
1657 08-09-2020 00:00:00 10.875 C 8.49 g/m*3 10.88 C 0 km/h
1658 08-09-2020 01:00:00 10.425 C 8.43 g/m*3 10.43 C 0.13333 km/h
1659 08-09-2020 02:00:00 9.775 C 8.24 g/m*3 9.78 C 0 km/h
1660 08-09-2020 03:00:00 9.25 C 8.1 g/m*3 9.25 C 0 km/h
1661 08-09-2020 04:00:00 8.725 C 7.93 g/m*3 8.73 C 0 km/h
1662 08-09-2020 05:00:00 8.41667 C 7.86 g/m*3 8.42 C 0 km/h
1663 08-09-2020 06:00:00 8.05833 C 7.72 g/m*3 8.06 C 0 km/h
1664 08-09-2020 07:00:00 8.125 C 7.83 g/m*3 8.13 C 0 km/h
1665 08-09-2020 08:00:00 8.76667 C 8.17 g/m*3 8.77 C 0 km/h
1666 08-09-2020 09:00:00 9.725 C 8.68 g/m*3 9.73 C 0.8 km/h
1667 08-09-2020 10:00:00 12.20833 C 9.76 g/m*3 12.21 C 2.53333 km/h
1668 08-09-2020 11:00:00 17.40833 C 10.33 g/m*3 17.41 C 6.99167 km/h
1669 08-09-2020 12:00:00 20.70833 C 10.33 g/m*3 20.71 C 10.89167 km/h
1670 08-09-2020 13:00:00 22.10833 C 10.22 g/m*3 22.11 C 10.48333 km/h
1671 08-09-2020 14:00:00 23.06667 C 10.26 g/m*3 23.07 C 9.55833 km/h
1672 08-09-2020 15:00:00 24.23333 C 10.27 g/m*3 24.23 C 10.74167 km/h
1673 08-09-2020 16:00:00 25.63333 C 10.38 g/m*3 25.63 C 9.14167 km/h
1674 08-09-2020 17:00:00 27.58333 C 10.63 g/m*3 27.58 C 9 km/h
1675 08-09-2020 18:00:00 27.83333 C 11.18 g/m*3 27.83 C 6.43333 km/h
Sensor: Nr:Datum:Temp:Abs-Feuchte:Windchill:Wind:
Aussen-T/F 1676 08-09-2020 19:00:00 25.13333 C 12.47 g/m*3 25.13 C 4.95 km/h
1677 08-09-2020 20:00:00 20.625 C 12.44 g/m*3 20.63 C 1.46667 km/h
1678 08-09-2020 21:00:00 18.66667 C 12.26 g/m*3 18.67 C 2.26667 km/h
1679 08-09-2020 22:00:00 17.56667 C 12.04 g/m*3 17.57 C 2.66667 km/h
1680 08-09-2020 23:00:00 16.24167 C 11.73 g/m*3 16.24 C 0 km/h
1681 09-09-2020 00:00:00 15.15833 C 11.41 g/m*3 15.16 C 0 km/h
1682 09-09-2020 01:00:00 14.46667 C 11.23 g/m*3 14.47 C 0 km/h
1683 09-09-2020 02:00:00 13.90833 C 10.98 g/m*3 13.91 C 0 km/h
1684 09-09-2020 03:00:00 13.35 C 10.76 g/m*3 13.35 C 0 km/h
1685 09-09-2020 04:00:00 12.86667 C 10.49 g/m*3 12.87 C 0 km/h
1686 09-09-2020 05:00:00 12.46667 C 10.32 g/m*3 12.47 C 0 km/h
1687 09-09-2020 06:00:00 12.18333 C 10.2 g/m*3 12.18 C 0 km/h
1688 09-09-2020 07:00:00 12.01667 C 10.14 g/m*3 12.02 C 0.13333 km/h
1689 09-09-2020 08:00:00 12.41667 C 10.47 g/m*3 12.42 C 1.2 km/h
1690 09-09-2020 09:00:00 13.48333 C 11.25 g/m*3 13.48 C 1.6 km/h
1691 09-09-2020 10:00:00 16.26667 C 12.88 g/m*3 16.27 C 0.13333 km/h
1692 09-09-2020 11:00:00 20.69167 C 13.52 g/m*3 20.69 C 0.53333 km/h
1693 09-09-2020 12:00:00 22.36667 C 13.68 g/m*3 22.37 C 3.74167 km/h
1694 09-09-2020 13:00:00 22.85 C 13.87 g/m*3 22.85 C 5.225 km/h
1695 09-09-2020 14:00:00 23.69167 C 13.99 g/m*3 23.69 C 7.66667 km/h
1696 09-09-2020 15:00:00 24.1 C 14.19 g/m*3 24.1 C 7.38333 km/h
1697 09-09-2020 16:00:00 23.925 C 14.06 g/m*3 23.93 C 4.55 km/h
1698 09-09-2020 17:00:00 24.525 C 14.16 g/m*3 24.53 C 4.54167 km/h
1699 09-09-2020 18:00:00 24.46667 C 14.72 g/m*3 24.47 C 1.20833 km/h
1700 09-09-2020 19:00:00 22.70833 C 14.54 g/m*3 22.71 C 0 km/h
Sensor: Nr:Datum:Temp:Abs-Feuchte:Windchill:Wind:
Aussen-T/F 1701 09-09-2020 20:00:00 21.025 C 14.08 g/m*3 21.03 C 0.13333 km/h
1702 09-09-2020 21:00:00 19.75 C 13.58 g/m*3 19.75 C 4.8 km/h
1703 09-09-2020 22:00:00 19.65833 C 13.75 g/m*3 19.66 C 1.2 km/h
1704 09-09-2020 23:00:00 20.05833 C 13.73 g/m*3 20.06 C 4.00833 km/h
1705 10-09-2020 00:00:00 20.18333 C 14.59 g/m*3 20.18 C 10.89167 km/h
1706 10-09-2020 01:00:00 18.69167 C 14.51 g/m*3 18.69 C 8.6 km/h
1707 10-09-2020 02:00:00 17.675 C 13.63 g/m*3 17.68 C 4.55833 km/h
1708 10-09-2020 03:00:00 17.175 C 13.05 g/m*3 17.18 C 2.00833 km/h
1709 10-09-2020 04:00:00 16.85833 C 12.55 g/m*3 16.86 C 1.06667 km/h
1710 10-09-2020 05:00:00 16.56667 C 11.82 g/m*3 16.57 C 2.13333 km/h
1711 10-09-2020 06:00:00 16.08333 C 11.56 g/m*3 16.08 C 3.075 km/h
1712 10-09-2020 07:00:00 15.475 C 11.38 g/m*3 15.48 C 5.1 km/h
1713 10-09-2020 08:00:00 15.35833 C 11.29 g/m*3 15.36 C 2.4 km/h
1714 10-09-2020 09:00:00 15.56667 C 11.39 g/m*3 15.57 C 3.875 km/h
1715 10-09-2020 10:00:00 15.93333 C 10.87 g/m*3 15.93 C 6.71667 km/h
1716 10-09-2020 11:00:00 16.7 C 10.67 g/m*3 16.7 C 5.36667 km/h
1717 10-09-2020 12:00:00 17.83333 C 10.28 g/m*3 17.83 C 7.24167 km/h
1718 10-09-2020 13:00:00 18.54167 C 9.52 g/m*3 18.54 C 5.9 km/h
1719 10-09-2020 14:00:00 19.66667 C 9.96 g/m*3 19.67 C 5.5 km/h
1720 10-09-2020 15:00:00 20.84167 C 10.16 g/m*3 20.84 C 7.11667 km/h
1721 10-09-2020 16:00:00 22.06667 C 10.31 g/m*3 22.07 C 7.65833 km/h
1722 10-09-2020 17:00:00 22.73333 C 10.27 g/m*3 22.73 C 8.61667 km/h
1723 10-09-2020 18:00:00 22.45 C 10.24 g/m*3 22.45 C 5.225 km/h
1724 10-09-2020 19:00:00 20.80833 C 9.8 g/m*3 20.81 C 2 km/h
1725 10-09-2020 20:00:00 17.675 C 9.25 g/m*3 17.68 C 1.33333 km/h
Sensor: Nr:Datum:Temp:Abs-Feuchte:Windchill:Wind:
Aussen-T/F 1726 10-09-2020 21:00:00 15.60833 C 8.98 g/m*3 15.61 C 3.2 km/h
1727 10-09-2020 22:00:00 14.325 C 9.01 g/m*3 14.33 C 0.4 km/h
1728 10-09-2020 23:00:00 12.7 C 8.75 g/m*3 12.7 C 0 km/h
1729 11-09-2020 00:00:00 12.08333 C 8.78 g/m*3 12.08 C 0 km/h
1730 11-09-2020 01:00:00 11.95 C 8.78 g/m*3 11.95 C 0 km/h
1731 11-09-2020 02:00:00 11.05833 C 8.52 g/m*3 11.06 C 0 km/h
1732 11-09-2020 03:00:00 10.23333 C 8.35 g/m*3 10.23 C 0 km/h
1733 11-09-2020 04:00:00 9.59167 C 8.23 g/m*3 9.59 C 0 km/h
1734 11-09-2020 05:00:00 8.95833 C 8.03 g/m*3 8.96 C 0 km/h
1735 11-09-2020 06:00:00 8.43333 C 7.87 g/m*3 8.43 C 0 km/h
1736 11-09-2020 07:00:00 8.26667 C 7.88 g/m*3 8.27 C 0 km/h
1737 11-09-2020 08:00:00 8.625 C 8.13 g/m*3 8.63 C 0 km/h
1738 11-09-2020 09:00:00 9.45833 C 8.62 g/m*3 9.46 C 0 km/h
1739 11-09-2020 10:00:00 11.20833 C 9.55 g/m*3 11.21 C 0 km/h
1740 11-09-2020 11:00:00 14.025 C 10.22 g/m*3 14.03 C 0.26667 km/h
1741 11-09-2020 12:00:00 17.6 C 9.97 g/m*3 17.6 C 2.93333 km/h
1742 11-09-2020 13:00:00 19.86667 C 9.7 g/m*3 19.87 C 5.35833 km/h
1743 11-09-2020 14:00:00 21.15 C 10.06 g/m*3 21.15 C 5.09167 km/h
1744 11-09-2020 15:00:00 22.44167 C 10.4 g/m*3 22.44 C 6.45833 km/h
1745 11-09-2020 16:00:00 23.58333 C 10.59 g/m*3 23.58 C 8.6 km/h
1746 11-09-2020 17:00:00 24.6 C 10.8 g/m*3 24.6 C 6.43333 km/h
1747 11-09-2020 18:00:00 24.36667 C 11.27 g/m*3 24.37 C 3.075 km/h
1748 11-09-2020 19:00:00 21.425 C 11.31 g/m*3 21.43 C 2.80833 km/h
1749 11-09-2020 20:00:00 18.3 C 10.65 g/m*3 18.3 C 4.13333 km/h
1750 11-09-2020 21:00:00 16.35833 C 10.47 g/m*3 16.36 C 0.53333 km/h
Sensor: Nr:Datum:Temp:Abs-Feuchte:Windchill:Wind:
Aussen-T/F 1751 11-09-2020 22:00:00 15.04167 C 10.27 g/m*3 15.04 C 0 km/h
1752 11-09-2020 23:00:00 13.93333 C 10.07 g/m*3 13.93 C 0 km/h
1753 12-09-2020 00:00:00 13.05 C 9.85 g/m*3 13.05 C 0 km/h
1754 12-09-2020 01:00:00 12.525 C 9.71 g/m*3 12.53 C 0 km/h
1755 12-09-2020 02:00:00 11.975 C 9.53 g/m*3 11.98 C 0 km/h
1756 12-09-2020 03:00:00 11.475 C 9.35 g/m*3 11.48 C 0 km/h
1757 12-09-2020 04:00:00 10.975 C 9.17 g/m*3 10.98 C 0 km/h
1758 12-09-2020 05:00:00 10.525 C 9.03 g/m*3 10.53 C 0 km/h
1759 12-09-2020 06:00:00 10.225 C 8.9 g/m*3 10.23 C 0 km/h
1760 12-09-2020 07:00:00 10.16667 C 8.94 g/m*3 10.17 C 0 km/h
1761 12-09-2020 08:00:00 10.9 C 9.46 g/m*3 10.9 C 0 km/h
1762 12-09-2020 09:00:00 12.625 C 10.36 g/m*3 12.63 C 0.26667 km/h
1763 12-09-2020 10:00:00 14.675 C 10.94 g/m*3 14.68 C 0.13333 km/h
1764 12-09-2020 11:00:00 17.25 C 11.71 g/m*3 17.25 C 0 km/h
1765 12-09-2020 12:00:00 20.15833 C 12.27 g/m*3 20.16 C 2.80833 km/h
1766 12-09-2020 13:00:00 24.425 C 11.76 g/m*3 24.43 C 11.15833 km/h
1767 12-09-2020 14:00:00 24.90833 C 12.29 g/m*3 24.91 C 6.85 km/h
1768 12-09-2020 15:00:00 25.61667 C 12.43 g/m*3 25.62 C 8.6 km/h
1769 12-09-2020 16:00:00 25.75 C 12.36 g/m*3 25.75 C 10.475 km/h
1770 12-09-2020 17:00:00 26.14167 C 12.76 g/m*3 26.14 C 10.76667 km/h
1771 12-09-2020 18:00:00 25.28333 C 12.84 g/m*3 25.28 C 7.23333 km/h
1772 12-09-2020 19:00:00 23.03333 C 12.66 g/m*3 23.03 C 1.46667 km/h
1773 12-09-2020 20:00:00 19.79167 C 11.85 g/m*3 19.79 C 1.6 km/h
1774 12-09-2020 21:00:00 18.49167 C 10.94 g/m*3 18.49 C 1.20833 km/h
1775 12-09-2020 22:00:00 17.16667 C 10.49 g/m*3 17.17 C 0.66667 km/h
Sensor: Nr:Datum:Temp:Abs-Feuchte:Windchill:Wind:
Aussen-T/F 1776 12-09-2020 23:00:00 15.81667 C 10.29 g/m*3 15.82 C 1.06667 km/h
1777 13-09-2020 00:00:00 14.36667 C 9.98 g/m*3 14.37 C 0.26667 km/h
1778 13-09-2020 01:00:00 13.05 C 9.73 g/m*3 13.05 C 0.13333 km/h
1779 13-09-2020 02:00:00 12.375 C 9.55 g/m*3 12.38 C 0.26667 km/h
1780 13-09-2020 03:00:00 11.73333 C 9.42 g/m*3 11.73 C 0 km/h
1781 13-09-2020 04:00:00 11.35 C 9.32 g/m*3 11.35 C 0 km/h
1782 13-09-2020 05:00:00 10.84167 C 9.12 g/m*3 10.84 C 0 km/h
1783 13-09-2020 06:00:00 10.35 C 8.92 g/m*3 10.35 C 0 km/h
1784 13-09-2020 07:00:00 10.15 C 8.91 g/m*3 10.15 C 0 km/h
1785 13-09-2020 08:00:00 10.66667 C 9.31 g/m*3 10.67 C 0.26667 km/h
1786 13-09-2020 09:00:00 11.60833 C 9.88 g/m*3 11.61 C 0 km/h
1787 13-09-2020 10:00:00 13.1 C 10.67 g/m*3 13.1 C 0 km/h
1788 13-09-2020 11:00:00 15.53333 C 11.27 g/m*3 15.53 C 0.4 km/h
1789 13-09-2020 12:00:00 19.05833 C 11.98 g/m*3 19.06 C 2.26667 km/h
1790 13-09-2020 13:00:00 21.825 C 11.99 g/m*3 21.83 C 0.53333 km/h
1791 13-09-2020 14:00:00 23.725 C 11.78 g/m*3 23.73 C 2.81667 km/h
1792 13-09-2020 15:00:00 25.85833 C 11.17 g/m*3 25.86 C 4.14167 km/h
1793 13-09-2020 16:00:00 26.83333 C 11.13 g/m*3 26.83 C 5.1 km/h
1794 13-09-2020 17:00:00 28.81667 C 11.8 g/m*3 28.82 C 3.86667 km/h
1795 13-09-2020 18:00:00 27.46667 C 13.01 g/m*3 27.47 C 2.66667 km/h
1796 13-09-2020 19:00:00 23.69167 C 11.87 g/m*3 23.69 C 3.2 km/h
1797 13-09-2020 20:00:00 20.53333 C 11.32 g/m*3 20.53 C 1.86667 km/h
1798 13-09-2020 21:00:00 18.25 C 10.95 g/m*3 18.25 C 0 km/h
1799 13-09-2020 22:00:00 16.55833 C 10.63 g/m*3 16.56 C 0 km/h
1800 13-09-2020 23:00:00 15.175 C 10.44 g/m*3 15.18 C 0 km/h
Sensor: Nr:Datum:Temp:Abs-Feuchte:Windchill:Wind:
Aussen-T/F 1801 14-09-2020 00:00:00 14.325 C 10.28 g/m*3 14.33 C 0 km/h
1802 14-09-2020 01:00:00 13.59167 C 10.02 g/m*3 13.59 C 0 km/h
1803 14-09-2020 02:00:00 12.875 C 9.83 g/m*3 12.88 C 0 km/h
1804 14-09-2020 03:00:00 12.33333 C 9.69 g/m*3 12.33 C 0 km/h
1805 14-09-2020 04:00:00 11.64167 C 9.45 g/m*3 11.64 C 0 km/h
1806 14-09-2020 05:00:00 11.25833 C 9.33 g/m*3 11.26 C 0 km/h
1807 14-09-2020 06:00:00 10.83333 C 9.15 g/m*3 10.83 C 0 km/h
1808 14-09-2020 07:00:00 10.725 C 9.19 g/m*3 10.73 C 0 km/h
1809 14-09-2020 08:00:00 11.15833 C 9.54 g/m*3 11.16 C 0 km/h
1810 14-09-2020 09:00:00 12.125 C 10.2 g/m*3 12.13 C 0 km/h
1811 14-09-2020 10:00:00 13.875 C 11.28 g/m*3 13.88 C 0 km/h
1812 14-09-2020 11:00:00 17.325 C 12.59 g/m*3 17.33 C 0 km/h
1813 14-09-2020 12:00:00 21.75833 C 13.7 g/m*3 21.76 C 1.075 km/h
1814 14-09-2020 13:00:00 25.95833 C 13.95 g/m*3 25.96 C 3.33333 km/h
1815 14-09-2020 14:00:00 28.11667 C 13.34 g/m*3 28.12 C 4.01667 km/h
1816 14-09-2020 15:00:00 29.625 C 11.66 g/m*3 29.63 C 7.11667 km/h
1817 14-09-2020 16:00:00 29.875 C 12.2 g/m*3 29.88 C 4.675 km/h
1818 14-09-2020 17:00:00 29.775 C 14.18 g/m*3 29.78 C 1.46667 km/h
1819 14-09-2020 18:00:00 30.61667 C 13.35 g/m*3 30.62 C 3.06667 km/h
1820 14-09-2020 19:00:00 25.86667 C 11.8 g/m*3 25.87 C 7.39167 km/h
1821 14-09-2020 20:00:00 22.39167 C 11.7 g/m*3 22.39 C 2.54167 km/h
1822 14-09-2020 21:00:00 19.975 C 12.17 g/m*3 19.98 C 0 km/h
1823 14-09-2020 22:00:00 18.525 C 11.98 g/m*3 18.52 C 0 km/h
1824 14-09-2020 23:00:00 17.08333 C 11.72 g/m*3 17.08 C 0 km/h
1825 15-09-2020 00:00:00 16.23333 C 11.47 g/m*3 16.23 C 0 km/h
Sensor: Nr:Datum:Temp:Abs-Feuchte:Windchill:Wind:
Aussen-T/F 1826 15-09-2020 01:00:00 15.45833 C 11.28 g/m*3 15.46 C 0 km/h
1827 15-09-2020 02:00:00 14.9 C 11.08 g/m*3 14.9 C 0 km/h
1828 15-09-2020 03:00:00 14.15833 C 10.84 g/m*3 14.16 C 0 km/h
1829 15-09-2020 04:00:00 13.54167 C 10.59 g/m*3 13.54 C 0 km/h
1830 15-09-2020 05:00:00 13.10833 C 10.5 g/m*3 13.11 C 0 km/h
1831 15-09-2020 06:00:00 12.50833 C 10.19 g/m*3 12.51 C 0 km/h
1832 15-09-2020 07:00:00 12.2 C 10.11 g/m*3 12.2 C 0 km/h
1833 15-09-2020 08:00:00 12.53333 C 10.43 g/m*3 12.53 C 0 km/h
1834 15-09-2020 09:00:00 13.69167 C 11.29 g/m*3 13.69 C 0 km/h
1835 15-09-2020 10:00:00 15.39167 C 12.46 g/m*3 15.39 C 0 km/h
1836 15-09-2020 11:00:00 18.00833 C 13.23 g/m*3 18.01 C 0 km/h
1837 15-09-2020 12:00:00 21.76667 C 14.25 g/m*3 21.77 C 0 km/h
1838 15-09-2020 13:00:00 25.79167 C 13.96 g/m*3 25.79 C 1.6 km/h
1839 15-09-2020 14:00:00 29.24167 C 12.37 g/m*3 29.24 C 4.13333 km/h
1840 15-09-2020 15:00:00 30.65833 C 10.87 g/m*3 30.66 C 5.225 km/h
1841 15-09-2020 16:00:00 31.5 C 9.92 g/m*3 31.5 C 4.93333 km/h
1842 15-09-2020 17:00:00 33.19167 C 10.43 g/m*3 33.19 C 4.53333 km/h
1843 15-09-2020 18:00:00 31.875 C 12.58 g/m*3 31.88 C 3.73333 km/h
1844 15-09-2020 19:00:00 27.65833 C 11.92 g/m*3 27.66 C 3.33333 km/h
1845 15-09-2020 20:00:00 24.3 C 11.82 g/m*3 24.3 C 4.4 km/h
1846 15-09-2020 21:00:00 22.05833 C 12.2 g/m*3 22.06 C 0.13333 km/h
1847 15-09-2020 22:00:00 20.48333 C 12.41 g/m*3 20.48 C 0 km/h
1848 15-09-2020 23:00:00 18.90833 C 12.33 g/m*3 18.91 C 0 km/h
1849 16-09-2020 00:00:00 18.13333 C 12.04 g/m*3 18.13 C 0 km/h
1850 16-09-2020 01:00:00 17.29167 C 11.8 g/m*3 17.29 C 0 km/h
Sensor: Nr:Datum:Temp:Abs-Feuchte:Windchill:Wind:
Aussen-T/F 1851 16-09-2020 02:00:00 16.225 C 11.64 g/m*3 16.23 C 0 km/h
1852 16-09-2020 03:00:00 15.49167 C 11.43 g/m*3 15.49 C 0 km/h
1853 16-09-2020 04:00:00 14.95 C 11.31 g/m*3 14.95 C 0 km/h
1854 16-09-2020 05:00:00 14.5 C 11.19 g/m*3 14.5 C 0.4 km/h
1855 16-09-2020 06:00:00 14.25833 C 11.14 g/m*3 14.26 C 0 km/h
1856 16-09-2020 07:00:00 14.1 C 11.15 g/m*3 14.1 C 0.26667 km/h
1857 16-09-2020 08:00:00 14.51667 C 11.45 g/m*3 14.52 C 0 km/h
1858 16-09-2020 09:00:00 15.54167 C 12.13 g/m*3 15.54 C 0 km/h
1859 16-09-2020 10:00:00 18.19167 C 13.13 g/m*3 18.19 C 0.26667 km/h
1860 16-09-2020 11:00:00 20.775 C 13.49 g/m*3 20.78 C 0.13333 km/h
1861 16-09-2020 12:00:00 23.24167 C 14 g/m*3 23.24 C 0 km/h
1862 16-09-2020 13:00:00 24.46667 C 14.33 g/m*3 24.47 C 0.13333 km/h
1863 16-09-2020 14:00:00 26.5 C 14.56 g/m*3 26.5 C 1.6 km/h
1864 16-09-2020 15:00:00 28.38333 C 14.58 g/m*3 28.38 C 1.46667 km/h
1865 16-09-2020 16:00:00 30.15 C 12.08 g/m*3 30.15 C 12.35833 km/h
1866 16-09-2020 17:00:00 28.55833 C 14.56 g/m*3 28.56 C 13.96667 km/h
1867 16-09-2020 18:00:00 26.775 C 15.19 g/m*3 26.78 C 13.56667 km/h
1868 16-09-2020 19:00:00 25.28333 C 15.03 g/m*3 25.28 C 5.63333 km/h
1869 16-09-2020 20:00:00 22.91667 C 14.49 g/m*3 22.92 C 2.53333 km/h
1870 16-09-2020 21:00:00 22.29167 C 14.31 g/m*3 22.29 C 4.69167 km/h
1871 16-09-2020 22:00:00 22.30833 C 14.01 g/m*3 22.31 C 7.66667 km/h
1872 16-09-2020 23:00:00 21.24167 C 13.41 g/m*3 21.24 C 3.75 km/h
1873 17-09-2020 00:00:00 20.75 C 13.12 g/m*3 20.75 C 8.05833 km/h
1874 17-09-2020 01:00:00 20.09167 C 12.51 g/m*3 20.09 C 6.71667 km/h
1875 17-09-2020 02:00:00 18.75 C 12.07 g/m*3 18.75 C 5.23333 km/h
Sensor: Nr:Datum:Temp:Abs-Feuchte:Windchill:Wind:
Aussen-T/F 1876 17-09-2020 03:00:00 17.31667 C 11.82 g/m*3 17.32 C 2.8 km/h
1877 17-09-2020 04:00:00 17.36667 C 11.98 g/m*3 17.37 C 8.74167 km/h
1878 17-09-2020 05:00:00 17.125 C 11.71 g/m*3 17.13 C 7.375 km/h
1879 17-09-2020 06:00:00 16.86667 C 11.44 g/m*3 16.87 C 6.15833 km/h
1880 17-09-2020 07:00:00 16.63333 C 11.36 g/m*3 16.63 C 5.89167 km/h
1881 17-09-2020 08:00:00 16.08333 C 10.89 g/m*3 16.08 C 9.425 km/h
1882 17-09-2020 09:00:00 15.66667 C 10.46 g/m*3 15.67 C 8.06667 km/h
1883 17-09-2020 10:00:00 16.05 C 9.52 g/m*3 16.05 C 6.71667 km/h
1884 17-09-2020 11:00:00 16.4 C 9.11 g/m*3 16.4 C 10.48333 km/h
1885 17-09-2020 12:00:00 17.575 C 9.16 g/m*3 17.58 C 12.76667 km/h
1886 17-09-2020 13:00:00 18.81667 C 8.75 g/m*3 18.82 C 14.23333 km/h
1887 17-09-2020 14:00:00 20.15833 C 7.94 g/m*3 20.16 C 13.29167 km/h
1888 17-09-2020 15:00:00 20.91667 C 7.64 g/m*3 20.92 C 12.5 km/h
1889 17-09-2020 16:00:00 21.61667 C 7.28 g/m*3 21.62 C 14.63333 km/h
1890 17-09-2020 17:00:00 22.10833 C 7.36 g/m*3 22.11 C 15.3 km/h
1891 17-09-2020 18:00:00 21.83333 C 7.63 g/m*3 21.83 C 10.33333 km/h
1892 17-09-2020 19:00:00 19.575 C 8.01 g/m*3 19.58 C 2.40833 km/h
1893 17-09-2020 20:00:00 15.91667 C 8.08 g/m*3 15.92 C 1.34167 km/h
1894 17-09-2020 21:00:00 14.69167 C 8.1 g/m*3 14.69 C 1.6 km/h
1895 17-09-2020 22:00:00 14.66667 C 8.24 g/m*3 14.67 C 2.00833 km/h
1896 17-09-2020 23:00:00 13.575 C 8.15 g/m*3 13.58 C 1.475 km/h
1897 18-09-2020 00:00:00 12.5 C 8.11 g/m*3 12.5 C 0.53333 km/h
1898 18-09-2020 01:00:00 12.25833 C 8.1 g/m*3 12.26 C 2.41667 km/h
1899 18-09-2020 02:00:00 12.55833 C 7.99 g/m*3 12.56 C 3.46667 km/h
1900 18-09-2020 03:00:00 10.925 C 7.75 g/m*3 10.93 C 3.46667 km/h
Sensor: Nr:Datum:Temp:Abs-Feuchte:Windchill:Wind:
Aussen-T/F 1901 18-09-2020 04:00:00 10.14167 C 7.61 g/m*3 10.14 C 4.13333 km/h
1902 18-09-2020 05:00:00 9.55833 C 7.49 g/m*3 9.56 C 1.33333 km/h
1903 18-09-2020 06:00:00 9.28333 C 7.45 g/m*3 9.28 C 0.53333 km/h
1904 18-09-2020 07:00:00 9.18333 C 7.51 g/m*3 9.18 C 1.86667 km/h
1905 18-09-2020 08:00:00 10.18333 C 7.93 g/m*3 10.18 C 0 km/h
1906 18-09-2020 09:00:00 11.2 C 8.2 g/m*3 11.2 C 1.86667 km/h
1907 18-09-2020 10:00:00 13.375 C 8.41 g/m*3 13.38 C 5.21667 km/h
1908 18-09-2020 11:00:00 16.19167 C 8.82 g/m*3 16.19 C 8.33333 km/h
1909 18-09-2020 12:00:00 18.7 C 9.38 g/m*3 18.7 C 8.6 km/h
1910 18-09-2020 13:00:00 21.04167 C 10.18 g/m*3 21.04 C 12.36667 km/h
1911 18-09-2020 14:00:00 22.58333 C 10.24 g/m*3 22.58 C 13.83333 km/h
1912 18-09-2020 15:00:00 23.04167 C 9.98 g/m*3 23.04 C 13.83333 km/h
1913 18-09-2020 16:00:00 23.66667 C 9.91 g/m*3 23.67 C 12.1 km/h
1914 18-09-2020 17:00:00 24.73333 C 9.77 g/m*3 24.73 C 8.46667 km/h
1915 18-09-2020 18:00:00 24.55 C 9.5 g/m*3 24.55 C 6.58333 km/h
1916 18-09-2020 19:00:00 21.19167 C 9.55 g/m*3 21.19 C 4.40833 km/h
1917 18-09-2020 20:00:00 16.91667 C 9.06 g/m*3 16.92 C 3.86667 km/h
1918 18-09-2020 21:00:00 15.46667 C 8.63 g/m*3 15.47 C 5.06667 km/h
1919 18-09-2020 22:00:00 14.61667 C 8.02 g/m*3 14.62 C 0.66667 km/h
1920 18-09-2020 23:00:00 14.05833 C 7.91 g/m*3 14.06 C 2.8 km/h
1921 19-09-2020 00:00:00 13.54167 C 7.74 g/m*3 13.54 C 2.53333 km/h
1922 19-09-2020 01:00:00 12.625 C 7.61 g/m*3 12.63 C 4 km/h
1923 19-09-2020 02:00:00 11.63333 C 7.47 g/m*3 11.63 C 1.6 km/h
1924 19-09-2020 03:00:00 10.375 C 7.31 g/m*3 10.38 C 0.93333 km/h
1925 19-09-2020 04:00:00 9.625 C 7.21 g/m*3 9.63 C 0 km/h
Sensor: Nr:Datum:Temp:Abs-Feuchte:Windchill:Wind:
Aussen-T/F 1926 19-09-2020 05:00:00 8.825 C 7.08 g/m*3 8.82 C 0 km/h
1927 19-09-2020 06:00:00 8.175 C 7.04 g/m*3 8.18 C 0 km/h
1928 19-09-2020 07:00:00 7.68333 C 7.04 g/m*3 7.68 C 0 km/h
1929 19-09-2020 08:00:00 7.94167 C 7.32 g/m*3 7.94 C 0 km/h
1930 19-09-2020 09:00:00 8.91667 C 7.76 g/m*3 8.92 C 0 km/h
1931 19-09-2020 10:00:00 11.41667 C 8.33 g/m*3 11.42 C 0.8 km/h
1932 19-09-2020 11:00:00 15.09167 C 8.6 g/m*3 15.09 C 2.53333 km/h
1933 19-09-2020 12:00:00 19.15 C 8.7 g/m*3 19.15 C 7.93333 km/h
1934 19-09-2020 13:00:00 21.125 C 8.61 g/m*3 21.13 C 6.16667 km/h
1935 19-09-2020 14:00:00 23.24167 C 8.63 g/m*3 23.24 C 8.46667 km/h
1936 19-09-2020 15:00:00 24.33333 C 8.48 g/m*3 24.33 C 8.31667 km/h
1937 19-09-2020 16:00:00 25.29167 C 8.19 g/m*3 25.29 C 9.41667 km/h
1938 19-09-2020 17:00:00 26.2 C 8.17 g/m*3 26.2 C 8.34167 km/h
1939 19-09-2020 18:00:00 26.39167 C 8.38 g/m*3 26.39 C 3.2 km/h
1940 19-09-2020 19:00:00 21.7 C 8.12 g/m*3 21.7 C 2.13333 km/h
1941 19-09-2020 20:00:00 17.99167 C 7.84 g/m*3 17.99 C 4.4 km/h
1942 19-09-2020 21:00:00 16.35833 C 7.92 g/m*3 16.36 C 4.93333 km/h
1943 19-09-2020 22:00:00 15.54167 C 8.16 g/m*3 15.54 C 1.86667 km/h
1944 19-09-2020 23:00:00 14.425 C 8.17 g/m*3 14.43 C 0 km/h
1945 20-09-2020 00:00:00 13.7 C 8.25 g/m*3 13.7 C 0.13333 km/h
1946 20-09-2020 01:00:00 12.70833 C 8.27 g/m*3 12.71 C 0 km/h
1947 20-09-2020 02:00:00 11.76667 C 7.98 g/m*3 11.77 C 0 km/h
1948 20-09-2020 03:00:00 10.6 C 7.73 g/m*3 10.6 C 0 km/h
1949 20-09-2020 04:00:00 9.84167 C 7.5 g/m*3 9.84 C 0 km/h
1950 20-09-2020 05:00:00 9.49167 C 7.6 g/m*3 9.49 C 0 km/h
Sensor: Nr:Datum:Temp:Abs-Feuchte:Windchill:Wind:
Aussen-T/F 1951 20-09-2020 06:00:00 8.96667 C 7.46 g/m*3 8.97 C 0 km/h
1952 20-09-2020 07:00:00 8.3 C 7.32 g/m*3 8.3 C 0 km/h
1953 20-09-2020 08:00:00 8.71667 C 7.73 g/m*3 8.72 C 0 km/h
1954 20-09-2020 09:00:00 9.625 C 8.21 g/m*3 9.63 C 0 km/h
1955 20-09-2020 10:00:00 11.55833 C 9 g/m*3 11.56 C 0 km/h
1956 20-09-2020 11:00:00 14.05833 C 9.46 g/m*3 14.06 C 0 km/h
1957 20-09-2020 12:00:00 18.15833 C 9.75 g/m*3 18.16 C 1.06667 km/h
1958 20-09-2020 13:00:00 21.14167 C 9.27 g/m*3 21.14 C 4.53333 km/h
1959 20-09-2020 14:00:00 22.81667 C 8.88 g/m*3 22.82 C 3.6 km/h
1960 20-09-2020 15:00:00 22.975 C 9.78 g/m*3 22.98 C 1.33333 km/h
1961 20-09-2020 16:00:00 22.65 C 9.75 g/m*3 22.65 C 1.06667 km/h
1962 20-09-2020 17:00:00 23.95833 C 9.93 g/m*3 23.96 C 1.86667 km/h
1963 20-09-2020 18:00:00 21.43333 C 9.47 g/m*3 21.43 C 5.06667 km/h
1964 20-09-2020 19:00:00 18.625 C 8.91 g/m*3 18.63 C 3.6 km/h
1965 20-09-2020 20:00:00 15.78333 C 8.29 g/m*3 15.78 C 1.33333 km/h
1966 20-09-2020 21:00:00 14.3 C 8.13 g/m*3 14.3 C 0 km/h
1967 20-09-2020 22:00:00 13.075 C 8.3 g/m*3 13.08 C 0 km/h
1968 20-09-2020 23:00:00 11.68333 C 8.05 g/m*3 11.68 C 0 km/h
1969 21-09-2020 00:00:00 10.94167 C 7.88 g/m*3 10.94 C 0 km/h
1970 21-09-2020 01:00:00 10.25833 C 7.8 g/m*3 10.26 C 0 km/h
1971 21-09-2020 02:00:00 9.54167 C 7.67 g/m*3 9.54 C 0 km/h
1972 21-09-2020 03:00:00 9.03333 C 7.62 g/m*3 9.03 C 0 km/h
1973 21-09-2020 04:00:00 8.55 C 7.54 g/m*3 8.55 C 0 km/h
1974 21-09-2020 05:00:00 8.15 C 7.44 g/m*3 8.15 C 0 km/h
1975 21-09-2020 06:00:00 7.79167 C 7.35 g/m*3 7.79 C 0 km/h
Sensor: Nr:Datum:Temp:Abs-Feuchte:Windchill:Wind:
Aussen-T/F 1976 21-09-2020 07:00:00 7.34167 C 7.22 g/m*3 7.34 C 0 km/h
1977 21-09-2020 08:00:00 7.525 C 7.4 g/m*3 7.53 C 0 km/h
1978 21-09-2020 09:00:00 8.475 C 7.84 g/m*3 8.48 C 0 km/h
1979 21-09-2020 10:00:00 10.075 C 8.54 g/m*3 10.07 C 0 km/h
1980 21-09-2020 11:00:00 13.05833 C 9.27 g/m*3 13.06 C 0 km/h
1981 21-09-2020 12:00:00 17.375 C 10.1 g/m*3 17.38 C 0 km/h
1982 21-09-2020 13:00:00 20.58333 C 9.88 g/m*3 20.58 C 1.73333 km/h
1983 21-09-2020 14:00:00 23.44167 C 9.01 g/m*3 23.44 C 7.78333 km/h
1984 21-09-2020 15:00:00 24.26667 C 8.56 g/m*3 24.27 C 5.21667 km/h
1985 21-09-2020 16:00:00 24.63333 C 8.44 g/m*3 24.63 C 5.9 km/h
1986 21-09-2020 17:00:00 26.25833 C 8.64 g/m*3 26.26 C 2.93333 km/h
1987 21-09-2020 18:00:00 25.7 C 9.36 g/m*3 25.7 C 3.06667 km/h
1988 21-09-2020 19:00:00 21.13333 C 8.71 g/m*3 21.13 C 5.73333 km/h
1989 21-09-2020 20:00:00 17.55833 C 8.53 g/m*3 17.56 C 0.93333 km/h
1990 21-09-2020 21:00:00 15.46667 C 8.53 g/m*3 15.47 C 0 km/h
1991 21-09-2020 22:00:00 13.98333 C 8.46 g/m*3 13.98 C 0 km/h
1992 21-09-2020 23:00:00 12.9 C 8.51 g/m*3 12.9 C 0 km/h
1993 22-09-2020 00:00:00 11.80833 C 8.37 g/m*3 11.81 C 0 km/h
1994 22-09-2020 01:00:00 11.33333 C 8.3 g/m*3 11.33 C 0 km/h
1995 22-09-2020 02:00:00 10.66667 C 8.11 g/m*3 10.67 C 0 km/h
1996 22-09-2020 03:00:00 9.80833 C 7.97 g/m*3 9.81 C 0 km/h
1997 22-09-2020 04:00:00 9.34167 C 7.89 g/m*3 9.34 C 0 km/h
1998 22-09-2020 05:00:00 8.98333 C 7.85 g/m*3 8.98 C 0 km/h
1999 22-09-2020 06:00:00 8.51667 C 7.72 g/m*3 8.52 C 0 km/h
2000 22-09-2020 07:00:00 8.2 C 7.65 g/m*3 8.2 C 0 km/h
Sensor: Nr:Datum:Temp:Abs-Feuchte:Windchill:Wind:
Aussen-T/F 2001 22-09-2020 08:00:00 8.54167 C 7.93 g/m*3 8.54 C 0 km/h
2002 22-09-2020 09:00:00 9.45833 C 8.44 g/m*3 9.46 C 0 km/h
2003 22-09-2020 10:00:00 11.10833 C 9.2 g/m*3 11.11 C 0 km/h
2004 22-09-2020 11:00:00 14.18333 C 10.12 g/m*3 14.18 C 0 km/h
2005 22-09-2020 12:00:00 18.30833 C 11.09 g/m*3 18.31 C 0.13333 km/h
2006 22-09-2020 13:00:00 22.025 C 10.46 g/m*3 22.03 C 4.29167 km/h
2007 22-09-2020 14:00:00 25.39167 C 9.49 g/m*3 25.39 C 11.15833 km/h
2008 22-09-2020 15:00:00 26.09167 C 9.07 g/m*3 26.09 C 11.025 km/h
2009 22-09-2020 16:00:00 26.51667 C 8.75 g/m*3 26.52 C 11.3 km/h
2010 22-09-2020 17:00:00 27.45833 C 9.39 g/m*3 27.46 C 8.85833 km/h
2011 22-09-2020 18:00:00 27.34167 C 10.25 g/m*3 27.34 C 4.54167 km/h
2012 22-09-2020 19:00:00 22.64167 C 10.15 g/m*3 22.64 C 6.14167 km/h
2013 22-09-2020 20:00:00 19.275 C 9.9 g/m*3 19.27 C 4.26667 km/h
2014 22-09-2020 21:00:00 17.68333 C 9.7 g/m*3 17.68 C 0.66667 km/h
2015 22-09-2020 22:00:00 16.43333 C 9.49 g/m*3 16.43 C 0.66667 km/h
2016 22-09-2020 23:00:00 15.40833 C 9.31 g/m*3 15.41 C 0.66667 km/h
2017 23-09-2020 00:00:00 14.45833 C 9.15 g/m*3 14.46 C 0.13333 km/h
2018 23-09-2020 01:00:00 14.04167 C 9.23 g/m*3 14.04 C 0.53333 km/h
2019 23-09-2020 02:00:00 14.49167 C 9.4 g/m*3 14.49 C 0.93333 km/h
2020 23-09-2020 03:00:00 13.925 C 9.36 g/m*3 13.93 C 0 km/h
2021 23-09-2020 04:00:00 14.06667 C 9.45 g/m*3 14.07 C 0 km/h
2022 23-09-2020 05:00:00 12.775 C 8.94 g/m*3 12.78 C 0.13333 km/h
2023 23-09-2020 06:00:00 12.125 C 8.85 g/m*3 12.13 C 0.4 km/h
2024 23-09-2020 07:00:00 13.225 C 9.12 g/m*3 13.23 C 1.46667 km/h
2025 23-09-2020 08:00:00 14.025 C 9.27 g/m*3 14.03 C 1.33333 km/h
Sensor: Nr:Datum:Temp:Abs-Feuchte:Windchill:Wind:
Aussen-T/F 2026 23-09-2020 09:00:00 14.29167 C 9.33 g/m*3 14.29 C 3.89167 km/h
2027 23-09-2020 10:00:00 17.35833 C 9.01 g/m*3 17.36 C 11.16667 km/h
2028 23-09-2020 11:00:00 19.13333 C 9.62 g/m*3 19.13 C 10.35833 km/h
2029 23-09-2020 12:00:00 20.29167 C 10.55 g/m*3 20.29 C 14.1 km/h
2030 23-09-2020 13:00:00 21.65 C 10.84 g/m*3 21.65 C 11.41667 km/h
2031 23-09-2020 14:00:00 23.03333 C 11.07 g/m*3 23.03 C 12.1 km/h
2032 23-09-2020 15:00:00 23.40833 C 11.2 g/m*3 23.41 C 11.56667 km/h
2033 23-09-2020 16:00:00 23.63333 C 11.24 g/m*3 23.63 C 11.29167 km/h
2034 23-09-2020 17:00:00 23.78333 C 11.28 g/m*3 23.78 C 9.93333 km/h
2035 23-09-2020 18:00:00 22.60833 C 11.1 g/m*3 22.61 C 5.225 km/h
2036 23-09-2020 19:00:00 19.48333 C 11.16 g/m*3 19.48 C 1.46667 km/h
2037 23-09-2020 20:00:00 17.35833 C 11.11 g/m*3 17.36 C 1.33333 km/h
2038 23-09-2020 21:00:00 17.51667 C 11.47 g/m*3 17.52 C 2.54167 km/h
2039 23-09-2020 22:00:00 17.64167 C 11.64 g/m*3 17.64 C 0.53333 km/h
2040 23-09-2020 23:00:00 17.50833 C 11.75 g/m*3 17.51 C 1.6 km/h
2041 24-09-2020 00:00:00 17.73333 C 11.75 g/m*3 17.73 C 4.15833 km/h
2042 24-09-2020 01:00:00 18.28333 C 11.99 g/m*3 18.28 C 4.825 km/h
2043 24-09-2020 02:00:00 17.56667 C 12.81 g/m*3 17.57 C 4.825 km/h
2044 24-09-2020 03:00:00 16.18333 C 12.66 g/m*3 16.18 C 1.2 km/h
2045 24-09-2020 04:00:00 16.03333 C 12.81 g/m*3 16.03 C 1.86667 km/h
2046 24-09-2020 05:00:00 15.95 C 12.75 g/m*3 15.95 C 6.975 km/h
2047 24-09-2020 06:00:00 14.54167 C 10.71 g/m*3 14.54 C 10.08333 km/h
2048 24-09-2020 07:00:00 12.025 C 9.55 g/m*3 12.03 C 6.56667 km/h
2049 24-09-2020 08:00:00 12.25 C 9.62 g/m*3 12.25 C 8.05833 km/h
2050 24-09-2020 09:00:00 12.63333 C 9.51 g/m*3 12.63 C 10.88333 km/h
Sensor: Nr:Datum:Temp:Abs-Feuchte:Windchill:Wind:
Aussen-T/F 2051 24-09-2020 10:00:00 13.7 C 9.32 g/m*3 13.7 C 12.23333 km/h
2052 24-09-2020 11:00:00 14.74167 C 9.1 g/m*3 14.74 C 12.63333 km/h
2053 24-09-2020 12:00:00 16.88333 C 9.21 g/m*3 16.88 C 11.16667 km/h
2054 24-09-2020 13:00:00 17.73333 C 9.06 g/m*3 17.73 C 15.16667 km/h
2055 24-09-2020 14:00:00 18.99167 C 9.08 g/m*3 18.99 C 14.36667 km/h
2056 24-09-2020 15:00:00 19.575 C 9.29 g/m*3 19.58 C 9.80833 km/h
2057 24-09-2020 16:00:00 19.71667 C 9.49 g/m*3 19.72 C 7.25833 km/h
2058 24-09-2020 17:00:00 19.775 C 9.88 g/m*3 19.77 C 4.53333 km/h
2059 24-09-2020 18:00:00 18.85833 C 10.63 g/m*3 18.86 C 2.14167 km/h
2060 24-09-2020 19:00:00 17.05 C 11.02 g/m*3 17.05 C 2.26667 km/h
2061 24-09-2020 20:00:00 16.075 C 10.86 g/m*3 16.08 C 2.26667 km/h
2062 24-09-2020 21:00:00 15.05 C 10.64 g/m*3 15.05 C 1.2 km/h
2063 24-09-2020 22:00:00 14.40833 C 10.66 g/m*3 14.41 C 0.93333 km/h
2064 24-09-2020 23:00:00 13.76667 C 10.49 g/m*3 13.77 C 0.93333 km/h
2065 25-09-2020 00:00:00 13.675 C 10.62 g/m*3 13.68 C 0.13333 km/h
2066 25-09-2020 01:00:00 13.925 C 10.79 g/m*3 13.93 C 0.93333 km/h
2067 25-09-2020 02:00:00 13.73333 C 10.52 g/m*3 13.73 C 10.05 km/h
2068 25-09-2020 03:00:00 12.15 C 9.83 g/m*3 12.15 C 8.59167 km/h
2069 25-09-2020 04:00:00 11.275 C 9.42 g/m*3 11.28 C 3.46667 km/h
2070 25-09-2020 05:00:00 10.76667 C 9.2 g/m*3 10.77 C 4.40833 km/h
2071 25-09-2020 06:00:00 10.50833 C 8.98 g/m*3 10.16 C 5.61667 km/h
2072 25-09-2020 07:00:00 9.875 C 8.53 g/m*3 9.88 C 4.55833 km/h
2073 25-09-2020 08:00:00 9.525 C 8.33 g/m*3 9.53 C 2.40833 km/h
2074 25-09-2020 09:00:00 10.25833 C 8.22 g/m*3 10.26 C 2.8 km/h
2075 25-09-2020 10:00:00 11.35 C 8.39 g/m*3 11.35 C 3.875 km/h
Sensor: Nr:Datum:Temp:Abs-Feuchte:Windchill:Wind:
Aussen-T/F 2076 25-09-2020 11:00:00 12.40833 C 8.49 g/m*3 12.41 C 8.6 km/h
2077 25-09-2020 12:00:00 13.21667 C 8.35 g/m*3 13.22 C 11.96667 km/h
2078 25-09-2020 13:00:00 13.54167 C 8.25 g/m*3 13.54 C 10.88333 km/h
2079 25-09-2020 14:00:00 13.03333 C 8.97 g/m*3 13.03 C 3.61667 km/h
2080 25-09-2020 15:00:00 13.65 C 9.26 g/m*3 13.65 C 3.6 km/h
2081 25-09-2020 16:00:00 14.23333 C 9.1 g/m*3 14.23 C 7.125 km/h
2082 25-09-2020 17:00:00 14.25 C 8.79 g/m*3 14.25 C 7.525 km/h
2083 25-09-2020 18:00:00 12.89167 C 8.7 g/m*3 12.89 C 9.93333 km/h
2084 25-09-2020 19:00:00 11.88333 C 8.54 g/m*3 11.88 C 6.3 km/h
2085 25-09-2020 20:00:00 11.75833 C 8.49 g/m*3 11.76 C 6.7 km/h
2086 25-09-2020 21:00:00 11.53333 C 8.06 g/m*3 11.53 C 7.50833 km/h
2087 25-09-2020 22:00:00 11.425 C 8.07 g/m*3 11.43 C 8.74167 km/h
2088 25-09-2020 23:00:00 11.20833 C 8.14 g/m*3 11.21 C 10.35833 km/h
2089 26-09-2020 00:00:00 10.7 C 8.06 g/m*3 8.94 C 13.7 km/h
2090 26-09-2020 01:00:00 10.61667 C 7.93 g/m*3 9.05 C 12.1 km/h
2091 26-09-2020 02:00:00 10.5 C 7.9 g/m*3 9.04 C 11.15833 km/h
2092 26-09-2020 03:00:00 10.05 C 7.82 g/m*3 7.8 C 16.5 km/h
2093 26-09-2020 04:00:00 9.81667 C 7.59 g/m*3 7.28 C 18.63333 km/h
2094 26-09-2020 05:00:00 9.73333 C 7.39 g/m*3 7.07 C 19.7 km/h
2095 26-09-2020 06:00:00 9.65833 C 7.53 g/m*3 6.92 C 20.23333 km/h
2096 26-09-2020 07:00:00 9.425 C 7.79 g/m*3 7.37 C 13.7 km/h
2097 26-09-2020 08:00:00 9.31667 C 8.14 g/m*3 7.78 C 10.20833 km/h
2098 26-09-2020 09:00:00 9.9 C 8.56 g/m*3 8.79 C 8.46667 km/h
2099 26-09-2020 10:00:00 10.91667 C 8.9 g/m*3 9.85 C 9.275 km/h
2100 26-09-2020 11:00:00 11.58333 C 9.14 g/m*3 11.58 C 7.38333 km/h
Sensor: Nr:Datum:Temp:Abs-Feuchte:Windchill:Wind:
Aussen-T/F 2101 26-09-2020 12:00:00 12.04167 C 9.06 g/m*3 12.04 C 11.55 km/h
2102 26-09-2020 13:00:00 11.48333 C 9.45 g/m*3 11.48 C 5.35833 km/h
2103 26-09-2020 14:00:00 11.69167 C 9.47 g/m*3 11.69 C 10.74167 km/h
2104 26-09-2020 15:00:00 11.375 C 9.32 g/m*3 11.38 C 11.69167 km/h
2105 26-09-2020 16:00:00 10.94167 C 9.01 g/m*3 9.5 C 11.68333 km/h
2106 26-09-2020 17:00:00 10.9 C 8.97 g/m*3 9.85 C 9.15833 km/h
2107 26-09-2020 18:00:00 10.81667 C 9.08 g/m*3 10.55 C 5.48333 km/h
2108 26-09-2020 19:00:00 10.68333 C 9.04 g/m*3 10.68 C 4.95833 km/h
2109 26-09-2020 20:00:00 10.36667 C 8.98 g/m*3 10.37 C 4.54167 km/h
2110 26-09-2020 21:00:00 10.2 C 8.99 g/m*3 10.2 C 2.26667 km/h
2111 26-09-2020 22:00:00 10.075 C 8.97 g/m*3 10.07 C 2.275 km/h
2112 26-09-2020 23:00:00 9.85 C 8.84 g/m*3 9.85 C 3.2 km/h
2113 27-09-2020 00:00:00 9.375 C 8.58 g/m*3 9.38 C 4.66667 km/h
2114 27-09-2020 01:00:00 8.88333 C 8.35 g/m*3 7.77 C 7.65 km/h
2115 27-09-2020 02:00:00 8.91667 C 8.42 g/m*3 7.55 C 8.85833 km/h
2116 27-09-2020 03:00:00 9.325 C 8.64 g/m*3 8.92 C 5.225 km/h
2117 27-09-2020 04:00:00 9.50833 C 8.74 g/m*3 9.51 C 1.74167 km/h
2118 27-09-2020 05:00:00 9.6 C 8.79 g/m*3 9.6 C 0.8 km/h
2119 27-09-2020 06:00:00 9.6 C 8.79 g/m*3 9.6 C 0.26667 km/h
2120 27-09-2020 07:00:00 9.6 C 8.79 g/m*3 9.6 C 0.26667 km/h
2121 27-09-2020 08:00:00 9.8 C 8.96 g/m*3 9.8 C 1.46667 km/h
2122 27-09-2020 09:00:00 10.59167 C 9.43 g/m*3 10.59 C 2.13333 km/h
2123 27-09-2020 10:00:00 11.24167 C 9.75 g/m*3 11.24 C 2 km/h
2124 27-09-2020 11:00:00 12.025 C 9.89 g/m*3 12.03 C 5.075 km/h
2125 27-09-2020 12:00:00 12.61667 C 9.85 g/m*3 12.62 C 5.48333 km/h
Sensor: Nr:Datum:Temp:Abs-Feuchte:Windchill:Wind:
Aussen-T/F 2126 27-09-2020 13:00:00 13.30833 C 10 g/m*3 13.31 C 6.71667 km/h
2127 27-09-2020 14:00:00 13.69167 C 9.59 g/m*3 13.69 C 6.41667 km/h
2128 27-09-2020 15:00:00 13.39167 C 9.35 g/m*3 13.39 C 3.2 km/h
2129 27-09-2020 16:00:00 13.13333 C 9.5 g/m*3 13.13 C 1.6 km/h
2130 27-09-2020 17:00:00 13.1 C 9.8 g/m*3 13.1 C 0 km/h
2131 27-09-2020 18:00:00 12.39167 C 9.7 g/m*3 12.39 C 2.13333 km/h
2132 27-09-2020 19:00:00 11.33333 C 9.22 g/m*3 11.33 C 2.4 km/h
2133 27-09-2020 20:00:00 10.89167 C 9.12 g/m*3 10.89 C 2 km/h
2134 27-09-2020 21:00:00 10.74167 C 9.14 g/m*3 10.74 C 1.46667 km/h
2135 27-09-2020 22:00:00 10.65833 C 9.11 g/m*3 10.66 C 0.26667 km/h
2136 27-09-2020 23:00:00 10.44167 C 9.06 g/m*3 10.44 C 1.46667 km/h
2137 28-09-2020 00:00:00 10.40833 C 9.06 g/m*3 10.41 C 1.33333 km/h
2138 28-09-2020 01:00:00 10.5 C 9.12 g/m*3 10.5 C 0.66667 km/h
2139 28-09-2020 02:00:00 10.39167 C 9.05 g/m*3 10.39 C 1.33333 km/h
2140 28-09-2020 03:00:00 10.20833 C 8.97 g/m*3 10.21 C 0 km/h
2141 28-09-2020 04:00:00 10.15833 C 8.98 g/m*3 10.16 C 0.4 km/h
2142 28-09-2020 05:00:00 10.11667 C 8.94 g/m*3 10.12 C 0.4 km/h
2143 28-09-2020 06:00:00 10.125 C 8.93 g/m*3 10.13 C 0.66667 km/h
2144 28-09-2020 07:00:00 10.075 C 8.86 g/m*3 10.07 C 0.26667 km/h
2145 28-09-2020 08:00:00 10.29167 C 9 g/m*3 10.29 C 0 km/h
2146 28-09-2020 09:00:00 10.79167 C 9.07 g/m*3 10.79 C 0.4 km/h
2147 28-09-2020 10:00:00 11.89167 C 9.08 g/m*3 11.89 C 2.66667 km/h
2148 28-09-2020 11:00:00 12.98333 C 9.14 g/m*3 12.98 C 4.95 km/h
2149 28-09-2020 12:00:00 13.725 C 9.11 g/m*3 13.73 C 4.41667 km/h
2150 28-09-2020 13:00:00 13.81667 C 9.36 g/m*3 13.82 C 5.775 km/h
Sensor: Nr:Datum:Temp:Abs-Feuchte:Windchill:Wind:
Aussen-T/F 2151 28-09-2020 14:00:00 14.01667 C 9.42 g/m*3 14.02 C 4.025 km/h
2152 28-09-2020 15:00:00 14.24167 C 9.13 g/m*3 14.24 C 4.95833 km/h
2153 28-09-2020 16:00:00 14 C 9.14 g/m*3 14 C 6.7 km/h
2154 28-09-2020 17:00:00 13.55833 C 9.11 g/m*3 13.56 C 6.025 km/h
2155 28-09-2020 18:00:00 13.25 C 9.24 g/m*3 13.25 C 2 km/h
2156 28-09-2020 19:00:00 12.45833 C 9.3 g/m*3 12.46 C 1.6 km/h
2157 28-09-2020 20:00:00 11.85833 C 9.08 g/m*3 11.86 C 0.8 km/h
2158 28-09-2020 21:00:00 10.86667 C 8.74 g/m*3 10.87 C 0.53333 km/h
2159 28-09-2020 22:00:00 10.80833 C 8.99 g/m*3 10.81 C 0 km/h
2160 28-09-2020 23:00:00 10.95 C 9.15 g/m*3 10.95 C 0.13333 km/h
2161 29-09-2020 00:00:00 10.975 C 9.19 g/m*3 10.98 C 0.26667 km/h
2162 29-09-2020 01:00:00 11.025 C 9.22 g/m*3 11.03 C 0.4 km/h
2163 29-09-2020 02:00:00 11.09167 C 9.26 g/m*3 11.09 C 0 km/h
2164 29-09-2020 03:00:00 11.13333 C 9.29 g/m*3 11.13 C 0 km/h
2165 29-09-2020 04:00:00 11.2 C 9.36 g/m*3 11.2 C 0 km/h
2166 29-09-2020 05:00:00 11.3 C 9.49 g/m*3 11.3 C 0 km/h
2167 29-09-2020 06:00:00 11.4 C 9.55 g/m*3 11.4 C 0 km/h
2168 29-09-2020 07:00:00 11.59167 C 9.74 g/m*3 11.59 C 0 km/h
2169 29-09-2020 08:00:00 11.81667 C 9.96 g/m*3 11.82 C 0 km/h
2170 29-09-2020 09:00:00 12.2 C 10.28 g/m*3 12.2 C 1.6 km/h
2171 29-09-2020 10:00:00 12.65 C 10.61 g/m*3 12.65 C 3.46667 km/h
2172 29-09-2020 11:00:00 13.18333 C 10.92 g/m*3 13.18 C 3.2 km/h
2173 29-09-2020 12:00:00 13.725 C 11.23 g/m*3 13.73 C 5.06667 km/h
2174 29-09-2020 13:00:00 14.1 C 11.38 g/m*3 14.1 C 6.01667 km/h
2175 29-09-2020 14:00:00 14.30833 C 11.62 g/m*3 14.31 C 6.43333 km/h
Sensor: Nr:Datum:Temp:Abs-Feuchte:Windchill:Wind:
Aussen-T/F 2176 29-09-2020 15:00:00 14.26667 C 11.54 g/m*3 14.27 C 7.93333 km/h
2177 29-09-2020 16:00:00 13.43333 C 10.98 g/m*3 13.43 C 5.21667 km/h
2178 29-09-2020 17:00:00 13.15833 C 10.88 g/m*3 13.16 C 2.14167 km/h
2179 29-09-2020 18:00:00 13.21667 C 10.92 g/m*3 13.22 C 1.86667 km/h
2180 29-09-2020 19:00:00 12.425 C 10.4 g/m*3 12.43 C 4.54167 km/h
2181 29-09-2020 20:00:00 11.55 C 9.84 g/m*3 11.55 C 0.13333 km/h
2182 29-09-2020 21:00:00 10.70833 C 9.34 g/m*3 10.71 C 0 km/h
2183 29-09-2020 22:00:00 10.24167 C 9.15 g/m*3 10.24 C 0 km/h
2184 29-09-2020 23:00:00 10.5 C 9.34 g/m*3 10.5 C 0 km/h
2185 30-09-2020 00:00:00 10.88333 C 9.64 g/m*3 10.88 C 0 km/h
2186 30-09-2020 01:00:00 11.05833 C 9.74 g/m*3 11.06 C 0 km/h
2187 30-09-2020 02:00:00 11.2 C 9.83 g/m*3 11.2 C 0 km/h
2188 30-09-2020 03:00:00 11.49167 C 10.01 g/m*3 11.49 C 0 km/h
2189 30-09-2020 04:00:00 11.75833 C 10.18 g/m*3 11.76 C 0 km/h
2190 30-09-2020 05:00:00 11.90833 C 10.28 g/m*3 11.91 C 0 km/h
2191 30-09-2020 06:00:00 12.11667 C 10.41 g/m*3 12.12 C 0 km/h
2192 30-09-2020 07:00:00 12.23333 C 10.49 g/m*3 12.23 C 0 km/h
2193 30-09-2020 08:00:00 12.65 C 10.76 g/m*3 12.65 C 0 km/h
2194 30-09-2020 09:00:00 13.59167 C 11.44 g/m*3 13.59 C 0 km/h
2195 30-09-2020 10:00:00 14.675 C 12.26 g/m*3 14.68 C 2.13333 km/h
2196 30-09-2020 11:00:00 15.65833 C 12.76 g/m*3 15.66 C 4.81667 km/h
2197 30-09-2020 12:00:00 16.64167 C 12.95 g/m*3 16.64 C 3.21667 km/h
2198 30-09-2020 13:00:00 16.89167 C 12.81 g/m*3 16.89 C 1.6 km/h
2199 30-09-2020 14:00:00 17.64167 C 12.94 g/m*3 17.64 C 3.46667 km/h
2200 30-09-2020 15:00:00 18.15 C 12.88 g/m*3 18.15 C 4.66667 km/h
Sensor: Nr:Datum:Temp:Abs-Feuchte:Windchill:Wind:
Aussen-T/F 2201 30-09-2020 16:00:00 17.9 C 12.66 g/m*3 17.9 C 3.86667 km/h
2202 30-09-2020 17:00:00 18.00833 C 12.6 g/m*3 18.01 C 3.46667 km/h
2203 30-09-2020 18:00:00 17.05 C 12.31 g/m*3 17.05 C 1.73333 km/h
2204 30-09-2020 19:00:00 15.55833 C 12.03 g/m*3 15.56 C 0.13333 km/h
2205 30-09-2020 20:00:00 14.54167 C 11.43 g/m*3 14.54 C 1.6 km/h
2206 30-09-2020 21:00:00 13.25833 C 10.69 g/m*3 13.26 C 1.2 km/h
2207 30-09-2020 22:00:00 12.175 C 10.12 g/m*3 12.18 C 2.13333 km/h
2208 30-09-2020 23:00:00 11.55 C 9.84 g/m*3 11.55 C 1.73333 km/h
2209 01-10-2020 00:00:00 11.06667 C 9.57 g/m*3 11.07 C 0.26667 km/h
2210 01-10-2020 01:00:00 10.68333 C 9.4 g/m*3 10.68 C 0.13333 km/h
2211 01-10-2020 02:00:00 10.15833 C 9.11 g/m*3 10.16 C 0.4 km/h
2212 01-10-2020 03:00:00 9.85833 C 8.94 g/m*3 9.86 C 0.13333 km/h
2213 01-10-2020 04:00:00 9.91667 C 9 g/m*3 9.92 C 0 km/h
2214 01-10-2020 05:00:00 10.48333 C 9.39 g/m*3 10.48 C 0 km/h
2215 01-10-2020 06:00:00 9.81667 C 8.98 g/m*3 9.82 C 0.26667 km/h
2216 01-10-2020 07:00:00 9.51667 C 8.81 g/m*3 9.52 C 0 km/h
2217 01-10-2020 08:00:00 10.05833 C 9.15 g/m*3 10.06 C 0 km/h
2218 01-10-2020 09:00:00 10.80833 C 9.59 g/m*3 10.81 C 0 km/h
2219 01-10-2020 10:00:00 12.25 C 10.57 g/m*3 12.25 C 2.94167 km/h
2220 01-10-2020 11:00:00 14.08333 C 11.38 g/m*3 14.08 C 2.8 km/h
2221 01-10-2020 12:00:00 16.04167 C 11.72 g/m*3 16.04 C 4.26667 km/h
2222 01-10-2020 13:00:00 16.95833 C 11.68 g/m*3 16.96 C 5.35 km/h
2223 01-10-2020 14:00:00 16.90833 C 11.52 g/m*3 16.91 C 2.13333 km/h
2224 01-10-2020 15:00:00 15.9 C 11.92 g/m*3 15.9 C 1.6 km/h
2225 01-10-2020 16:00:00 15.275 C 11.89 g/m*3 15.28 C 1.33333 km/h
Sensor: Nr:Datum:Temp:Abs-Feuchte:Windchill:Wind:
Aussen-T/F 2226 01-10-2020 17:00:00 15.23333 C 12.06 g/m*3 15.23 C 0.66667 km/h
2227 01-10-2020 18:00:00 16.05 C 12.38 g/m*3 16.05 C 2.94167 km/h
2228 01-10-2020 19:00:00 13.75 C 10.77 g/m*3 13.75 C 4.26667 km/h
2229 01-10-2020 20:00:00 12.34167 C 10.18 g/m*3 12.34 C 3.46667 km/h
2230 01-10-2020 21:00:00 12.33333 C 10.35 g/m*3 12.33 C 4.01667 km/h
2231 01-10-2020 22:00:00 11.475 C 9.8 g/m*3 11.48 C 1.6 km/h
2232 01-10-2020 23:00:00 10.825 C 9.48 g/m*3 10.83 C 4.41667 km/h
2233 02-10-2020 00:00:00 10.5 C 9.29 g/m*3 10.5 C 2.13333 km/h
2234 02-10-2020 01:00:00 9.85833 C 8.94 g/m*3 9.86 C 0 km/h
2235 02-10-2020 02:00:00 9.21667 C 8.58 g/m*3 9.22 C 0 km/h
2236 02-10-2020 03:00:00 8.675 C 8.29 g/m*3 8.68 C 0 km/h
2237 02-10-2020 04:00:00 8 C 7.94 g/m*3 8 C 0 km/h
2238 02-10-2020 05:00:00 7.8 C 7.86 g/m*3 7.8 C 0 km/h
2239 02-10-2020 06:00:00 8.13333 C 8.09 g/m*3 8.13 C 0 km/h
2240 02-10-2020 07:00:00 8.46667 C 8.26 g/m*3 8.47 C 0 km/h
2241 02-10-2020 08:00:00 9.19167 C 8.66 g/m*3 9.19 C 0 km/h
2242 02-10-2020 09:00:00 10.56667 C 9.51 g/m*3 10.57 C 3.20833 km/h
2243 02-10-2020 10:00:00 11.975 C 10.37 g/m*3 11.98 C 1.46667 km/h
2244 02-10-2020 11:00:00 12.54167 C 10.69 g/m*3 12.54 C 3.34167 km/h
2245 02-10-2020 12:00:00 14.15833 C 11.22 g/m*3 14.16 C 10.35833 km/h
2246 02-10-2020 13:00:00 16.11667 C 11.62 g/m*3 16.12 C 7.125 km/h
2247 02-10-2020 14:00:00 17.65 C 12.01 g/m*3 17.65 C 8.325 km/h
2248 02-10-2020 15:00:00 18.44167 C 12.31 g/m*3 18.44 C 5.08333 km/h
2249 02-10-2020 16:00:00 18.85 C 12.4 g/m*3 18.85 C 6.45 km/h
2250 02-10-2020 17:00:00 18.54167 C 12.15 g/m*3 18.54 C 6.70833 km/h
Sensor: Nr:Datum:Temp:Abs-Feuchte:Windchill:Wind:
Aussen-T/F 2251 02-10-2020 18:00:00 17.40833 C 12.01 g/m*3 17.41 C 6.98333 km/h
2252 02-10-2020 19:00:00 17.44167 C 11.96 g/m*3 17.44 C 6.3 km/h
2253 02-10-2020 20:00:00 17.15833 C 11.83 g/m*3 17.16 C 8.45 km/h
2254 02-10-2020 21:00:00 17.43333 C 11.78 g/m*3 17.43 C 4.55 km/h
2255 02-10-2020 22:00:00 16.725 C 11.56 g/m*3 16.73 C 4.40833 km/h
2256 02-10-2020 23:00:00 17.10833 C 11.29 g/m*3 17.11 C 10.875 km/h
2257 03-10-2020 00:00:00 17.35833 C 11.19 g/m*3 17.36 C 7.65833 km/h
2258 03-10-2020 01:00:00 17.16667 C 11.11 g/m*3 17.17 C 8.2 km/h
2259 03-10-2020 02:00:00 15.73333 C 10.9 g/m*3 15.73 C 3.33333 km/h
2260 03-10-2020 03:00:00 14.275 C 10.92 g/m*3 14.28 C 2.66667 km/h
2261 03-10-2020 04:00:00 14.19167 C 11.04 g/m*3 14.19 C 0 km/h
2262 03-10-2020 05:00:00 13.73333 C 10.79 g/m*3 13.73 C 0 km/h
2263 03-10-2020 06:00:00 13.3 C 10.69 g/m*3 13.3 C 0 km/h
2264 03-10-2020 07:00:00 13.45 C 10.91 g/m*3 13.45 C 2.675 km/h
2265 03-10-2020 08:00:00 13.85 C 11.19 g/m*3 13.85 C 5.61667 km/h
2266 03-10-2020 09:00:00 13.83333 C 11 g/m*3 13.83 C 7.78333 km/h
2267 03-10-2020 10:00:00 13.69167 C 10.6 g/m*3 13.69 C 11.7 km/h
2268 03-10-2020 11:00:00 13.53333 C 10.34 g/m*3 13.53 C 12.49167 km/h
2269 03-10-2020 12:00:00 13.08333 C 9.95 g/m*3 13.08 C 13.425 km/h
2270 03-10-2020 13:00:00 12.95833 C 9.74 g/m*3 12.96 C 10.85833 km/h
2271 03-10-2020 14:00:00 12.025 C 9.72 g/m*3 12.03 C 3.475 km/h
2272 03-10-2020 15:00:00 11.94167 C 9.8 g/m*3 11.94 C 1.73333 km/h
2273 03-10-2020 16:00:00 12.38333 C 9.75 g/m*3 12.38 C 1.86667 km/h
2274 03-10-2020 17:00:00 14.28333 C 10.3 g/m*3 14.28 C 2.8 km/h
2275 03-10-2020 18:00:00 14.45 C 10.22 g/m*3 14.45 C 3.86667 km/h
Sensor: Nr:Datum:Temp:Abs-Feuchte:Windchill:Wind:
Aussen-T/F 2276 03-10-2020 19:00:00 11.88333 C 9.51 g/m*3 11.88 C 2 km/h
2277 03-10-2020 20:00:00 11.4 C 9.23 g/m*3 11.4 C 2.26667 km/h
2278 03-10-2020 21:00:00 10.81667 C 9.13 g/m*3 10.82 C 0.8 km/h
2279 03-10-2020 22:00:00 10.35833 C 8.99 g/m*3 10.36 C 2.66667 km/h
2280 03-10-2020 23:00:00 11.19167 C 9.28 g/m*3 11.19 C 4.95 km/h
2281 04-10-2020 00:00:00 10.66667 C 8.95 g/m*3 10.67 C 2.66667 km/h
2282 04-10-2020 01:00:00 10.63333 C 9.13 g/m*3 10.63 C 1.2 km/h
2283 04-10-2020 02:00:00 10.38333 C 9.05 g/m*3 10.38 C 2.26667 km/h
2284 04-10-2020 03:00:00 9.925 C 8.83 g/m*3 9.93 C 1.6 km/h
2285 04-10-2020 04:00:00 9.96667 C 8.99 g/m*3 9.97 C 2.66667 km/h
2286 04-10-2020 05:00:00 10.38333 C 9.19 g/m*3 10.38 C 4.95 km/h
2287 04-10-2020 06:00:00 10.70833 C 9.34 g/m*3 10.71 C 4.95 km/h
2288 04-10-2020 07:00:00 10.53333 C 9.19 g/m*3 10.53 C 4.14167 km/h
2289 04-10-2020 08:00:00 10.43333 C 9.2 g/m*3 10.43 C 2 km/h
2290 04-10-2020 09:00:00 10.93333 C 9.33 g/m*3 10.79 C 5.075 km/h
2291 04-10-2020 10:00:00 11.56667 C 9.27 g/m*3 11.57 C 6.575 km/h
2292 04-10-2020 11:00:00 12.54167 C 8.98 g/m*3 12.54 C 16.9 km/h
2293 04-10-2020 12:00:00 13.175 C 8.75 g/m*3 13.18 C 12.63333 km/h
2294 04-10-2020 13:00:00 13.49167 C 8.29 g/m*3 13.49 C 12.36667 km/h
2295 04-10-2020 14:00:00 14.15 C 8.51 g/m*3 14.15 C 12.1 km/h
2296 04-10-2020 15:00:00 14.96667 C 8.66 g/m*3 14.97 C 8.86667 km/h
2297 04-10-2020 16:00:00 15.38333 C 8.65 g/m*3 15.38 C 6.85 km/h
2298 04-10-2020 17:00:00 15.00833 C 9.16 g/m*3 15.01 C 2.26667 km/h
2299 04-10-2020 18:00:00 14.2 C 9.61 g/m*3 14.2 C 1.86667 km/h
2300 04-10-2020 19:00:00 12.56667 C 9.45 g/m*3 12.57 C 4.69167 km/h
Sensor: Nr:Datum:Temp:Abs-Feuchte:Windchill:Wind:
Aussen-T/F 2301 04-10-2020 20:00:00 11.63333 C 9.5 g/m*3 11.63 C 0.93333 km/h
2302 04-10-2020 21:00:00 11.05 C 9.39 g/m*3 11.05 C 2.00833 km/h
2303 04-10-2020 22:00:00 9.9 C 8.77 g/m*3 9.9 C 1.33333 km/h
2304 04-10-2020 23:00:00 8.96667 C 8.34 g/m*3 8.97 C 0 km/h
2305 05-10-2020 00:00:00 8.61667 C 8.2 g/m*3 8.62 C 3.21667 km/h
2306 05-10-2020 01:00:00 8.59167 C 8.23 g/m*3 8.59 C 2.53333 km/h
2307 05-10-2020 02:00:00 9.175 C 8.58 g/m*3 9.18 C 3.06667 km/h
2308 05-10-2020 03:00:00 9.11667 C 8.56 g/m*3 9.12 C 1.33333 km/h
2309 05-10-2020 04:00:00 8.94167 C 8.48 g/m*3 8.94 C 2.66667 km/h
2310 05-10-2020 05:00:00 8.59167 C 8.28 g/m*3 8.59 C 3.33333 km/h
2311 05-10-2020 06:00:00 8.51667 C 8.29 g/m*3 8.52 C 3.33333 km/h
2312 05-10-2020 07:00:00 8.76667 C 8.42 g/m*3 8.77 C 1.86667 km/h
2313 05-10-2020 08:00:00 9.23333 C 8.68 g/m*3 9.23 C 2.8 km/h
2314 05-10-2020 09:00:00 10.125 C 9.19 g/m*3 10.13 C 2.93333 km/h
2315 05-10-2020 10:00:00 10.275 C 9.15 g/m*3 10.04 C 5.09167 km/h
2316 05-10-2020 11:00:00 11.60833 C 9.15 g/m*3 11.61 C 8.46667 km/h
2317 05-10-2020 12:00:00 12.90833 C 9.27 g/m*3 12.91 C 8.325 km/h
2318 05-10-2020 13:00:00 12.875 C 9.49 g/m*3 12.88 C 6.16667 km/h
2319 05-10-2020 14:00:00 13.1 C 10.07 g/m*3 13.1 C 4.29167 km/h
2320 05-10-2020 15:00:00 14.04167 C 10.13 g/m*3 14.04 C 9.54167 km/h
2321 05-10-2020 16:00:00 14.275 C 9.97 g/m*3 14.28 C 10.09167 km/h
2322 05-10-2020 17:00:00 13.65833 C 9.73 g/m*3 13.66 C 10.20833 km/h
2323 05-10-2020 18:00:00 13.375 C 9.75 g/m*3 13.38 C 3.34167 km/h
2324 05-10-2020 19:00:00 12.825 C 9.76 g/m*3 12.83 C 1.46667 km/h
2325 05-10-2020 20:00:00 12.09167 C 9.61 g/m*3 12.09 C 3.475 km/h
Sensor: Nr:Datum:Temp:Abs-Feuchte:Windchill:Wind:
Aussen-T/F 2326 05-10-2020 21:00:00 11.90833 C 9.74 g/m*3 11.91 C 0.8 km/h
2327 05-10-2020 22:00:00 11.59167 C 9.68 g/m*3 11.59 C 0.53333 km/h
2328 05-10-2020 23:00:00 11.53333 C 9.82 g/m*3 11.53 C 1.46667 km/h
2329 06-10-2020 00:00:00 11.79167 C 10.04 g/m*3 11.79 C 0.66667 km/h
2330 06-10-2020 01:00:00 11.8 C 10.1 g/m*3 11.8 C 2.14167 km/h
2331 06-10-2020 02:00:00 11.8 C 10.1 g/m*3 11.8 C 2.68333 km/h
2332 06-10-2020 03:00:00 11.93333 C 10.21 g/m*3 11.93 C 4.825 km/h
2333 06-10-2020 04:00:00 12.275 C 10.32 g/m*3 12.28 C 16.23333 km/h
2334 06-10-2020 05:00:00 12.11667 C 9.89 g/m*3 12.12 C 22.8 km/h
2335 06-10-2020 06:00:00 11.8 C 9.39 g/m*3 11.8 C 16.63333 km/h
2336 06-10-2020 07:00:00 11.70833 C 9.24 g/m*3 11.71 C 11.55833 km/h
2337 06-10-2020 08:00:00 11.95 C 9.26 g/m*3 11.95 C 8.73333 km/h
2338 06-10-2020 09:00:00 12.60833 C 9.52 g/m*3 12.61 C 5.075 km/h
2339 06-10-2020 10:00:00 13.3 C 9.8 g/m*3 13.3 C 6.99167 km/h
2340 06-10-2020 11:00:00 13.88333 C 10.12 g/m*3 13.88 C 11.3 km/h
2341 06-10-2020 12:00:00 14.80833 C 10.6 g/m*3 14.81 C 11.41667 km/h
2342 06-10-2020 13:00:00 15.05 C 10.65 g/m*3 15.05 C 8.06667 km/h
2343 06-10-2020 14:00:00 15.05 C 11.18 g/m*3 15.05 C 9.8 km/h
2344 06-10-2020 15:00:00 15.35833 C 10.91 g/m*3 15.36 C 14.76667 km/h
2345 06-10-2020 16:00:00 15.425 C 10.74 g/m*3 15.43 C 12.09167 km/h
2346 06-10-2020 17:00:00 14.78333 C 10.68 g/m*3 14.78 C 10.225 km/h
2347 06-10-2020 18:00:00 13.36667 C 10.46 g/m*3 13.37 C 8.88333 km/h
2348 06-10-2020 19:00:00 12.94167 C 10.1 g/m*3 12.94 C 9.525 km/h
2349 06-10-2020 20:00:00 12.86667 C 9.99 g/m*3 12.87 C 7.375 km/h
2350 06-10-2020 21:00:00 12.675 C 9.86 g/m*3 12.68 C 6.575 km/h
Sensor: Nr:Datum:Temp:Abs-Feuchte:Windchill:Wind:
Aussen-T/F 2351 06-10-2020 22:00:00 12.775 C 9.81 g/m*3 12.78 C 12.5 km/h
2352 06-10-2020 23:00:00 12.66667 C 9.66 g/m*3 12.67 C 12.5 km/h
2353 07-10-2020 00:00:00 12.25 C 9.53 g/m*3 12.25 C 9.40833 km/h
2354 07-10-2020 01:00:00 12.325 C 9.62 g/m*3 12.33 C 9.4 km/h
2355 07-10-2020 02:00:00 11.90833 C 9.62 g/m*3 11.91 C 11.825 km/h
2356 07-10-2020 03:00:00 11.85 C 9.54 g/m*3 11.85 C 11.83333 km/h
2357 07-10-2020 04:00:00 12.2 C 9.48 g/m*3 12.2 C 11.95833 km/h
2358 07-10-2020 05:00:00 12.15 C 9.43 g/m*3 12.15 C 10.23333 km/h
2359 07-10-2020 06:00:00 11.99167 C 9.43 g/m*3 11.99 C 12.225 km/h
2360 07-10-2020 07:00:00 12.10833 C 9.51 g/m*3 12.11 C 13.025 km/h
2361 07-10-2020 08:00:00 12.50833 C 9.5 g/m*3 12.51 C 12.63333 km/h
2362 07-10-2020 09:00:00 12.76667 C 9.57 g/m*3 12.77 C 11.025 km/h
2363 07-10-2020 10:00:00 13.24167 C 9.65 g/m*3 13.24 C 12.76667 km/h
2364 07-10-2020 11:00:00 13.8 C 9.33 g/m*3 13.8 C 13.29167 km/h
2365 07-10-2020 12:00:00 14.725 C 9.39 g/m*3 14.73 C 15.3 km/h
2366 07-10-2020 13:00:00 15.09167 C 9.57 g/m*3 15.09 C 13.69167 km/h
2367 07-10-2020 14:00:00 15.075 C 9.75 g/m*3 15.08 C 13.825 km/h
2368 07-10-2020 15:00:00 14.225 C 9.97 g/m*3 14.23 C 11.55833 km/h
2369 07-10-2020 16:00:00 14.81667 C 10.01 g/m*3 14.82 C 8.98333 km/h
2370 07-10-2020 17:00:00 14.86667 C 9.6 g/m*3 14.87 C 9.53333 km/h
2371 07-10-2020 18:00:00 14.50833 C 9.35 g/m*3 14.51 C 7.65833 km/h
2372 07-10-2020 19:00:00 14 C 8.63 g/m*3 14 C 11.03333 km/h
2373 07-10-2020 20:00:00 13.55 C 8.63 g/m*3 13.55 C 8.46667 km/h
2374 07-10-2020 21:00:00 12.85 C 8.81 g/m*3 12.85 C 5.76667 km/h
2375 07-10-2020 22:00:00 12.24167 C 8.92 g/m*3 12.24 C 4.66667 km/h
Sensor: Nr:Datum:Temp:Abs-Feuchte:Windchill:Wind:
Aussen-T/F 2376 07-10-2020 23:00:00 11.61667 C 8.84 g/m*3 11.62 C 2.53333 km/h
2377 08-10-2020 00:00:00 10.375 C 8.49 g/m*3 10.38 C 3.74167 km/h
2378 08-10-2020 01:00:00 9.44167 C 8.23 g/m*3 9.44 C 1.6 km/h
2379 08-10-2020 02:00:00 8.89167 C 8.07 g/m*3 8.89 C 0.53333 km/h
2380 08-10-2020 03:00:00 8.325 C 7.88 g/m*3 8.32 C 0.53333 km/h
2381 08-10-2020 04:00:00 8.46667 C 8.07 g/m*3 8.47 C 0 km/h
2382 08-10-2020 05:00:00 9.06667 C 8.42 g/m*3 9.07 C 0.26667 km/h
2383 08-10-2020 06:00:00 9.66667 C 8.82 g/m*3 9.67 C 0 km/h
2384 08-10-2020 07:00:00 10.01667 C 9.03 g/m*3 10.02 C 0 km/h
2385 08-10-2020 08:00:00 10.76667 C 9.52 g/m*3 10.77 C 0.8 km/h
2386 08-10-2020 09:00:00 11.83333 C 10.23 g/m*3 11.83 C 4.29167 km/h
2387 08-10-2020 10:00:00 12.59167 C 10.7 g/m*3 12.59 C 3.49167 km/h
2388 08-10-2020 11:00:00 13.85 C 11.23 g/m*3 13.85 C 9.13333 km/h
2389 08-10-2020 12:00:00 15.33333 C 11.28 g/m*3 15.33 C 19.05 km/h
2390 08-10-2020 13:00:00 15.825 C 11.28 g/m*3 15.83 C 25.075 km/h
2391 08-10-2020 14:00:00 16.15 C 11.38 g/m*3 16.15 C 17.7 km/h
2392 08-10-2020 15:00:00 16.425 C 11.37 g/m*3 16.43 C 18.23333 km/h
2393 08-10-2020 16:00:00 16.39167 C 11.49 g/m*3 16.39 C 17.43333 km/h
2394 08-10-2020 17:00:00 16.53333 C 11.47 g/m*3 16.53 C 11.80833 km/h
2395 08-10-2020 18:00:00 16.525 C 11.45 g/m*3 16.52 C 11.55 km/h
2396 08-10-2020 19:00:00 16.30833 C 11.41 g/m*3 16.31 C 16.775 km/h
2397 08-10-2020 20:00:00 16.29167 C 11.57 g/m*3 16.29 C 20.1 km/h
2398 08-10-2020 21:00:00 16.23333 C 11.72 g/m*3 16.23 C 17.43333 km/h
2399 08-10-2020 22:00:00 16.46667 C 11.78 g/m*3 16.47 C 19.96667 km/h
2400 08-10-2020 23:00:00 16.28333 C 11.82 g/m*3 16.28 C 18.775 km/h
Sensor: Nr:Datum:Temp:Abs-Feuchte:Windchill:Wind:
Aussen-T/F 2401 09-10-2020 00:00:00 16.18333 C 11.76 g/m*3 16.18 C 19.84167 km/h
2402 09-10-2020 01:00:00 15.38333 C 11.41 g/m*3 15.38 C 11.55833 km/h
2403 09-10-2020 02:00:00 13.83333 C 10.99 g/m*3 13.83 C 1.86667 km/h
2404 09-10-2020 03:00:00 13.35 C 10.89 g/m*3 13.35 C 1.06667 km/h
2405 09-10-2020 04:00:00 12.825 C 10.63 g/m*3 12.83 C 2.13333 km/h
2406 09-10-2020 05:00:00 12.66667 C 10.55 g/m*3 12.67 C 0 km/h
2407 09-10-2020 06:00:00 12.6 C 10.55 g/m*3 12.6 C 0 km/h
2408 09-10-2020 07:00:00 12.58333 C 10.61 g/m*3 12.58 C 0 km/h
2409 09-10-2020 08:00:00 12.65833 C 10.66 g/m*3 12.66 C 0 km/h
2410 09-10-2020 09:00:00 12.875 C 10.8 g/m*3 12.88 C 1.6 km/h
2411 09-10-2020 10:00:00 12.96667 C 10.94 g/m*3 12.97 C 0.8 km/h
2412 09-10-2020 11:00:00 13.375 C 11.26 g/m*3 13.38 C 0 km/h
2413 09-10-2020 12:00:00 14.125 C 11.79 g/m*3 14.13 C 1.46667 km/h
2414 09-10-2020 13:00:00 14.775 C 12.26 g/m*3 14.78 C 4.425 km/h
2415 09-10-2020 14:00:00 14.9 C 12.18 g/m*3 14.9 C 7.24167 km/h
2416 09-10-2020 15:00:00 14.69167 C 11.93 g/m*3 14.69 C 5.48333 km/h
2417 09-10-2020 16:00:00 13.64167 C 11.17 g/m*3 13.64 C 2.14167 km/h
2418 09-10-2020 17:00:00 13.1 C 10.89 g/m*3 13.1 C 4.825 km/h
2419 09-10-2020 18:00:00 12.20833 C 10.26 g/m*3 12.21 C 4.26667 km/h
2420 09-10-2020 19:00:00 11.14167 C 9.61 g/m*3 11.14 C 4.28333 km/h
2421 09-10-2020 20:00:00 10.31667 C 9.18 g/m*3 10.32 C 0 km/h
2422 09-10-2020 21:00:00 10.425 C 9.27 g/m*3 10.43 C 0 km/h
2423 09-10-2020 22:00:00 10.275 C 9.22 g/m*3 10.28 C 0 km/h
2424 09-10-2020 23:00:00 10.875 C 9.63 g/m*3 10.88 C 0 km/h
2425 10-10-2020 00:00:00 10.89167 C 9.64 g/m*3 10.89 C 0.53333 km/h
Sensor: Nr:Datum:Temp:Abs-Feuchte:Windchill:Wind:
Aussen-T/F 2426 10-10-2020 01:00:00 10 C 9.08 g/m*3 10 C 4.275 km/h
2427 10-10-2020 02:00:00 9.60833 C 8.89 g/m*3 9.61 C 2.26667 km/h
2428 10-10-2020 03:00:00 9.61667 C 8.9 g/m*3 9.62 C 2.8 km/h
2429 10-10-2020 04:00:00 9.86667 C 9.04 g/m*3 9.87 C 2.93333 km/h
2430 10-10-2020 05:00:00 9.81667 C 9.01 g/m*3 9.82 C 0.53333 km/h
2431 10-10-2020 06:00:00 9.51667 C 8.84 g/m*3 9.52 C 0.13333 km/h
2432 10-10-2020 07:00:00 8.925 C 8.51 g/m*3 8.93 C 3.06667 km/h
2433 10-10-2020 08:00:00 8.375 C 8.22 g/m*3 8.38 C 3.2 km/h
2434 10-10-2020 09:00:00 8.275 C 8.16 g/m*3 8.28 C 1.73333 km/h
2435 10-10-2020 10:00:00 8.18333 C 8.11 g/m*3 8.18 C 4.675 km/h
2436 10-10-2020 11:00:00 9.075 C 8.42 g/m*3 8.16 C 6.96667 km/h
2437 10-10-2020 12:00:00 10.99167 C 7.93 g/m*3 9.43 C 12.625 km/h
2438 10-10-2020 13:00:00 12.24167 C 7.51 g/m*3 12.24 C 12.89167 km/h
2439 10-10-2020 14:00:00 12.5 C 7.31 g/m*3 12.5 C 9.825 km/h
2440 10-10-2020 15:00:00 12.65 C 7.23 g/m*3 12.65 C 9.95 km/h
2441 10-10-2020 16:00:00 12.675 C 7.24 g/m*3 12.68 C 9.675 km/h
2442 10-10-2020 17:00:00 12.44167 C 7.47 g/m*3 12.44 C 6.98333 km/h
2443 10-10-2020 18:00:00 11.80833 C 7.84 g/m*3 11.81 C 5.86667 km/h
2444 10-10-2020 19:00:00 8.66667 C 7.17 g/m*3 7.78 C 6.56667 km/h
2445 10-10-2020 20:00:00 7.39167 C 6.89 g/m*3 6.76 C 5.09167 km/h
2446 10-10-2020 21:00:00 6.65 C 6.86 g/m*3 6.65 C 3.475 km/h
2447 10-10-2020 22:00:00 8.26667 C 7.31 g/m*3 7.22 C 6.96667 km/h
2448 10-10-2020 23:00:00 9.64167 C 7.37 g/m*3 8.54 C 8.2 km/h
2449 11-10-2020 00:00:00 9.45 C 7.39 g/m*3 8.26 C 8.475 km/h
2450 11-10-2020 01:00:00 9.64167 C 7.55 g/m*3 8.63 C 7.775 km/h
Sensor: Nr:Datum:Temp:Abs-Feuchte:Windchill:Wind:
Aussen-T/F 2451 11-10-2020 02:00:00 9.425 C 7.64 g/m*3 9.04 C 5.20833 km/h
2452 11-10-2020 03:00:00 9.35 C 7.76 g/m*3 9.35 C 3.2 km/h
2453 11-10-2020 04:00:00 9.15833 C 7.81 g/m*3 9.16 C 3.88333 km/h
2454 11-10-2020 05:00:00 8.96667 C 7.83 g/m*3 8.97 C 2.26667 km/h
2455 11-10-2020 06:00:00 8.76667 C 7.8 g/m*3 8.77 C 0 km/h
2456 11-10-2020 07:00:00 8.60833 C 7.9 g/m*3 8.61 C 1.6 km/h
2457 11-10-2020 08:00:00 8.20833 C 7.82 g/m*3 8.21 C 1.33333 km/h
2458 11-10-2020 09:00:00 8.54167 C 8.05 g/m*3 8.54 C 2.13333 km/h
2459 11-10-2020 10:00:00 9.21667 C 8.22 g/m*3 9.22 C 1.86667 km/h
2460 11-10-2020 11:00:00 9.475 C 8.13 g/m*3 9.48 C 0.93333 km/h
2461 11-10-2020 12:00:00 10.50833 C 8.26 g/m*3 10.51 C 4.15 km/h
2462 11-10-2020 13:00:00 11.54167 C 8.03 g/m*3 11.54 C 3.75 km/h
2463 11-10-2020 14:00:00 12.44167 C 7.57 g/m*3 12.44 C 4.69167 km/h
2464 11-10-2020 15:00:00 13.09167 C 7.2 g/m*3 13.09 C 8.19167 km/h
2465 11-10-2020 16:00:00 12.90833 C 7.3 g/m*3 12.91 C 9.41667 km/h
2466 11-10-2020 17:00:00 12.575 C 7.63 g/m*3 12.58 C 3.075 km/h
2467 11-10-2020 18:00:00 11.86667 C 8.34 g/m*3 11.87 C 2.4 km/h
2468 11-10-2020 19:00:00 9.91667 C 7.73 g/m*3 9.92 C 3.46667 km/h
2469 11-10-2020 20:00:00 10.20833 C 8.01 g/m*3 9.81 C 5.63333 km/h
2470 11-10-2020 21:00:00 9.51667 C 8.19 g/m*3 9.52 C 4.54167 km/h
2471 11-10-2020 22:00:00 9.14167 C 8.24 g/m*3 9.14 C 1.46667 km/h
2472 11-10-2020 23:00:00 9.14167 C 8.33 g/m*3 9.14 C 1.6 km/h
2473 12-10-2020 00:00:00 9.13333 C 8.36 g/m*3 9.13 C 2 km/h
2474 12-10-2020 01:00:00 9.01667 C 8.33 g/m*3 9.02 C 1.86667 km/h
2475 12-10-2020 02:00:00 9.08333 C 8.42 g/m*3 9.08 C 0.4 km/h
Sensor: Nr:Datum:Temp:Abs-Feuchte:Windchill:Wind:
Aussen-T/F 2476 12-10-2020 03:00:00 8.95 C 8.35 g/m*3 8.95 C 0.13333 km/h
2477 12-10-2020 04:00:00 8.9 C 8.32 g/m*3 8.9 C 0.26667 km/h
2478 12-10-2020 05:00:00 8.89167 C 8.32 g/m*3 8.89 C 0.8 km/h
2479 12-10-2020 06:00:00 8.69167 C 8.21 g/m*3 8.69 C 1.6 km/h
2480 12-10-2020 07:00:00 8.71667 C 8.25 g/m*3 8.72 C 1.06667 km/h
2481 12-10-2020 08:00:00 8.80833 C 8.28 g/m*3 8.81 C 0.66667 km/h
2482 12-10-2020 09:00:00 9.16667 C 8.49 g/m*3 9.17 C 0.8 km/h
2483 12-10-2020 10:00:00 9.64167 C 8.69 g/m*3 9.64 C 4.53333 km/h
2484 12-10-2020 11:00:00 10.68333 C 8.95 g/m*3 10.68 C 3.06667 km/h
2485 12-10-2020 12:00:00 11.63333 C 8.99 g/m*3 11.63 C 3.33333 km/h
2486 12-10-2020 13:00:00 12.28333 C 8.9 g/m*3 12.28 C 6.30833 km/h
2487 12-10-2020 14:00:00 12.24167 C 8.99 g/m*3 12.24 C 6.575 km/h
2488 12-10-2020 15:00:00 12.19167 C 8.83 g/m*3 12.19 C 8.31667 km/h
2489 12-10-2020 16:00:00 11.06667 C 9 g/m*3 11.07 C 2.53333 km/h
2490 12-10-2020 17:00:00 11.79167 C 9.1 g/m*3 11.79 C 1.6 km/h
2491 12-10-2020 18:00:00 10.66667 C 8.43 g/m*3 10.67 C 4.54167 km/h
2492 12-10-2020 19:00:00 8.3 C 7.55 g/m*3 8.3 C 2 km/h
2493 12-10-2020 20:00:00 7.10833 C 7.19 g/m*3 7.11 C 0 km/h
2494 12-10-2020 21:00:00 6.55 C 7.05 g/m*3 6.55 C 0.53333 km/h
2495 12-10-2020 22:00:00 6.33333 C 7.02 g/m*3 6.33 C 0.13333 km/h
2496 12-10-2020 23:00:00 5.94167 C 6.86 g/m*3 5.94 C 0 km/h
2497 13-10-2020 00:00:00 5.3 C 6.58 g/m*3 5.3 C 0 km/h
2498 13-10-2020 01:00:00 5.075 C 6.52 g/m*3 5.08 C 0 km/h
2499 13-10-2020 02:00:00 5.70833 C 6.84 g/m*3 5.71 C 0.13333 km/h
2500 13-10-2020 03:00:00 6.2 C 7.06 g/m*3 6.2 C 0.4 km/h
Sensor: Nr:Datum:Temp:Abs-Feuchte:Windchill:Wind:
Aussen-T/F 2501 13-10-2020 04:00:00 6.15833 C 7.04 g/m*3 6.16 C 0 km/h
2502 13-10-2020 05:00:00 6.25833 C 7.09 g/m*3 6.26 C 0 km/h
2503 13-10-2020 06:00:00 6.35 C 7.2 g/m*3 6.35 C 0 km/h
2504 13-10-2020 07:00:00 6.325 C 7.19 g/m*3 6.33 C 0 km/h
2505 13-10-2020 08:00:00 6.61667 C 7.33 g/m*3 6.62 C 0.13333 km/h
2506 13-10-2020 09:00:00 7.05833 C 7.54 g/m*3 7.06 C 0.13333 km/h
2507 13-10-2020 10:00:00 7.41667 C 7.65 g/m*3 6.7 C 5.35833 km/h
2508 13-10-2020 11:00:00 8.08333 C 7.8 g/m*3 8.08 C 4.275 km/h
2509 13-10-2020 12:00:00 9.225 C 8.09 g/m*3 9.23 C 4.00833 km/h
2510 13-10-2020 13:00:00 10.16667 C 8.17 g/m*3 10.17 C 4.14167 km/h
2511 13-10-2020 14:00:00 10.6 C 8.17 g/m*3 10.2 C 5.86667 km/h
2512 13-10-2020 15:00:00 10.91667 C 8.12 g/m*3 10.92 C 3.88333 km/h
2513 13-10-2020 16:00:00 10.59167 C 8.12 g/m*3 10.59 C 1.73333 km/h
2514 13-10-2020 17:00:00 10.325 C 8.25 g/m*3 10.33 C 0.93333 km/h
2515 13-10-2020 18:00:00 8.75 C 7.65 g/m*3 8.75 C 2.8 km/h
2516 13-10-2020 19:00:00 7.19167 C 7.18 g/m*3 7.19 C 1.2 km/h
2517 13-10-2020 20:00:00 6.40833 C 6.98 g/m*3 6.41 C 0.66667 km/h
2518 13-10-2020 21:00:00 5.89167 C 6.8 g/m*3 5.89 C 1.73333 km/h
2519 13-10-2020 22:00:00 5.36667 C 6.61 g/m*3 5.37 C 2.66667 km/h
2520 13-10-2020 23:00:00 4.98333 C 6.45 g/m*3 4.98 C 0.13333 km/h
2521 14-10-2020 00:00:00 5.275 C 6.64 g/m*3 5.28 C 0 km/h
2522 14-10-2020 01:00:00 5.03333 C 6.53 g/m*3 5.03 C 0 km/h
2523 14-10-2020 02:00:00 4.83333 C 6.45 g/m*3 4.83 C 0 km/h
2524 14-10-2020 03:00:00 4.25 C 6.21 g/m*3 4.25 C 0 km/h
2525 14-10-2020 04:00:00 3.675 C 5.97 g/m*3 3.68 C 0 km/h
Sensor: Nr:Datum:Temp:Abs-Feuchte:Windchill:Wind:
Aussen-T/F 2526 14-10-2020 05:00:00 4.25 C 6.21 g/m*3 4.25 C 0 km/h
2527 14-10-2020 06:00:00 4.56667 C 6.4 g/m*3 4.57 C 0 km/h
2528 14-10-2020 07:00:00 4.8 C 6.5 g/m*3 4.8 C 0.13333 km/h
2529 14-10-2020 08:00:00 4.95833 C 6.57 g/m*3 4.96 C 0 km/h
2530 14-10-2020 09:00:00 5.925 C 7.01 g/m*3 5.93 C 0.13333 km/h
2531 14-10-2020 10:00:00 7.06667 C 7.55 g/m*3 7.07 C 0.53333 km/h
2532 14-10-2020 11:00:00 8.1 C 8.03 g/m*3 8.1 C 0.93333 km/h
2533 14-10-2020 12:00:00 9.13333 C 8.22 g/m*3 9.13 C 4.14167 km/h
2534 14-10-2020 13:00:00 10.51667 C 8.46 g/m*3 10.52 C 4.95 km/h
2535 14-10-2020 14:00:00 11.51667 C 8.52 g/m*3 11.52 C 8.325 km/h
2536 14-10-2020 15:00:00 11.80833 C 8.12 g/m*3 11.81 C 9.95833 km/h
2537 14-10-2020 16:00:00 11.70833 C 7.58 g/m*3 11.71 C 10.225 km/h
2538 14-10-2020 17:00:00 11.26667 C 7.79 g/m*3 11.27 C 8.875 km/h
2539 14-10-2020 18:00:00 10.80833 C 7.7 g/m*3 9.74 C 9.14167 km/h
2540 14-10-2020 19:00:00 10.35 C 7.75 g/m*3 10.35 C 4.675 km/h
2541 14-10-2020 20:00:00 9.84167 C 7.65 g/m*3 8.78 C 8.2 km/h
2542 14-10-2020 21:00:00 9.225 C 7.74 g/m*3 9.23 C 4.28333 km/h
2543 14-10-2020 22:00:00 8.825 C 7.74 g/m*3 8.82 C 3.475 km/h
2544 14-10-2020 23:00:00 8.40833 C 7.8 g/m*3 8.41 C 0.93333 km/h
2545 15-10-2020 00:00:00 8.15833 C 7.83 g/m*3 8.16 C 0.8 km/h
2546 15-10-2020 01:00:00 8.08333 C 7.86 g/m*3 8.08 C 1.2 km/h
2547 15-10-2020 02:00:00 7.975 C 7.84 g/m*3 7.98 C 0.93333 km/h
2548 15-10-2020 03:00:00 7.94167 C 7.84 g/m*3 7.94 C 1.2 km/h
2549 15-10-2020 04:00:00 7.91667 C 7.89 g/m*3 7.92 C 0.93333 km/h
2550 15-10-2020 05:00:00 7.9 C 7.89 g/m*3 7.9 C 0.93333 km/h
Sensor: Nr:Datum:Temp:Abs-Feuchte:Windchill:Wind:
Aussen-T/F 2551 15-10-2020 06:00:00 7.81667 C 7.84 g/m*3 7.82 C 1.06667 km/h
2552 15-10-2020 07:00:00 7.83333 C 7.85 g/m*3 7.83 C 0.8 km/h
2553 15-10-2020 08:00:00 7.90833 C 7.89 g/m*3 7.91 C 0.53333 km/h
2554 15-10-2020 09:00:00 8.15 C 8.03 g/m*3 8.15 C 0.26667 km/h
2555 15-10-2020 10:00:00 8.4 C 8.21 g/m*3 8.4 C 0.26667 km/h
2556 15-10-2020 11:00:00 8.7 C 8.32 g/m*3 8.7 C 1.33333 km/h
2557 15-10-2020 12:00:00 9.24167 C 8.51 g/m*3 9.24 C 3.21667 km/h
2558 15-10-2020 13:00:00 9.96667 C 8.52 g/m*3 9.01 C 7.79167 km/h
2559 15-10-2020 14:00:00 10.375 C 8.48 g/m*3 9.25 C 9.03333 km/h
2560 15-10-2020 15:00:00 10.61667 C 8.44 g/m*3 9.03 C 12.225 km/h
2561 15-10-2020 16:00:00 10.7 C 8.42 g/m*3 9.71 C 8.61667 km/h
2562 15-10-2020 17:00:00 10.71667 C 8.45 g/m*3 10 C 7.25 km/h
2563 15-10-2020 18:00:00 10.625 C 8.45 g/m*3 10.63 C 4.14167 km/h
2564 15-10-2020 19:00:00 10.075 C 8.51 g/m*3 10.07 C 0.93333 km/h
2565 15-10-2020 20:00:00 9.93333 C 8.29 g/m*3 9.93 C 2.94167 km/h
2566 15-10-2020 21:00:00 9.86667 C 8.27 g/m*3 9.87 C 2.13333 km/h
2567 15-10-2020 22:00:00 9.78333 C 8.29 g/m*3 9.78 C 0.66667 km/h
2568 15-10-2020 23:00:00 9.58333 C 8.36 g/m*3 9.58 C 0.13333 km/h
2569 16-10-2020 00:00:00 9.34167 C 8.33 g/m*3 9.34 C 0.26667 km/h
2570 16-10-2020 01:00:00 9.3 C 8.36 g/m*3 9.3 C 0.53333 km/h
2571 16-10-2020 02:00:00 9.30833 C 8.32 g/m*3 9.31 C 0.53333 km/h
2572 16-10-2020 03:00:00 9.325 C 8.22 g/m*3 9.32 C 1.86667 km/h
2573 16-10-2020 04:00:00 9.24167 C 8.16 g/m*3 9.24 C 1.875 km/h
2574 16-10-2020 05:00:00 8.925 C 8.12 g/m*3 8.93 C 0.4 km/h
2575 16-10-2020 06:00:00 8.63333 C 8.03 g/m*3 8.63 C 1.2 km/h
Sensor: Nr:Datum:Temp:Abs-Feuchte:Windchill:Wind:
Aussen-T/F 2576 16-10-2020 07:00:00 8.425 C 7.99 g/m*3 8.43 C 0.8 km/h
2577 16-10-2020 08:00:00 8.4 C 7.97 g/m*3 8.4 C 0 km/h
2578 16-10-2020 09:00:00 8.49167 C 8.07 g/m*3 8.49 C 1.46667 km/h
2579 16-10-2020 10:00:00 8.86667 C 8.26 g/m*3 8.87 C 0.13333 km/h
2580 16-10-2020 11:00:00 9.24167 C 8.41 g/m*3 9.24 C 0 km/h
2581 16-10-2020 12:00:00 9.725 C 8.49 g/m*3 9.73 C 0.4 km/h
2582 16-10-2020 13:00:00 10.24167 C 8.68 g/m*3 10.24 C 0.66667 km/h
2583 16-10-2020 14:00:00 10.60833 C 8.69 g/m*3 10.61 C 3.75833 km/h
2584 16-10-2020 15:00:00 11.04167 C 8.79 g/m*3 11.04 C 2.53333 km/h
2585 16-10-2020 16:00:00 11 C 8.63 g/m*3 11 C 4.68333 km/h
2586 16-10-2020 17:00:00 10.69167 C 8.7 g/m*3 10.69 C 3.86667 km/h
2587 16-10-2020 18:00:00 10.06667 C 8.59 g/m*3 10.07 C 4.95 km/h
2588 16-10-2020 19:00:00 9.275 C 8.37 g/m*3 9.28 C 1.73333 km/h
2589 16-10-2020 20:00:00 8.81667 C 8.21 g/m*3 8.82 C 0.66667 km/h
2590 16-10-2020 21:00:00 8.29167 C 8 g/m*3 8.29 C 4.8 km/h
2591 16-10-2020 22:00:00 7.93333 C 7.84 g/m*3 7.93 C 3.06667 km/h
2592 16-10-2020 23:00:00 7.05 C 7.39 g/m*3 7.05 C 3.6 km/h
2593 17-10-2020 00:00:00 6.06667 C 6.93 g/m*3 6.07 C 2.53333 km/h
2594 17-10-2020 01:00:00 5.34167 C 6.61 g/m*3 5.34 C 0.4 km/h
2595 17-10-2020 02:00:00 4.51667 C 6.28 g/m*3 4.52 C 0 km/h
2596 17-10-2020 03:00:00 4.18333 C 6.18 g/m*3 4.18 C 0 km/h
2597 17-10-2020 04:00:00 3.575 C 5.93 g/m*3 3.58 C 0 km/h
2598 17-10-2020 05:00:00 3.125 C 5.76 g/m*3 3.13 C 0 km/h
2599 17-10-2020 06:00:00 3.23333 C 5.8 g/m*3 3.23 C 0 km/h
2600 17-10-2020 07:00:00 3.34167 C 5.86 g/m*3 3.34 C 0 km/h
Sensor: Nr:Datum:Temp:Abs-Feuchte:Windchill:Wind:
Aussen-T/F 2601 17-10-2020 08:00:00 3.80833 C 6.09 g/m*3 3.81 C 0.13333 km/h
2602 17-10-2020 09:00:00 4.825 C 6.52 g/m*3 4.83 C 2.4 km/h
2603 17-10-2020 10:00:00 5.68333 C 6.9 g/m*3 5.68 C 0.93333 km/h
2604 17-10-2020 11:00:00 6.275 C 7.17 g/m*3 6.28 C 0 km/h
2605 17-10-2020 12:00:00 7.025 C 7.53 g/m*3 7.03 C 0 km/h
2606 17-10-2020 13:00:00 7.54167 C 7.74 g/m*3 7.54 C 0.4 km/h
2607 17-10-2020 14:00:00 8.65833 C 7.99 g/m*3 8.66 C 0.13333 km/h
2608 17-10-2020 15:00:00 9.66667 C 7.91 g/m*3 9.67 C 1.33333 km/h
2609 17-10-2020 16:00:00 9.725 C 7.46 g/m*3 9.73 C 3.48333 km/h
2610 17-10-2020 17:00:00 9.36667 C 7.57 g/m*3 9.37 C 0.53333 km/h
2611 17-10-2020 18:00:00 8.68333 C 7.62 g/m*3 8.68 C 1.46667 km/h
2612 17-10-2020 19:00:00 7.84167 C 7.41 g/m*3 7.84 C 1.86667 km/h
2613 17-10-2020 20:00:00 7.39167 C 7.29 g/m*3 7.39 C 2.4 km/h
2614 17-10-2020 21:00:00 6.61667 C 6.98 g/m*3 6.62 C 2 km/h
2615 17-10-2020 22:00:00 6.30833 C 6.96 g/m*3 6.31 C 0 km/h
2616 17-10-2020 23:00:00 5.90833 C 6.82 g/m*3 5.91 C 0 km/h
2617 18-10-2020 00:00:00 5.975 C 6.88 g/m*3 5.98 C 0 km/h
2618 18-10-2020 01:00:00 6.15 C 7.01 g/m*3 6.15 C 0.26667 km/h
2619 18-10-2020 02:00:00 6.24167 C 7.08 g/m*3 6.24 C 1.86667 km/h
2620 18-10-2020 03:00:00 6.31667 C 7.11 g/m*3 6.32 C 2.13333 km/h
2621 18-10-2020 04:00:00 6.4 C 7.12 g/m*3 6.4 C 2 km/h
2622 18-10-2020 05:00:00 6.29167 C 7.07 g/m*3 6.29 C 1.06667 km/h
2623 18-10-2020 06:00:00 6.375 C 7.14 g/m*3 6.38 C 0.8 km/h
2624 18-10-2020 07:00:00 6.43333 C 7.17 g/m*3 6.43 C 0.8 km/h
2625 18-10-2020 08:00:00 6.48333 C 7.19 g/m*3 6.48 C 1.2 km/h
Sensor: Nr:Datum:Temp:Abs-Feuchte:Windchill:Wind:
Aussen-T/F 2626 18-10-2020 09:00:00 6.93333 C 7.31 g/m*3 6.93 C 4.93333 km/h
2627 18-10-2020 10:00:00 7.49167 C 7.43 g/m*3 6.62 C 5.88333 km/h
2628 18-10-2020 11:00:00 7.95833 C 7.44 g/m*3 6.89 C 6.84167 km/h
2629 18-10-2020 12:00:00 8.89167 C 7.73 g/m*3 8.01 C 6.71667 km/h
2630 18-10-2020 13:00:00 10.125 C 8 g/m*3 9.28 C 7.39167 km/h
2631 18-10-2020 14:00:00 10.475 C 7.94 g/m*3 9.58 C 7.925 km/h
2632 18-10-2020 15:00:00 10.79167 C 8.01 g/m*3 10.31 C 6.29167 km/h
2633 18-10-2020 16:00:00 10.79167 C 8.08 g/m*3 10.79 C 4.01667 km/h
2634 18-10-2020 17:00:00 10.68333 C 8.15 g/m*3 10.68 C 2.55 km/h
2635 18-10-2020 18:00:00 9.91667 C 8.04 g/m*3 9.92 C 2.93333 km/h
2636 18-10-2020 19:00:00 9.28333 C 7.91 g/m*3 9.28 C 2 km/h
2637 18-10-2020 20:00:00 9.20833 C 7.95 g/m*3 9.21 C 2.26667 km/h
2638 18-10-2020 21:00:00 9.225 C 7.97 g/m*3 9.23 C 1.2 km/h
2639 18-10-2020 22:00:00 9.05 C 8.01 g/m*3 9.05 C 1.06667 km/h
2640 18-10-2020 23:00:00 9.05833 C 8 g/m*3 9.06 C 1.73333 km/h
2641 19-10-2020 00:00:00 8.875 C 7.99 g/m*3 8.88 C 0.13333 km/h
2642 19-10-2020 01:00:00 8.66667 C 7.96 g/m*3 8.67 C 0.93333 km/h
2643 19-10-2020 02:00:00 8.65833 C 7.96 g/m*3 8.66 C 0.4 km/h
2644 19-10-2020 03:00:00 8.34167 C 7.86 g/m*3 8.34 C 0.26667 km/h
2645 19-10-2020 04:00:00 8.23333 C 7.89 g/m*3 8.23 C 0.93333 km/h
2646 19-10-2020 05:00:00 8.18333 C 7.86 g/m*3 8.18 C 0.8 km/h
2647 19-10-2020 06:00:00 7.70833 C 7.63 g/m*3 7.71 C 1.2 km/h
2648 19-10-2020 07:00:00 7.40833 C 7.54 g/m*3 7.41 C 0 km/h
2649 19-10-2020 08:00:00 7.45833 C 7.6 g/m*3 7.46 C 0 km/h
2650 19-10-2020 09:00:00 8.09167 C 7.96 g/m*3 8.09 C 0 km/h
Sensor: Nr:Datum:Temp:Abs-Feuchte:Windchill:Wind:
Aussen-T/F 2651 19-10-2020 10:00:00 7.83333 C 7.77 g/m*3 7.83 C 1.33333 km/h
2652 19-10-2020 11:00:00 8.6 C 8.23 g/m*3 8.6 C 2.26667 km/h
2653 19-10-2020 12:00:00 9.83333 C 8.86 g/m*3 9.83 C 0 km/h
2654 19-10-2020 13:00:00 10.53333 C 9.14 g/m*3 10.53 C 1.33333 km/h
2655 19-10-2020 14:00:00 11.93333 C 9.61 g/m*3 11.93 C 0 km/h
2656 19-10-2020 15:00:00 12.95833 C 9.05 g/m*3 12.96 C 0.53333 km/h
2657 19-10-2020 16:00:00 12.53333 C 9.06 g/m*3 12.53 C 3.6 km/h
2658 19-10-2020 17:00:00 10.94167 C 8.24 g/m*3 10.55 C 6.00833 km/h
2659 19-10-2020 18:00:00 8.60833 C 7.52 g/m*3 8.61 C 4.93333 km/h
2660 19-10-2020 19:00:00 7.38333 C 7.2 g/m*3 6.72 C 5.2 km/h
2661 19-10-2020 20:00:00 6.75 C 6.96 g/m*3 5.73 C 6.00833 km/h
2662 19-10-2020 21:00:00 6.44167 C 6.87 g/m*3 5.69 C 5.06667 km/h
2663 19-10-2020 22:00:00 5.76667 C 6.62 g/m*3 5.77 C 0.26667 km/h
2664 19-10-2020 23:00:00 5.28333 C 6.49 g/m*3 5.28 C 1.46667 km/h
2665 20-10-2020 00:00:00 5.20833 C 6.52 g/m*3 5.21 C 2.93333 km/h
2666 20-10-2020 01:00:00 5.15833 C 6.48 g/m*3 5.16 C 3.06667 km/h
2667 20-10-2020 02:00:00 5.14167 C 6.41 g/m*3 5.14 C 2.26667 km/h
2668 20-10-2020 03:00:00 4.9 C 6.37 g/m*3 4.9 C 2.66667 km/h
2669 20-10-2020 04:00:00 4.63333 C 6.29 g/m*3 4.63 C 2.93333 km/h
2670 20-10-2020 05:00:00 4.98333 C 6.49 g/m*3 4.98 C 1.2 km/h
2671 20-10-2020 06:00:00 5.6 C 6.78 g/m*3 5.6 C 0.87273 km/h
2672 20-10-2020 07:00:00 5.825 C 6.87 g/m*3 5.83 C 0.4 km/h
2673 20-10-2020 08:00:00 5.93333 C 6.89 g/m*3 5.93 C 0.53333 km/h
2674 20-10-2020 09:00:00 6.66667 C 7.28 g/m*3 6.67 C 0.8 km/h
2675 20-10-2020 10:00:00 8.1 C 7.93 g/m*3 8.1 C 0.93333 km/h
Sensor: Nr:Datum:Temp:Abs-Feuchte:Windchill:Wind:
Aussen-T/F 2676 20-10-2020 11:00:00 9.83333 C 8.72 g/m*3 9.83 C 0.13333 km/h
2677 20-10-2020 12:00:00 11.45 C 9.45 g/m*3 11.45 C 0 km/h
2678 20-10-2020 13:00:00 11.775 C 9.65 g/m*3 11.78 C 0.4 km/h
2679 20-10-2020 14:00:00 11.89167 C 9.74 g/m*3 11.89 C 0.4 km/h
2680 20-10-2020 15:00:00 12.55833 C 10.03 g/m*3 12.56 C 0.13333 km/h
2681 20-10-2020 16:00:00 12.44167 C 9.98 g/m*3 12.44 C 0.4 km/h
2682 20-10-2020 17:00:00 12.075 C 9.84 g/m*3 12.08 C 0.8 km/h
2683 20-10-2020 18:00:00 11.76667 C 9.74 g/m*3 11.77 C 0.93333 km/h
2684 20-10-2020 19:00:00 11.7 C 9.81 g/m*3 11.7 C 2.66667 km/h
2685 20-10-2020 20:00:00 11.9 C 9.92 g/m*3 11.9 C 2 km/h
2686 20-10-2020 21:00:00 11.76667 C 9.74 g/m*3 11.77 C 1.33333 km/h
2687 20-10-2020 22:00:00 11.6 C 9.67 g/m*3 11.6 C 1.86667 km/h
2688 20-10-2020 23:00:00 11.78333 C 9.78 g/m*3 11.78 C 0.8 km/h
2689 21-10-2020 00:00:00 11.84167 C 9.84 g/m*3 11.84 C 0 km/h
2690 21-10-2020 01:00:00 11.69167 C 9.87 g/m*3 11.69 C 0 km/h
2691 21-10-2020 02:00:00 11.40833 C 9.76 g/m*3 11.41 C 1.73333 km/h
2692 21-10-2020 03:00:00 11.3 C 9.69 g/m*3 11.3 C 2.53333 km/h
2693 21-10-2020 04:00:00 11.36667 C 9.72 g/m*3 11.37 C 2.66667 km/h
2694 21-10-2020 05:00:00 11.79167 C 9.79 g/m*3 11.79 C 2.93333 km/h
2695 21-10-2020 06:00:00 11.95833 C 9.85 g/m*3 11.96 C 3.6 km/h
2696 21-10-2020 07:00:00 12.10833 C 9.88 g/m*3 12.11 C 2 km/h
2697 21-10-2020 08:00:00 12.11667 C 10.06 g/m*3 12.12 C 1.86667 km/h
2698 21-10-2020 09:00:00 12.125 C 10.15 g/m*3 12.13 C 0 km/h
2699 21-10-2020 10:00:00 12.59167 C 10.45 g/m*3 12.59 C 0 km/h
2700 21-10-2020 11:00:00 14.15833 C 10.68 g/m*3 14.16 C 0.93333 km/h
Sensor: Nr:Datum:Temp:Abs-Feuchte:Windchill:Wind:
Aussen-T/F 2701 21-10-2020 12:00:00 16.85833 C 10.63 g/m*3 16.86 C 2.81667 km/h
2702 21-10-2020 13:00:00 18.94167 C 9.78 g/m*3 18.94 C 5.08333 km/h
2703 21-10-2020 14:00:00 19.85833 C 10.7 g/m*3 19.86 C 5.35833 km/h
2704 21-10-2020 15:00:00 21.1 C 10.32 g/m*3 21.1 C 11.13333 km/h
2705 21-10-2020 16:00:00 20.99167 C 10.41 g/m*3 20.99 C 9.54167 km/h
2706 21-10-2020 17:00:00 20.175 C 10.97 g/m*3 20.18 C 5.21667 km/h
2707 21-10-2020 18:00:00 18.21667 C 11.1 g/m*3 18.22 C 4.15 km/h
2708 21-10-2020 19:00:00 16.75 C 10.88 g/m*3 16.75 C 4.95 km/h
2709 21-10-2020 20:00:00 17.23333 C 11.31 g/m*3 17.23 C 5.89167 km/h
2710 21-10-2020 21:00:00 16.08333 C 11.33 g/m*3 16.08 C 3.6 km/h
2711 21-10-2020 22:00:00 15.63333 C 11.58 g/m*3 15.63 C 3.73333 km/h
2712 21-10-2020 23:00:00 15.76667 C 11.55 g/m*3 15.77 C 2.8 km/h
2713 22-10-2020 00:00:00 15.55 C 11.52 g/m*3 15.55 C 0.4 km/h
2714 22-10-2020 01:00:00 14.975 C 11.41 g/m*3 14.98 C 0.4 km/h
2715 22-10-2020 02:00:00 14.6 C 11.32 g/m*3 14.6 C 0 km/h
2716 22-10-2020 03:00:00 14.275 C 11.3 g/m*3 14.28 C 0.13333 km/h
2717 22-10-2020 04:00:00 14.3 C 11.43 g/m*3 14.3 C 1.73333 km/h
2718 22-10-2020 05:00:00 14.33333 C 11.44 g/m*3 14.33 C 0.93333 km/h
2719 22-10-2020 06:00:00 14.30833 C 11.35 g/m*3 14.31 C 1.46667 km/h
2720 22-10-2020 07:00:00 14.14167 C 11.32 g/m*3 14.14 C 0.4 km/h
2721 22-10-2020 08:00:00 13.95833 C 11.17 g/m*3 13.96 C 0.66667 km/h
2722 22-10-2020 09:00:00 14.85833 C 11.71 g/m*3 14.86 C 0.66667 km/h
2723 22-10-2020 10:00:00 15.275 C 11.84 g/m*3 15.28 C 0.93333 km/h
2724 22-10-2020 11:00:00 16.60833 C 11.93 g/m*3 16.61 C 7.24167 km/h
2725 22-10-2020 12:00:00 17.36667 C 11.93 g/m*3 17.37 C 6.31667 km/h
Sensor: Nr:Datum:Temp:Abs-Feuchte:Windchill:Wind:
Aussen-T/F 2726 22-10-2020 13:00:00 18.7 C 11.94 g/m*3 18.7 C 9.25833 km/h
2727 22-10-2020 14:00:00 19.69167 C 12.01 g/m*3 19.69 C 10.74167 km/h
2728 22-10-2020 15:00:00 20.15 C 12.22 g/m*3 20.15 C 10.225 km/h
2729 22-10-2020 16:00:00 20.34167 C 12.64 g/m*3 20.34 C 6.3 km/h
2730 22-10-2020 17:00:00 19.05833 C 12.85 g/m*3 19.06 C 4.13333 km/h
2731 22-10-2020 18:00:00 17.45833 C 12.42 g/m*3 17.46 C 4.53333 km/h
2732 22-10-2020 19:00:00 16.05833 C 11.96 g/m*3 16.06 C 4.26667 km/h
2733 22-10-2020 20:00:00 15.66667 C 11.84 g/m*3 15.67 C 4.26667 km/h
2734 22-10-2020 21:00:00 15.60833 C 11.85 g/m*3 15.61 C 1.33333 km/h
2735 22-10-2020 22:00:00 15.6 C 11.97 g/m*3 15.6 C 1.2 km/h
2736 22-10-2020 23:00:00 15.6 C 12.04 g/m*3 15.6 C 0 km/h
2737 23-10-2020 00:00:00 15.38333 C 11.95 g/m*3 15.38 C 0 km/h
2738 23-10-2020 01:00:00 15.35833 C 11.98 g/m*3 15.36 C 0.13333 km/h
2739 23-10-2020 02:00:00 15.525 C 12.03 g/m*3 15.53 C 0.26667 km/h
2740 23-10-2020 03:00:00 15.6 C 12.1 g/m*3 15.6 C 0.53333 km/h
2741 23-10-2020 04:00:00 15.80833 C 12.03 g/m*3 15.81 C 2.26667 km/h
2742 23-10-2020 05:00:00 16.05833 C 12.03 g/m*3 16.06 C 2.00833 km/h
2743 23-10-2020 06:00:00 15.78333 C 11.89 g/m*3 15.78 C 0.66667 km/h
2744 23-10-2020 07:00:00 15.11667 C 11.84 g/m*3 15.12 C 0.8 km/h
2745 23-10-2020 08:00:00 14.76667 C 11.84 g/m*3 14.77 C 0 km/h
2746 23-10-2020 09:00:00 14.65 C 11.89 g/m*3 14.65 C 0 km/h
2747 23-10-2020 10:00:00 14.75833 C 12.02 g/m*3 14.76 C 0 km/h
2748 23-10-2020 11:00:00 15.25833 C 12.5 g/m*3 15.26 C 0 km/h
2749 23-10-2020 12:00:00 15.49167 C 12.67 g/m*3 15.49 C 0.66667 km/h
2750 23-10-2020 13:00:00 15.85 C 12.85 g/m*3 15.85 C 1.06667 km/h
Sensor: Nr:Datum:Temp:Abs-Feuchte:Windchill:Wind:
Aussen-T/F 2751 23-10-2020 14:00:00 16.23333 C 12.99 g/m*3 16.23 C 1.46667 km/h
2752 23-10-2020 15:00:00 16.58333 C 12.81 g/m*3 16.58 C 3.06667 km/h
2753 23-10-2020 16:00:00 16.55833 C 12.67 g/m*3 16.56 C 2.14167 km/h
2754 23-10-2020 17:00:00 15.79167 C 12.36 g/m*3 15.79 C 2.80833 km/h
2755 23-10-2020 18:00:00 15.09167 C 11.96 g/m*3 15.09 C 3.06667 km/h
2756 23-10-2020 19:00:00 14.19167 C 11.35 g/m*3 14.19 C 4.40833 km/h
2757 23-10-2020 20:00:00 13.38333 C 10.92 g/m*3 13.38 C 2.13333 km/h
2758 23-10-2020 21:00:00 12.83333 C 10.66 g/m*3 12.83 C 3.08333 km/h
2759 23-10-2020 22:00:00 13.175 C 10.96 g/m*3 13.18 C 3.21667 km/h
2760 23-10-2020 23:00:00 12.40833 C 10.44 g/m*3 12.41 C 3.89167 km/h
2761 24-10-2020 00:00:00 12.76667 C 10.7 g/m*3 12.77 C 8.06667 km/h
2762 24-10-2020 01:00:00 12.65833 C 10.52 g/m*3 12.66 C 6.96667 km/h
2763 24-10-2020 02:00:00 12.375 C 10.25 g/m*3 12.38 C 1.6 km/h
2764 24-10-2020 03:00:00 11.5 C 9.78 g/m*3 11.5 C 0.53333 km/h
2765 24-10-2020 04:00:00 11.04167 C 9.59 g/m*3 11.04 C 0 km/h
2766 24-10-2020 05:00:00 11.03333 C 9.63 g/m*3 11.03 C 1.06667 km/h
2767 24-10-2020 06:00:00 11.14167 C 9.7 g/m*3 11.14 C 1.33333 km/h
2768 24-10-2020 07:00:00 11.65833 C 10.12 g/m*3 11.66 C 2.28333 km/h
2769 24-10-2020 08:00:00 11.96667 C 10.2 g/m*3 11.97 C 9 km/h
2770 24-10-2020 09:00:00 13 C 10.14 g/m*3 13 C 18.64167 km/h
2771 24-10-2020 10:00:00 13.44167 C 9.98 g/m*3 13.44 C 14.9 km/h
2772 24-10-2020 11:00:00 13.36667 C 9.08 g/m*3 13.37 C 18.23333 km/h
2773 24-10-2020 12:00:00 14.45 C 9.54 g/m*3 14.45 C 10.075 km/h
2774 24-10-2020 13:00:00 15.28333 C 9.87 g/m*3 15.28 C 7.925 km/h
2775 24-10-2020 14:00:00 15.28333 C 10.03 g/m*3 15.28 C 7.23333 km/h
Sensor: Nr:Datum:Temp:Abs-Feuchte:Windchill:Wind:
Aussen-T/F 2776 24-10-2020 15:00:00 15.45833 C 10.15 g/m*3 15.46 C 6.56667 km/h
2777 24-10-2020 16:00:00 15.275 C 10.26 g/m*3 15.28 C 4.14167 km/h
2778 24-10-2020 17:00:00 15.025 C 10.32 g/m*3 15.03 C 2.94167 km/h
2779 24-10-2020 18:00:00 14.575 C 10.27 g/m*3 14.58 C 3.06667 km/h
2780 24-10-2020 19:00:00 14.26667 C 10.31 g/m*3 14.27 C 3.20833 km/h
2781 24-10-2020 20:00:00 14.26667 C 10.36 g/m*3 14.27 C 5.08333 km/h
2782 24-10-2020 21:00:00 14.10833 C 10.43 g/m*3 14.11 C 3.06667 km/h
2783 24-10-2020 22:00:00 13.94167 C 10.43 g/m*3 13.94 C 3.75 km/h
2784 24-10-2020 23:00:00 13.90833 C 10.4 g/m*3 13.91 C 3.88333 km/h
2785 25-10-2020 00:00:00 14.18333 C 10.4 g/m*3 14.18 C 4.54167 km/h
2786 25-10-2020 01:00:00 14.3 C 10.34 g/m*3 14.3 C 2.53333 km/h
2787 25-10-2020 02:00:00 14.43333 C 10.17 g/m*3 14.43 C 4.15 km/h
2788 25-10-2020 04:00:00 13.42174 C 9.68 g/m*3 13.42 C 4.19565 km/h
2789 25-10-2020 05:00:00 12.83077 C 9.47 g/m*3 12.83 C 2.09231 km/h
2790 25-10-2020 06:00:00 11.9 C 9.24 g/m*3 11.9 C 0.66667 km/h
2791 25-10-2020 07:00:00 11.76667 C 9.29 g/m*3 11.77 C 2.80833 km/h
2792 25-10-2020 08:00:00 13.05 C 9.43 g/m*3 13.05 C 2.66667 km/h
2793 25-10-2020 09:00:00 13.775 C 9.61 g/m*3 13.78 C 2.66667 km/h
2794 25-10-2020 10:00:00 14.6 C 9.69 g/m*3 14.6 C 4.13333 km/h
2795 25-10-2020 11:00:00 15.275 C 9.84 g/m*3 15.28 C 4.14167 km/h
2796 25-10-2020 12:00:00 15.55833 C 10.1 g/m*3 15.56 C 3.06667 km/h
2797 25-10-2020 13:00:00 15.95 C 10.32 g/m*3 15.95 C 5.49167 km/h
2798 25-10-2020 14:00:00 15.7 C 10.63 g/m*3 15.7 C 3.48333 km/h
2799 25-10-2020 15:00:00 14.025 C 10.84 g/m*3 14.03 C 0.4 km/h
2800 25-10-2020 16:00:00 13.275 C 10.67 g/m*3 13.28 C 1.2 km/h
Sensor: Nr:Datum:Temp:Abs-Feuchte:Windchill:Wind:
Aussen-T/F 2801 25-10-2020 17:00:00 12.40833 C 10.21 g/m*3 12.41 C 2.8 km/h
2802 25-10-2020 18:00:00 11.725 C 9.85 g/m*3 11.73 C 3.075 km/h
2803 25-10-2020 19:00:00 11.30833 C 9.59 g/m*3 11.31 C 3.35833 km/h
2804 25-10-2020 20:00:00 11.03333 C 9.5 g/m*3 11.03 C 2.66667 km/h
2805 25-10-2020 21:00:00 10.76667 C 9.37 g/m*3 10.77 C 0.93333 km/h
2806 25-10-2020 22:00:00 10.61667 C 9.32 g/m*3 10.62 C 0.53333 km/h
2807 25-10-2020 23:00:00 10.675 C 9.41 g/m*3 10.68 C 0.4 km/h
2808 26-10-2020 00:00:00 10.7 C 9.43 g/m*3 10.7 C 1.2 km/h
2809 26-10-2020 01:00:00 10.66667 C 9.41 g/m*3 10.67 C 0.26667 km/h
2810 26-10-2020 02:00:00 10.65833 C 9.34 g/m*3 10.66 C 1.33333 km/h
2811 26-10-2020 03:00:00 10.65833 C 9.31 g/m*3 10.66 C 0.8 km/h
2812 26-10-2020 04:00:00 10.63333 C 9.35 g/m*3 10.63 C 0.26667 km/h
2813 26-10-2020 05:00:00 10.675 C 9.41 g/m*3 10.68 C 0.53333 km/h
2814 26-10-2020 06:00:00 10.41667 C 9.26 g/m*3 10.42 C 0.93333 km/h
2815 26-10-2020 07:00:00 9.99167 C 9.02 g/m*3 9.99 C 4.55 km/h
2816 26-10-2020 08:00:00 9.8 C 8.89 g/m*3 9.8 C 4.40833 km/h
2817 26-10-2020 09:00:00 10.01667 C 8.82 g/m*3 10.02 C 4.29167 km/h
2818 26-10-2020 10:00:00 10.86667 C 8.76 g/m*3 10.15 C 7.39167 km/h
2819 26-10-2020 11:00:00 11.60833 C 8.7 g/m*3 11.61 C 6.98333 km/h
2820 26-10-2020 12:00:00 11.76667 C 8.42 g/m*3 11.77 C 9.94167 km/h
2821 26-10-2020 13:00:00 12.00833 C 8.16 g/m*3 12.01 C 9.28333 km/h
2822 26-10-2020 14:00:00 12.18333 C 7.96 g/m*3 12.18 C 7.4 km/h
2823 26-10-2020 15:00:00 12.23333 C 7.89 g/m*3 12.23 C 5.625 km/h
2824 26-10-2020 16:00:00 12.05 C 8.09 g/m*3 12.05 C 3.875 km/h
2825 26-10-2020 17:00:00 10.44167 C 7.9 g/m*3 10.44 C 2.4 km/h
Sensor: Nr:Datum:Temp:Abs-Feuchte:Windchill:Wind:
Aussen-T/F 2826 26-10-2020 18:00:00 8.625 C 7.45 g/m*3 8.63 C 4.13333 km/h
2827 26-10-2020 19:00:00 7.68333 C 7.29 g/m*3 7.68 C 2.26667 km/h
2828 26-10-2020 20:00:00 7.625 C 7.33 g/m*3 7.63 C 2 km/h
2829 26-10-2020 21:00:00 8.125 C 7.4 g/m*3 8.13 C 3.075 km/h
2830 26-10-2020 22:00:00 7.775 C 7.35 g/m*3 7.78 C 2 km/h
2831 26-10-2020 23:00:00 7.66667 C 7.38 g/m*3 7.67 C 2.54167 km/h
2832 27-10-2020 00:00:00 7.83333 C 7.48 g/m*3 7.83 C 4.01667 km/h
2833 27-10-2020 01:00:00 8.39167 C 7.73 g/m*3 8.39 C 2.40833 km/h
2834 27-10-2020 02:00:00 9.33333 C 7.87 g/m*3 9.33 C 3.46667 km/h
2835 27-10-2020 03:00:00 8.90833 C 7.8 g/m*3 8.91 C 3.475 km/h
2836 27-10-2020 04:00:00 8.84167 C 7.85 g/m*3 8.84 C 2.4 km/h
2837 27-10-2020 05:00:00 8.64167 C 7.83 g/m*3 8.64 C 2.4 km/h
2838 27-10-2020 06:00:00 7.81667 C 7.51 g/m*3 7.82 C 2.13333 km/h
2839 27-10-2020 07:00:00 7.75 C 7.61 g/m*3 7.75 C 1.06667 km/h
2840 27-10-2020 08:00:00 9.04167 C 8.2 g/m*3 9.04 C 1.6 km/h
2841 27-10-2020 09:00:00 10.38333 C 8.42 g/m*3 10.38 C 2.26667 km/h
2842 27-10-2020 10:00:00 11.39167 C 8.56 g/m*3 11.39 C 9.00833 km/h
2843 27-10-2020 11:00:00 11.89167 C 8.49 g/m*3 11.89 C 11.675 km/h
2844 27-10-2020 12:00:00 12.25 C 8.36 g/m*3 12.25 C 13.15833 km/h
2845 27-10-2020 13:00:00 12.625 C 8.29 g/m*3 12.63 C 11.7 km/h
2846 27-10-2020 14:00:00 12.85833 C 8.16 g/m*3 12.86 C 9.675 km/h
2847 27-10-2020 15:00:00 12.675 C 7.85 g/m*3 12.68 C 9.15 km/h
2848 27-10-2020 16:00:00 12.21667 C 7.85 g/m*3 12.22 C 5.49167 km/h
2849 27-10-2020 17:00:00 11.21667 C 7.86 g/m*3 11.22 C 1.6 km/h
2850 27-10-2020 18:00:00 10.66667 C 7.78 g/m*3 10.67 C 2.675 km/h
Sensor: Nr:Datum:Temp:Abs-Feuchte:Windchill:Wind:
Aussen-T/F 2851 27-10-2020 19:00:00 11.25833 C 7.78 g/m*3 11.26 C 5.625 km/h
2852 27-10-2020 20:00:00 11.3 C 7.91 g/m*3 11.3 C 5.36667 km/h
2853 27-10-2020 21:00:00 11.05 C 8.07 g/m*3 11.05 C 2.4 km/h
2854 27-10-2020 22:00:00 11.05833 C 8.23 g/m*3 11.06 C 1.46667 km/h
2855 27-10-2020 23:00:00 11.28333 C 8.48 g/m*3 11.28 C 1.6 km/h
2856 28-10-2020 00:00:00 11.61667 C 8.74 g/m*3 11.62 C 3.06667 km/h
2857 28-10-2020 01:00:00 11.7 C 8.91 g/m*3 11.7 C 2.66667 km/h
2858 28-10-2020 02:00:00 11.81667 C 9.11 g/m*3 11.82 C 2.4 km/h
2859 28-10-2020 03:00:00 11.84167 C 9.34 g/m*3 11.84 C 0.53333 km/h
2860 28-10-2020 04:00:00 11.75833 C 9.5 g/m*3 11.76 C 0.53333 km/h
2861 28-10-2020 05:00:00 11.7 C 9.71 g/m*3 11.7 C 0 km/h
2862 28-10-2020 06:00:00 11.51667 C 9.72 g/m*3 11.52 C 0.8 km/h
2863 28-10-2020 07:00:00 11.26667 C 9.63 g/m*3 11.27 C 1.33333 km/h
2864 28-10-2020 08:00:00 11.51667 C 9.87 g/m*3 11.52 C 0.26667 km/h
2865 28-10-2020 09:00:00 12.30833 C 10.39 g/m*3 12.31 C 0.26667 km/h
2866 28-10-2020 10:00:00 12.64167 C 10.47 g/m*3 12.64 C 2.8 km/h
2867 28-10-2020 11:00:00 13.325 C 10.63 g/m*3 13.33 C 8.18333 km/h
2868 28-10-2020 12:00:00 14.25833 C 10.08 g/m*3 14.26 C 12.76667 km/h
2869 28-10-2020 13:00:00 14.11667 C 8.96 g/m*3 14.12 C 17.03333 km/h
2870 28-10-2020 14:00:00 13.99167 C 8.57 g/m*3 13.99 C 16.76667 km/h
2871 28-10-2020 15:00:00 13.50833 C 8.34 g/m*3 13.51 C 11.41667 km/h
2872 28-10-2020 16:00:00 13.43333 C 8.48 g/m*3 13.43 C 11.55 km/h
2873 28-10-2020 17:00:00 12.94167 C 8.48 g/m*3 12.94 C 6.56667 km/h
2874 28-10-2020 18:00:00 12.61667 C 8.44 g/m*3 12.62 C 5.61667 km/h
2875 28-10-2020 19:00:00 12.65 C 8.42 g/m*3 12.65 C 7.10833 km/h
Sensor: Nr:Datum:Temp:Abs-Feuchte:Windchill:Wind:
Aussen-T/F 2876 28-10-2020 20:00:00 13.08333 C 8.54 g/m*3 13.08 C 10.60833 km/h
2877 28-10-2020 21:00:00 12.94167 C 8.7 g/m*3 12.94 C 8.05833 km/h
2878 28-10-2020 22:00:00 12.825 C 8.91 g/m*3 12.83 C 8.70833 km/h
2879 28-10-2020 23:00:00 12.99167 C 9.11 g/m*3 12.99 C 17.44167 km/h
2880 29-10-2020 00:00:00 12.46667 C 9.24 g/m*3 12.47 C 15.03333 km/h
2881 29-10-2020 01:00:00 10.63333 C 8.8 g/m*3 8.92 C 13.15 km/h
2882 29-10-2020 02:00:00 9.80833 C 8.58 g/m*3 9.07 C 6.71667 km/h
2883 29-10-2020 03:00:00 10.175 C 8.84 g/m*3 8.97 C 9.275 km/h
2884 29-10-2020 04:00:00 10.05833 C 8.72 g/m*3 8.9 C 8.86667 km/h
2885 29-10-2020 05:00:00 9.88333 C 8.57 g/m*3 8.5 C 9.94167 km/h
2886 29-10-2020 06:00:00 9.95833 C 8.4 g/m*3 8.61 C 9.80833 km/h
2887 29-10-2020 07:00:00 9.24167 C 7.92 g/m*3 8.48 C 6.43333 km/h
2888 29-10-2020 08:00:00 9.05833 C 7.89 g/m*3 8.04 C 7.375 km/h
2889 29-10-2020 09:00:00 9.75833 C 8.11 g/m*3 9.15 C 6.16667 km/h
2890 29-10-2020 10:00:00 11.16667 C 8.62 g/m*3 11.17 C 6.175 km/h
2891 29-10-2020 11:00:00 11.58333 C 8.77 g/m*3 11.58 C 6.96667 km/h
2892 29-10-2020 12:00:00 10.7 C 8.87 g/m*3 10.27 C 6.01667 km/h
2893 29-10-2020 13:00:00 10.94167 C 9.31 g/m*3 10.94 C 3.475 km/h
2894 29-10-2020 14:00:00 11.61667 C 9.76 g/m*3 11.62 C 5.61667 km/h
2895 29-10-2020 15:00:00 11.33333 C 9.64 g/m*3 11.33 C 4.94167 km/h
2896 29-10-2020 16:00:00 11.15 C 9.57 g/m*3 11.15 C 6.575 km/h
2897 29-10-2020 17:00:00 10.76667 C 9.37 g/m*3 10.77 C 4.55 km/h
2898 29-10-2020 18:00:00 10.59167 C 9.27 g/m*3 10.59 C 0.66667 km/h
2899 29-10-2020 19:00:00 10.475 C 9.29 g/m*3 10.48 C 0.13333 km/h
2900 29-10-2020 20:00:00 10.64167 C 9.39 g/m*3 10.64 C 4.7 km/h
Sensor: Nr:Datum:Temp:Abs-Feuchte:Windchill:Wind:
Aussen-T/F 2901 29-10-2020 21:00:00 10.88333 C 9.54 g/m*3 10.32 C 6.70833 km/h
2902 29-10-2020 22:00:00 11.225 C 9.75 g/m*3 11.23 C 7.10833 km/h
2903 29-10-2020 23:00:00 11.56667 C 9.96 g/m*3 11.57 C 5.90833 km/h
2904 30-10-2020 00:00:00 11.89167 C 10.16 g/m*3 11.89 C 4.81667 km/h
2905 30-10-2020 01:00:00 12.16667 C 10.34 g/m*3 12.17 C 5.35 km/h
2906 30-10-2020 02:00:00 12.39167 C 10.5 g/m*3 12.39 C 5.63333 km/h
2907 30-10-2020 03:00:00 12.75 C 10.68 g/m*3 12.75 C 7.375 km/h
2908 30-10-2020 04:00:00 12.74167 C 10.63 g/m*3 12.74 C 3.48333 km/h
2909 30-10-2020 05:00:00 12.68333 C 10.65 g/m*3 12.68 C 4.14167 km/h
2910 30-10-2020 06:00:00 12.9 C 10.71 g/m*3 12.9 C 3.74167 km/h
2911 30-10-2020 07:00:00 13.10833 C 10.67 g/m*3 13.11 C 7.11667 km/h
2912 30-10-2020 08:00:00 13.3 C 10.71 g/m*3 13.3 C 4.83333 km/h
2913 30-10-2020 09:00:00 13.79167 C 10.86 g/m*3 13.79 C 9.01667 km/h
2914 30-10-2020 10:00:00 14.525 C 11.09 g/m*3 14.53 C 13.03333 km/h
2915 30-10-2020 11:00:00 15.03333 C 11.21 g/m*3 15.03 C 16.23333 km/h
2916 30-10-2020 12:00:00 15.14167 C 11.25 g/m*3 15.14 C 13.3 km/h
2917 30-10-2020 13:00:00 15.33333 C 11.34 g/m*3 15.33 C 13.03333 km/h
2918 30-10-2020 14:00:00 15.30833 C 11.28 g/m*3 15.31 C 6.43333 km/h
2919 30-10-2020 15:00:00 15.35833 C 11.15 g/m*3 15.36 C 9 km/h
2920 30-10-2020 16:00:00 14.94167 C 11.04 g/m*3 14.94 C 8.05833 km/h
2921 30-10-2020 17:00:00 14.29167 C 11.01 g/m*3 14.29 C 5.21667 km/h
2922 30-10-2020 18:00:00 13.98333 C 10.97 g/m*3 13.98 C 2 km/h
2923 30-10-2020 19:00:00 14.05833 C 10.83 g/m*3 14.06 C 5.76667 km/h
2924 30-10-2020 20:00:00 14.26667 C 10.72 g/m*3 14.27 C 10.625 km/h
2925 30-10-2020 21:00:00 14.175 C 10.65 g/m*3 14.18 C 9.95833 km/h
Sensor: Nr:Datum:Temp:Abs-Feuchte:Windchill:Wind:
Aussen-T/F 2926 30-10-2020 22:00:00 13.76667 C 10.42 g/m*3 13.77 C 9.68333 km/h
2927 30-10-2020 23:00:00 13.69167 C 10.34 g/m*3 13.69 C 10.21667 km/h
2928 31-10-2020 00:00:00 13.70833 C 10.2 g/m*3 13.71 C 9.69167 km/h
2929 31-10-2020 01:00:00 13.625 C 10.22 g/m*3 13.63 C 6.69167 km/h
2930 31-10-2020 02:00:00 13.58333 C 10.17 g/m*3 13.58 C 6.03333 km/h
2931 31-10-2020 03:00:00 13.43333 C 10.13 g/m*3 13.43 C 1.6 km/h
2932 31-10-2020 04:00:00 12.75833 C 10.03 g/m*3 12.76 C 0.13333 km/h
2933 31-10-2020 05:00:00 12.375 C 9.95 g/m*3 12.38 C 0 km/h
2934 31-10-2020 06:00:00 12.15833 C 9.9 g/m*3 12.16 C 0 km/h
2935 31-10-2020 07:00:00 12.04167 C 9.88 g/m*3 12.04 C 0 km/h
2936 31-10-2020 08:00:00 12.31667 C 10.08 g/m*3 12.32 C 0.4 km/h
2937 31-10-2020 09:00:00 13.25833 C 9.79 g/m*3 13.26 C 3.075 km/h
2938 31-10-2020 10:00:00 13.79167 C 9.48 g/m*3 13.79 C 4.69167 km/h
2939 31-10-2020 11:00:00 13.66667 C 9.66 g/m*3 13.67 C 3.60833 km/h
2940 31-10-2020 12:00:00 14.28333 C 9.8 g/m*3 14.28 C 5.61667 km/h
2941 31-10-2020 13:00:00 15.39167 C 10.01 g/m*3 15.39 C 4.68333 km/h
2942 31-10-2020 14:00:00 15.73333 C 10.32 g/m*3 15.73 C 4.54167 km/h
2943 31-10-2020 15:00:00 14.64167 C 10.29 g/m*3 14.64 C 4.675 km/h
2944 31-10-2020 16:00:00 13.46667 C 10.08 g/m*3 13.47 C 4.40833 km/h
2945 31-10-2020 17:00:00 12.26667 C 9.59 g/m*3 12.27 C 4.93333 km/h
2946 31-10-2020 18:00:00 11.28333 C 9.3 g/m*3 11.28 C 4.26667 km/h
2947 31-10-2020 19:00:00 11.4 C 9.44 g/m*3 11.4 C 3.2 km/h
2948 31-10-2020 20:00:00 11.98333 C 9.71 g/m*3 11.98 C 1.6 km/h
2949 31-10-2020 21:00:00 12.51667 C 9.96 g/m*3 12.52 C 1.2 km/h
2950 31-10-2020 22:00:00 12.7 C 10.34 g/m*3 12.7 C 1.73333 km/h
Sensor: Nr:Datum:Temp:Abs-Feuchte:Windchill:Wind:
Aussen-T/F 2951 31-10-2020 23:00:00 13.05833 C 10.72 g/m*3 13.06 C 6.025 km/h
2952 01-11-2020 00:00:00 13.1 C 10.84 g/m*3 13.1 C 2.26667 km/h
2953 01-11-2020 01:00:00 13.13333 C 10.91 g/m*3 13.13 C 0.93333 km/h
2954 01-11-2020 02:00:00 13.175 C 11.01 g/m*3 13.18 C 1.2 km/h
2955 01-11-2020 03:00:00 13.1 C 10.95 g/m*3 13.1 C 0 km/h
2956 01-11-2020 04:00:00 13.04167 C 10.92 g/m*3 13.04 C 0 km/h
2957 01-11-2020 05:00:00 12.76667 C 10.73 g/m*3 12.77 C 0 km/h
2958 01-11-2020 06:00:00 12.51667 C 10.61 g/m*3 12.52 C 0 km/h
2959 01-11-2020 07:00:00 12.55 C 10.69 g/m*3 12.55 C 0 km/h
2960 01-11-2020 08:00:00 13.10833 C 11.07 g/m*3 13.11 C 0 km/h
2961 01-11-2020 09:00:00 13.875 C 11.62 g/m*3 13.88 C 2.275 km/h
2962 01-11-2020 10:00:00 15.05 C 12.19 g/m*3 15.05 C 10.75833 km/h
2963 01-11-2020 11:00:00 16.35 C 12.38 g/m*3 16.35 C 4.55833 km/h
2964 01-11-2020 12:00:00 16.775 C 12.44 g/m*3 16.77 C 3.48333 km/h
2965 01-11-2020 13:00:00 16.94167 C 12.6 g/m*3 16.94 C 8.6 km/h
2966 01-11-2020 14:00:00 16.83333 C 12.68 g/m*3 16.83 C 12.23333 km/h
2967 01-11-2020 15:00:00 16.71667 C 12.48 g/m*3 16.72 C 16.76667 km/h
2968 01-11-2020 16:00:00 16.74167 C 12.48 g/m*3 16.74 C 14.36667 km/h
2969 01-11-2020 17:00:00 16.6 C 12.51 g/m*3 16.6 C 10.49167 km/h
2970 01-11-2020 18:00:00 16.71667 C 12.6 g/m*3 16.72 C 9.00833 km/h
2971 01-11-2020 19:00:00 16.86667 C 12.63 g/m*3 16.87 C 11.025 km/h
2972 01-11-2020 20:00:00 16.975 C 12.71 g/m*3 16.98 C 12.48333 km/h
2973 01-11-2020 21:00:00 17.125 C 12.77 g/m*3 17.13 C 12.89167 km/h
2974 01-11-2020 22:00:00 17.175 C 12.86 g/m*3 17.18 C 8.06667 km/h
2975 01-11-2020 23:00:00 17.25833 C 12.93 g/m*3 17.26 C 4.68333 km/h
Sensor: Nr:Datum:Temp:Abs-Feuchte:Windchill:Wind:
Aussen-T/F 2976 02-11-2020 00:00:00 17.56667 C 13.16 g/m*3 17.57 C 7.65833 km/h
2977 02-11-2020 01:00:00 17.90833 C 13.35 g/m*3 17.91 C 13.15833 km/h
2978 02-11-2020 02:00:00 18.19167 C 13.45 g/m*3 18.19 C 14.76667 km/h
2979 02-11-2020 03:00:00 18.575 C 13.36 g/m*3 18.58 C 13.16667 km/h
2980 02-11-2020 04:00:00 18.7 C 13.42 g/m*3 18.7 C 9.95 km/h
2981 02-11-2020 05:00:00 18.38333 C 13.6 g/m*3 18.38 C 10.89167 km/h
2982 02-11-2020 06:00:00 18.60833 C 13.46 g/m*3 18.61 C 14.23333 km/h
2983 02-11-2020 07:00:00 19.01667 C 13.25 g/m*3 19.02 C 18.90833 km/h
2984 02-11-2020 08:00:00 19.21667 C 13.14 g/m*3 19.22 C 20.24167 km/h
2985 02-11-2020 09:00:00 19.46667 C 13.05 g/m*3 19.47 C 21.04167 km/h
2986 02-11-2020 10:00:00 19.35 C 13.06 g/m*3 19.35 C 14.5 km/h
2987 02-11-2020 11:00:00 19.59167 C 13.02 g/m*3 19.59 C 11.83333 km/h
2988 02-11-2020 12:00:00 20.23333 C 13.05 g/m*3 20.23 C 13.7 km/h
2989 02-11-2020 13:00:00 20.46667 C 12.93 g/m*3 20.47 C 14.9 km/h
2990 02-11-2020 14:00:00 20.7 C 12.89 g/m*3 20.7 C 15.96667 km/h
2991 02-11-2020 15:00:00 20.93333 C 12.86 g/m*3 20.93 C 15.96667 km/h
2992 02-11-2020 16:00:00 20.69167 C 12.7 g/m*3 20.69 C 17.43333 km/h
2993 02-11-2020 17:00:00 19.75 C 12.69 g/m*3 19.75 C 12.48333 km/h
2994 02-11-2020 18:00:00 19.625 C 12.82 g/m*3 19.63 C 12.35 km/h
2995 02-11-2020 19:00:00 19.70833 C 12.91 g/m*3 19.71 C 16.91667 km/h
2996 02-11-2020 20:00:00 18.83333 C 12.8 g/m*3 18.83 C 13.55833 km/h
2997 02-11-2020 21:00:00 14.275 C 11.17 g/m*3 14.28 C 4.56667 km/h
2998 02-11-2020 22:00:00 13.01667 C 10.49 g/m*3 13.02 C 5.9 km/h
2999 02-11-2020 23:00:00 11.94167 C 9.89 g/m*3 11.94 C 4.80833 km/h
3000 03-11-2020 00:00:00 11.48333 C 9.53 g/m*3 11.48 C 6.43333 km/h
Sensor: Nr:Datum:Temp:Abs-Feuchte:Windchill:Wind:
Aussen-T/F 3001 03-11-2020 01:00:00 11.38333 C 8.97 g/m*3 11.38 C 6.56667 km/h
3002 03-11-2020 02:00:00 11.275 C 8.83 g/m*3 11.28 C 4.68333 km/h
3003 03-11-2020 03:00:00 11.48333 C 8.75 g/m*3 11.48 C 6.30833 km/h
3004 03-11-2020 04:00:00 11.31667 C 8.71 g/m*3 11.32 C 6.15833 km/h
3005 03-11-2020 05:00:00 11 C 8.59 g/m*3 11 C 3.475 km/h
3006 03-11-2020 06:00:00 10.71667 C 8.41 g/m*3 10.72 C 3.46667 km/h
3007 03-11-2020 07:00:00 10.24167 C 8.25 g/m*3 9.74 C 6.025 km/h
3008 03-11-2020 08:00:00 9.46667 C 8.1 g/m*3 9.47 C 2.8 km/h
3009 03-11-2020 09:00:00 9.13333 C 8.14 g/m*3 9.13 C 2.26667 km/h
3010 03-11-2020 10:00:00 9.56667 C 8.38 g/m*3 9.57 C 4.68333 km/h
3011 03-11-2020 11:00:00 11.00833 C 8.55 g/m*3 11.01 C 8.19167 km/h
3012 03-11-2020 12:00:00 12.09167 C 8.54 g/m*3 12.09 C 11.16667 km/h
3013 03-11-2020 13:00:00 12.61667 C 8.42 g/m*3 12.62 C 8.74167 km/h
3014 03-11-2020 14:00:00 12.65833 C 8.18 g/m*3 12.66 C 6.71667 km/h
3015 03-11-2020 15:00:00 12.78333 C 8.08 g/m*3 12.78 C 8.73333 km/h
3016 03-11-2020 16:00:00 12.33333 C 7.95 g/m*3 12.33 C 4.01667 km/h
3017 03-11-2020 17:00:00 11.59167 C 8.12 g/m*3 11.59 C 4.14167 km/h
3018 03-11-2020 18:00:00 10.71667 C 8.47 g/m*3 10.33 C 5.88333 km/h
3019 03-11-2020 19:00:00 9.01667 C 8 g/m*3 9.02 C 4.7 km/h
3020 03-11-2020 20:00:00 7.69167 C 7.5 g/m*3 7.69 C 2.53333 km/h
3021 03-11-2020 21:00:00 6.85 C 7.19 g/m*3 6.85 C 2.66667 km/h
3022 03-11-2020 22:00:00 6.24167 C 6.95 g/m*3 6.24 C 2.26667 km/h
3023 03-11-2020 23:00:00 5.875 C 6.84 g/m*3 5.88 C 1.06667 km/h
3024 04-11-2020 00:00:00 5.08333 C 6.49 g/m*3 5.08 C 1.46667 km/h
3025 04-11-2020 01:00:00 5.03333 C 6.5 g/m*3 5.03 C 1.46667 km/h
Sensor: Nr:Datum:Temp:Abs-Feuchte:Windchill:Wind:
Aussen-T/F 3026 04-11-2020 02:00:00 4.99167 C 6.48 g/m*3 4.99 C 2.4 km/h
3027 04-11-2020 03:00:00 4.325 C 6.2 g/m*3 4.33 C 1.33333 km/h
3028 04-11-2020 04:00:00 3.74167 C 5.98 g/m*3 3.74 C 0.26667 km/h
3029 04-11-2020 05:00:00 3.14167 C 5.75 g/m*3 3.14 C 0.4 km/h
3030 04-11-2020 06:00:00 2.8 C 5.63 g/m*3 2.8 C 1.2 km/h
3031 04-11-2020 07:00:00 2.54167 C 5.53 g/m*3 2.54 C 0 km/h
3032 04-11-2020 08:00:00 2.50833 C 5.53 g/m*3 2.51 C 0 km/h
3033 04-11-2020 09:00:00 3.13333 C 5.79 g/m*3 3.13 C 0 km/h
3034 04-11-2020 10:00:00 3.525 C 5.95 g/m*3 3.53 C 0 km/h
3035 04-11-2020 11:00:00 4.80833 C 6.51 g/m*3 4.81 C 0 km/h
3036 04-11-2020 12:00:00 5.91667 C 7 g/m*3 5.92 C 0.4 km/h
3037 04-11-2020 13:00:00 6.68333 C 7.36 g/m*3 6.68 C 3.33333 km/h
3038 04-11-2020 14:00:00 7.64167 C 7.82 g/m*3 7.64 C 1.86667 km/h
3039 04-11-2020 15:00:00 8.16667 C 7.8 g/m*3 8.17 C 2.4 km/h
3040 04-11-2020 16:00:00 7.58333 C 7.37 g/m*3 7.58 C 3.33333 km/h
3041 04-11-2020 17:00:00 6.375 C 6.83 g/m*3 6.38 C 0.66667 km/h
3042 04-11-2020 18:00:00 5.28333 C 6.41 g/m*3 5.28 C 0.26667 km/h
3043 04-11-2020 19:00:00 4.45 C 6.14 g/m*3 4.45 C 0 km/h
3044 04-11-2020 20:00:00 3.575 C 5.82 g/m*3 3.58 C 0 km/h
3045 04-11-2020 21:00:00 3.04167 C 5.66 g/m*3 3.04 C 0 km/h
3046 04-11-2020 22:00:00 2.56667 C 5.49 g/m*3 2.57 C 0 km/h
3047 04-11-2020 23:00:00 2.15 C 5.36 g/m*3 2.15 C 0 km/h
3048 05-11-2020 00:00:00 1.775 C 5.24 g/m*3 1.78 C 0 km/h
3049 05-11-2020 01:00:00 1.75833 C 5.25 g/m*3 1.76 C 0.53333 km/h
3050 05-11-2020 02:00:00 2.2 C 5.41 g/m*3 2.2 C 0.4 km/h
Sensor: Nr:Datum:Temp:Abs-Feuchte:Windchill:Wind:
Aussen-T/F 3051 05-11-2020 03:00:00 2.10833 C 5.37 g/m*3 2.11 C 0.26667 km/h
3052 05-11-2020 04:00:00 2.09167 C 5.4 g/m*3 2.09 C 0 km/h
3053 05-11-2020 05:00:00 2.24167 C 5.48 g/m*3 2.24 C 0 km/h
3054 05-11-2020 06:00:00 2.3 C 5.5 g/m*3 2.3 C 0 km/h
3055 05-11-2020 07:00:00 2.38 C 5.53 g/m*3 2.38 C 0.48 km/h
3056 05-11-2020 12:00:00 3.76 C 6.07 g/m*3 3.76 C 3.36 km/h
3057 05-11-2020 13:00:00 4.19167 C 6.25 g/m*3 4.19 C 2.66667 km/h
3058 05-11-2020 14:00:00 4.2 C 6.25 g/m*3 4.2 C 2.93333 km/h
3059 05-11-2020 15:00:00 4.43333 C 6.37 g/m*3 4.43 C 2 km/h
3060 05-11-2020 16:00:00 4.39167 C 6.33 g/m*3 4.39 C 0 km/h
3061 05-11-2020 17:00:00 4.18333 C 6.24 g/m*3 4.18 C 0.4 km/h
3062 05-11-2020 18:00:00 3.79167 C 6.08 g/m*3 3.79 C 0.4 km/h
3063 05-11-2020 19:00:00 3.39167 C 5.92 g/m*3 3.39 C 0 km/h
3064 05-11-2020 20:00:00 3.325 C 5.89 g/m*3 3.33 C 0 km/h
3065 05-11-2020 21:00:00 3.26667 C 5.87 g/m*3 3.27 C 0.93333 km/h
3066 05-11-2020 22:00:00 3.23333 C 5.87 g/m*3 3.23 C 0 km/h
3067 05-11-2020 23:00:00 3.31667 C 5.9 g/m*3 3.32 C 0.8 km/h
3068 06-11-2020 00:00:00 3.075 C 5.8 g/m*3 3.08 C 0.66667 km/h
3069 06-11-2020 01:00:00 2.675 C 5.65 g/m*3 2.68 C 1.6 km/h
3070 06-11-2020 02:00:00 2.56667 C 5.63 g/m*3 2.57 C 1.46667 km/h
3071 06-11-2020 03:00:00 2.65833 C 5.64 g/m*3 2.66 C 0.53333 km/h
3072 06-11-2020 04:00:00 2.5 C 5.62 g/m*3 2.5 C 0.8 km/h
3073 06-11-2020 05:00:00 2.48333 C 5.59 g/m*3 2.48 C 0.66667 km/h
3074 06-11-2020 06:00:00 2.61667 C 5.66 g/m*3 2.62 C 0.26667 km/h
3075 06-11-2020 07:00:00 2.54167 C 5.65 g/m*3 2.54 C 0.4 km/h
Sensor: Nr:Datum:Temp:Abs-Feuchte:Windchill:Wind:
Aussen-T/F 3076 06-11-2020 08:00:00 2.54167 C 5.65 g/m*3 2.54 C 0.26667 km/h
3077 06-11-2020 09:00:00 3.03333 C 5.84 g/m*3 3.03 C 0 km/h
3078 06-11-2020 10:00:00 3.61667 C 6.07 g/m*3 3.62 C 0.53333 km/h
3079 06-11-2020 11:00:00 4.11667 C 6.28 g/m*3 4.12 C 1.46667 km/h
3080 06-11-2020 12:00:00 4.35 C 6.38 g/m*3 4.35 C 1.6 km/h
3081 06-11-2020 13:00:00 5.11667 C 6.71 g/m*3 5.12 C 1.73333 km/h
3082 06-11-2020 14:00:00 6.00833 C 7.12 g/m*3 6.01 C 3.86667 km/h
3083 06-11-2020 15:00:00 6.35 C 7.28 g/m*3 6.35 C 3.73333 km/h
3084 06-11-2020 16:00:00 5.65 C 6.95 g/m*3 5.65 C 3.6 km/h
3085 06-11-2020 17:00:00 4.5 C 6.39 g/m*3 4.5 C 4.13333 km/h
3086 06-11-2020 18:00:00 3.39167 C 5.91 g/m*3 3.39 C 1.06667 km/h
3087 06-11-2020 19:00:00 2.425 C 5.49 g/m*3 2.42 C 0 km/h
3088 06-11-2020 20:00:00 1.875 C 5.29 g/m*3 1.88 C 0 km/h
3089 06-11-2020 21:00:00 1.45833 C 5.14 g/m*3 1.46 C 0 km/h
3090 06-11-2020 22:00:00 1.24167 C 5.07 g/m*3 1.24 C 0 km/h
3091 06-11-2020 23:00:00 0.89167 C 4.95 g/m*3 0.89 C 0 km/h
3092 07-11-2020 00:00:00 0.79167 C 4.91 g/m*3 0.79 C 0 km/h
3093 07-11-2020 01:00:00 0.64167 C 4.89 g/m*3 0.64 C 0 km/h
3094 07-11-2020 02:00:00 0.50833 C 4.85 g/m*3 0.51 C 0 km/h
3095 07-11-2020 03:00:00 0.39167 C 4.83 g/m*3 0.39 C 0 km/h
3096 07-11-2020 04:00:00 0.36667 C 4.82 g/m*3 0.37 C 0 km/h
3097 07-11-2020 05:00:00 0.3 C 4.8 g/m*3 0.3 C 0 km/h
3098 07-11-2020 06:00:00 0.3 C 4.8 g/m*3 0.3 C 0 km/h
3099 07-11-2020 07:00:00 0.30833 C 4.8 g/m*3 0.31 C 0 km/h
3100 07-11-2020 08:00:00 0.71667 C 4.94 g/m*3 0.72 C 0 km/h
Sensor: Nr:Datum:Temp:Abs-Feuchte:Windchill:Wind:
Aussen-T/F 3101 07-11-2020 09:00:00 1.48 C 5.2 g/m*3 1.48 C 0 km/h
3102 07-11-2020 10:00:00 2.775 C 5.72 g/m*3 2.78 C 0.26667 km/h
3103 07-11-2020 11:00:00 4.875 C 6.6 g/m*3 4.88 C 1.6 km/h
3104 07-11-2020 12:00:00 6.59167 C 7.39 g/m*3 6.59 C 3.73333 km/h
3105 07-11-2020 13:00:00 7.81667 C 8.01 g/m*3 7.82 C 3.6 km/h
3106 07-11-2020 14:00:00 8.89167 C 8.58 g/m*3 8.89 C 4.8 km/h
3107 07-11-2020 15:00:00 9.68333 C 8.87 g/m*3 9.68 C 4 km/h
3108 07-11-2020 16:00:00 9.475 C 8.41 g/m*3 9.48 C 2.13333 km/h
3109 07-11-2020 17:00:00 8.09167 C 7.62 g/m*3 8.09 C 2.13333 km/h
3110 07-11-2020 18:00:00 7.41667 C 7.4 g/m*3 7.42 C 4.13333 km/h
3111 07-11-2020 19:00:00 6.80833 C 7.12 g/m*3 6.81 C 1.6 km/h
3112 07-11-2020 20:00:00 6.3 C 6.91 g/m*3 6.3 C 0 km/h
3113 07-11-2020 21:00:00 5.6 C 6.65 g/m*3 5.6 C 0 km/h
3114 07-11-2020 22:00:00 4.925 C 6.39 g/m*3 4.93 C 0 km/h
3115 07-11-2020 23:00:00 4.225 C 6.13 g/m*3 4.22 C 0 km/h
3116 08-11-2020 00:00:00 3.95 C 6.07 g/m*3 3.95 C 0 km/h
3117 08-11-2020 01:00:00 3.45833 C 5.88 g/m*3 3.46 C 0 km/h
3118 08-11-2020 02:00:00 3.20833 C 5.79 g/m*3 3.21 C 0 km/h
3119 08-11-2020 03:00:00 2.84167 C 5.65 g/m*3 2.84 C 0 km/h
3120 08-11-2020 04:00:00 2.625 C 5.57 g/m*3 2.63 C 0 km/h
3121 08-11-2020 05:00:00 2.59167 C 5.59 g/m*3 2.59 C 0 km/h
3122 08-11-2020 06:00:00 2.51667 C 5.56 g/m*3 2.52 C 0 km/h
3123 08-11-2020 07:00:00 2.425 C 5.55 g/m*3 2.42 C 0 km/h
3124 08-11-2020 08:00:00 2.775 C 5.68 g/m*3 2.78 C 0 km/h
3125 08-11-2020 09:00:00 3.93333 C 6.15 g/m*3 3.93 C 0 km/h
Sensor: Nr:Datum:Temp:Abs-Feuchte:Windchill:Wind:
Aussen-T/F 3126 08-11-2020 10:00:00 5.31667 C 6.79 g/m*3 5.32 C 0 km/h
3127 08-11-2020 11:00:00 7.00833 C 7.59 g/m*3 7.01 C 0 km/h
3128 08-11-2020 12:00:00 8.80833 C 8.46 g/m*3 8.81 C 0 km/h
3129 08-11-2020 13:00:00 10.29167 C 9.07 g/m*3 10.29 C 0 km/h
3130 08-11-2020 14:00:00 11.88333 C 9.5 g/m*3 11.88 C 0 km/h
3131 08-11-2020 15:00:00 12.73333 C 9.76 g/m*3 12.73 C 0 km/h
3132 08-11-2020 16:00:00 12.11667 C 9.5 g/m*3 12.12 C 0 km/h
3133 08-11-2020 17:00:00 11.05 C 9.15 g/m*3 11.05 C 0 km/h
3134 08-11-2020 18:00:00 10.68333 C 9.11 g/m*3 10.68 C 0 km/h
3135 08-11-2020 19:00:00 10.56667 C 9.16 g/m*3 10.57 C 0 km/h
3136 08-11-2020 20:00:00 10.25 C 9.05 g/m*3 10.25 C 0 km/h
3137 08-11-2020 21:00:00 9.975 C 8.91 g/m*3 9.98 C 0 km/h
3138 08-11-2020 22:00:00 9.61667 C 8.71 g/m*3 9.62 C 0 km/h